GFSNW_sfc_rhum_000.txt.gz
RH
61 57 58 66 72 81 89 98 98 96 91 99 98 95 73 67 92 87 77 75 68 75 83 96 92 88 75 70 77 86 80 97 96 86 75 64 66 71 76 88 88 87 92 60
62 56 61 67 75 79 98 98 98 97 88 100 99 85 77 77 94 94 86 85 74 73 81 88 91 82 62 70 79 87 80 98 98 96 89 84 94 80 65 67 80 86 88 53
63 56 60 69 78 80 97 98 100 99 98 92 78 77 80 85 76 80 77 78 77 83 85 84 87 84 66 69 70 68 71 99 98 87 95 96 98 87 78 74 95 76 70 56
62 57 59 70 80 83 99 97 98 91 100 97 74 71 77 82 84 81 76 85 80 89 98 88 92 79 71 70 66 77 92 100 100 93 80 99 98 95 84 92 78 77 56 52
60 58 64 69 83 87 98 99 96 90 87 75 75 83 89 83 78 83 85 86 75 86 95 79 75 82 78 82 74 81 92 98 100 99 96 96 98 94 96 94 73 66 59 59
58 59 66 71 80 88 97 96 95 79 81 82 83 84 85 78 75 74 78 80 87 89 80 74 70 64 73 74 77 95 98 100 100 95 90 96 98 88 79 77 78 62 73 58
59 60 62 66 75 85 98 96 99 96 94 82 76 74 72 85 80 81 87 78 86 73 74 71 80 87 83 82 80 79 97 100 100 98 99 98 80 78 70 73 70 65 53 64
61 61 62 66 72 77 97 98 99 98 93 74 73 79 83 74 83 88 86 76 77 80 84 95 94 91 91 88 86 88 81 98 99 99 99 82 84 85 79 80 78 61 65 57
64 62 64 65 71 74 92 96 98 99 94 85 64 76 86 96 96 95 90 88 91 91 96 94 88 94 81 91 89 90 90 83 97 92 98 78 64 88 82 75 95 66 64 64
65 63 66 65 69 73 90 97 98 99 96 89 76 80 86 87 90 91 93 93 94 91 96 95 98 96 81 95 94 87 93 96 96 89 86 82 69 70 76 88 69 66 66 67
65 64 66 64 68 74 89 95 97 99 98 90 76 76 90 92 88 90 94 94 98 99 99 98 98 98 93 93 83 91 91 92 90 94 95 80 72 70 80 63 71 73 76 78
66 64 65 64 64 73 82 96 87 91 100 93 91 82 81 74 72 86 93 91 94 93 98 96 92 94 96 91 92 88 93 79 83 82 76 65 75 72 71 69 71 82 79 84
65 65 66 64 65 69 80 96 95 96 98 92 95 90 85 82 78 75 92 95 89 97 98 97 95 90 94 95 92 91 86 83 87 79 75 79 75 78 78 78 83 85 81 75
66 66 63 65 66 71 75 94 92 96 98 98 91 88 92 94 92 88 84 92 96 98 99 99 96 90 88 91 87 90 85 84 80 81 75 70 73 78 82 84 80 76 74 71
62 62 62 64 67 71 81 89 91 87 99 98 97 91 98 98 96 95 93 95 97 98 99 98 98 94 93 96 93 93 81 80 78 84 70 67 70 77 77 79 80 72 71 71
62 61 61 63 67 71 96 98 99 94 98 100 96 93 99 98 95 96 97 97 98 99 98 98 97 87 90 97 97 76 78 75 74 72 77 81 83 77 81 79 76 71 71 66
61 64 63 64 66 87 95 92 97 86 94 99 100 97 96 94 89 95 99 98 99 99 95 99 98 96 93 96 96 75 79 75 79 80 74 76 79 77 78 75 78 77 78 73
61 65 67 69 72 74 92 87 84 86 98 99 100 100 98 95 98 99 98 98 99 99 98 98 98 93 93 98 86 84 83 82 81 84 82 74 81 83 83 76 70 73 77 76
72 70 75 90 92 96 96 84 89 91 99 99 99 100 99 97 98 97 99 98 99 98 99 98 98 96 98 86 83 84 80 76 82 86 81 79 78 82 78 72 70 71 78 81
68 89 92 99 94 81 88 98 99 100 100 99 99 95 97 95 98 99 98 97 99 100 97 95 99 98 81 78 72 71 76 79 78 82 91 90 88 84 77 70 66 67 72 77
94 98 98 96 85 97 99 100 100 99 100 99 98 95 92 96 98 97 96 99 100 100 94 98 98 95 90 84 86 82 75 72 72 72 71 70 67 72 70 71 71 71 70 76
91 91 89 98 98 100 100 100 100 97 96 99 98 98 94 97 94 95 96 98 99 93 95 99 97 89 88 86 90 87 79 74 71 71 71 69 65 62 64 69 70 74 73 70
93 96 100 99 99 99 99 99 99 100 100 100 99 99 96 95 94 96 94 96 94 92 99 97 95 94 87 86 90 90 86 76 73 72 69 66 73 72 68 78 77 71 70 71
96 98 94 98 97 99 99 99 100 96 100 100 98 98 97 89 95 94 97 94 93 99 99 92 93 91 84 90 92 90 87 77 74 73 72 76 77 84 83 81 77 72 76 79
94 97 98 98 100 100 100 100 100 98 100 97 95 97 84 97 96 93 96 98 98 97 92 92 94 93 94 94 92 89 82 81 84 82 78 83 83 84 92 88 83 79 79 77
99 98 99 94 98 98 95 100 100 98 99 98 98 94 93 91 95 97 98 98 97 86 94 95 95 89 92 92 90 86 81 78 76 74 74 76 80 82 89 85 82 77 71 70
90 99 97 97 97 98 98 97 94 85 99 100 98 92 85 94 99 97 93 90 88 93 95 99 99 97 93 91 87 83 79 77 75 74 74 79 77 74 75 82 76 67 65 63

GFSNW_sfc_rhum_003.txt.gz
RH
64 66 61 60 68 80 87 98 98 96 96 99 99 99 74 71 87 84 81 73 73 78 75 85 84 83 70 68 80 92 80 91 98 84 70 65 65 72 72 90 89 87 84 61
65 64 58 62 69 79 98 98 97 96 91 99 100 88 81 78 93 93 83 83 78 77 81 90 88 84 66 76 76 87 85 98 97 90 87 78 97 80 71 69 77 87 85 58
66 59 61 63 70 78 97 98 100 100 97 93 92 84 85 83 78 90 81 82 78 86 87 76 89 88 71 70 73 69 73 94 94 80 83 98 98 81 84 95 94 76 73 60
66 60 64 68 74 86 99 99 98 90 100 98 78 76 76 87 88 82 80 85 76 81 93 87 96 90 78 75 72 76 85 99 98 93 79 95 99 94 85 98 81 80 58 57
66 60 66 71 75 87 98 99 97 94 96 81 71 86 87 81 84 83 88 86 74 79 88 70 84 82 82 78 79 84 87 99 100 97 94 97 99 97 90 84 78 74 66 67
66 61 69 70 74 86 98 97 94 96 82 80 80 87 84 84 77 78 78 77 79 87 80 68 69 69 68 73 75 87 98 100 100 93 90 99 98 92 93 87 78 76 83 60
64 64 65 68 73 80 98 97 99 98 94 78 73 73 74 82 82 89 85 78 86 76 81 78 85 86 95 90 85 76 97 100 100 98 98 98 92 74 70 74 62 69 63 54
65 65 65 66 68 71 95 96 99 99 95 76 72 76 76 78 85 86 86 80 78 78 90 93 97 93 93 92 91 92 83 97 100 99 99 88 66 72 77 79 78 60 69 63
66 66 65 65 66 69 89 98 99 100 98 87 63 75 87 96 96 96 89 89 92 93 96 96 99 95 86 89 89 94 87 88 99 99 98 93 58 84 67 73 74 63 58 60
65 66 65 66 66 68 86 97 95 99 99 91 78 86 92 86 91 91 90 90 95 94 96 99 99 95 84 93 91 96 98 97 98 97 95 81 67 72 76 79 69 67 65 58
65 64 64 68 66 67 84 92 93 98 98 94 83 86 91 92 92 91 89 95 97 99 98 99 98 90 92 94 83 90 90 97 97 92 96 80 72 84 86 65 67 70 72 78
65 64 65 66 65 66 76 94 86 88 99 95 93 84 81 75 73 86 92 90 90 93 98 97 95 97 90 92 92 89 95 79 83 83 74 62 69 68 66 69 72 73 79 81
61 61 61 62 62 65 74 94 95 93 99 92 94 89 82 86 82 75 92 96 84 94 98 99 93 98 88 96 94 90 86 84 88 80 74 75 73 68 75 80 78 80 78 74
60 60 61 63 62 65 70 95 92 93 97 99 90 88 93 95 92 88 81 88 94 96 98 96 98 97 88 92 87 91 85 86 82 83 75 75 74 75 79 83 80 77 73 70
62 62 62 64 64 65 78 86 90 90 95 98 97 92 96 98 96 94 93 92 95 99 99 98 95 91 91 96 94 94 87 80 82 81 71 70 70 76 79 79 81 74 70 70
64 62 59 63 64 65 91 96 98 92 95 99 100 96 98 98 94 97 98 97 98 98 97 95 93 85 87 98 98 78 80 78 76 73 77 78 83 77 78 79 78 74 73 68
64 64 66 70 68 85 93 94 96 87 92 99 100 96 95 95 94 96 97 98 99 99 96 97 98 99 97 98 99 72 80 79 73 74 75 78 81 75 75 75 77 75 72 67
65 70 72 70 72 76 91 91 86 92 97 96 100 98 93 95 95 99 98 99 99 99 97 98 99 96 96 99 85 84 83 81 78 81 83 78 82 81 83 75 70 73 74 71
71 72 74 91 92 94 95 78 82 96 99 100 99 99 95 98 98 97 99 99 99 96 99 98 98 97 99 86 84 82 85 78 76 87 85 84 82 83 77 72 70 71 73 71
68 88 92 98 93 80 85 98 99 100 100 100 99 95 96 95 98 100 98 98 98 100 96 97 99 98 81 79 78 73 81 80 80 84 95 92 91 86 75 69 63 63 66 72
91 94 97 93 84 97 96 100 100 100 100 99 97 95 93 96 98 98 96 99 100 100 94 98 98 97 90 85 85 78 76 73 71 72 71 71 67 70 69 71 72 74 73 75
92 93 90 97 98 100 100 100 100 100 97 98 98 98 94 97 96 97 97 99 99 98 94 99 96 92 86 86 88 89 76 74 70 72 72 72 68 65 65 71 74 74 72 71
92 93 95 98 99 98 98 98 99 100 100 100 100 99 96 96 95 98 96 99 96 93 98 95 95 93 87 85 89 89 80 72 72 75 74 70 74 71 66 72 69 66 67 67
88 95 99 98 98 98 99 99 100 99 100 100 99 98 95 95 96 97 97 94 95 95 99 97 94 89 79 88 90 90 86 77 76 76 75 78 78 81 77 72 68 62 65 66
94 93 100 100 97 99 99 100 100 100 99 100 98 98 91 98 96 96 96 98 95 91 96 93 94 93 92 91 91 89 81 81 83 83 82 85 82 79 86 82 73 68 70 68
98 92 98 86 96 99 93 97 99 99 98 99 99 99 94 92 95 98 98 99 97 87 95 95 94 86 90 91 90 86 79 75 76 76 78 80 79 78 84 77 73 71 68 67
95 97 95 90 96 99 90 83 89 90 99 100 100 99 86 94 99 99 96 93 89 92 96 99 99 96 93 91 86 83 80 77 75 78 77 82 82 75 71 78 75 71 68 65

GFSNW_sfc_rhum_006.txt.gz
RH
66 68 58 63 65 74 87 93 100 83 94 99 99 99 92 71 67 67 63 54 54 55 60 66 62 62 52 45 59 74 58 72 90 72 43 44 44 56 61 94 88 86 63 48
65 65 60 65 66 75 98 97 96 90 98 99 99 88 85 76 74 73 66 67 57 55 60 71 58 59 50 54 57 59 60 96 90 78 70 58 74 57 59 91 91 89 79 45
65 64 61 67 69 78 96 99 100 97 95 78 79 68 73 80 69 75 65 67 62 63 63 60 68 67 60 52 53 64 62 68 92 69 76 64 100 71 85 97 93 66 63 51
65 65 64 70 77 84 97 97 98 89 100 82 60 60 67 73 75 69 63 69 62 63 68 70 71 66 63 61 64 61 65 100 95 74 69 81 92 91 94 100 75 78 52 43
63 65 66 74 77 81 96 99 98 72 83 66 59 74 67 67 75 66 71 69 66 63 63 64 68 67 67 61 59 65 70 93 100 98 79 77 97 93 95 95 82 63 55 55
65 66 69 72 75 80 97 97 90 87 89 79 60 69 63 64 62 67 70 63 70 72 70 59 55 56 56 60 61 70 88 100 100 91 63 70 97 94 94 94 81 65 72 52
65 66 65 68 71 77 95 97 97 93 96 72 59 60 64 62 59 77 71 71 76 68 66 69 77 70 85 79 66 59 85 100 100 99 87 96 72 76 79 82 80 65 56 50
65 66 65 68 67 70 89 97 99 98 85 64 61 59 58 67 67 71 71 72 62 65 72 89 90 91 87 72 74 73 66 83 100 98 96 64 54 62 81 75 61 50 58 50
64 64 64 69 66 69 81 97 94 98 98 73 53 63 60 65 67 78 72 80 81 86 91 90 96 73 61 68 76 79 75 80 98 97 95 77 52 54 59 59 64 50 54 51
64 63 65 68 65 66 80 93 88 98 99 71 59 65 71 70 74 90 88 90 91 83 84 97 92 82 62 66 68 84 91 97 96 97 94 62 51 54 67 60 61 54 55 49
60 61 62 62 63 64 77 89 88 94 98 88 76 66 72 77 69 72 79 85 92 97 97 92 85 87 65 71 59 67 64 79 86 76 76 78 51 60 56 50 52 54 58 77
59 59 58 59 62 63 69 84 84 86 98 92 83 75 69 62 60 79 80 82 81 85 94 92 94 83 73 68 61 61 71 58 55 59 51 46 48 50 47 51 55 55 60 65
60 58 58 59 59 60 66 84 88 92 97 94 89 72 71 72 74 64 77 92 73 87 91 95 94 96 88 73 67 63 62 60 65 64 50 52 48 48 51 57 59 60 65 59
62 61 60 60 62 62 64 83 81 90 97 99 81 79 78 82 81 72 69 74 84 90 96 94 92 95 66 70 66 66 58 66 63 62 52 49 50 50 56 61 59 59 58 54
63 63 63 61 63 65 69 77 78 83 95 98 90 79 86 87 83 81 79 78 83 92 94 98 94 77 89 69 73 68 58 55 54 47 52 49 50 56 59 59 60 58 58 59
64 65 64 64 65 66 79 91 97 92 92 98 96 86 90 86 83 85 90 90 87 91 96 94 87 75 84 84 76 54 50 53 49 46 51 54 59 57 57 59 62 57 55 55
64 65 64 65 67 80 85 86 96 85 93 98 99 92 90 92 89 91 90 89 95 97 95 97 90 87 97 96 79 55 54 53 53 54 54 59 60 55 58 59 60 59 52 49
65 65 66 69 74 72 85 75 81 92 97 96 100 95 87 92 93 89 88 96 98 98 96 96 99 93 97 98 70 59 58 60 58 57 59 60 59 60 64 61 57 58 56 53
66 68 74 85 87 86 90 80 81 97 99 100 99 98 96 93 92 88 99 97 99 92 99 98 97 86 97 79 66 61 60 61 58 69 64 63 61 64 65 61 58 58 57 56
69 80 84 96 86 76 85 97 97 100 99 99 98 77 90 81 87 97 91 94 98 100 91 96 99 97 73 66 63 59 57 62 69 76 94 100 99 87 67 63 54 52 53 53
86 91 96 87 82 96 95 100 100 99 100 97 90 78 81 84 90 90 87 95 100 100 90 95 97 84 70 66 65 66 59 59 60 56 57 59 58 60 60 57 54 54 53 53
84 91 92 93 98 100 100 100 100 97 96 96 96 85 80 89 87 91 94 100 98 100 81 96 93 76 75 66 67 73 63 59 61 56 59 58 58 56 55 60 58 57 59 58
84 83 97 93 97 94 95 97 99 100 100 100 99 99 88 90 86 92 93 100 96 80 97 89 82 78 70 66 72 75 66 62 61 66 66 62 64 64 58 62 60 58 57 54
88 92 94 96 96 94 97 99 99 100 100 100 99 98 95 89 97 88 100 85 85 96 98 94 88 75 64 66 76 75 70 64 65 68 68 74 72 71 68 66 63 58 59 56
90 92 98 94 88 95 100 100 100 99 99 99 99 99 84 98 98 85 96 97 95 85 86 86 85 77 73 75 79 76 69 66 71 73 74 73 73 64 70 69 63 55 55 53
95 93 95 86 93 92 91 94 94 99 98 100 100 100 99 100 96 98 99 95 95 88 99 86 70 69 72 77 78 74 67 63 66 66 67 66 64 64 65 59 55 54 53 52
86 94 90 92 91 95 91 72 75 78 98 100 100 100 100 96 97 98 92 93 95 96 91 79 86 83 77 77 76 74 69 66 66 68 66 66 65 60 60 64 60 57 53 51

GFSNW_sfc_rhum_009.txt.gz
RH
66 68 62 67 69 79 85 87 100 89 68 98 98 99 95 72 56 60 52 44 41 42 44 48 46 47 44 39 43 59 47 62 84 64 41 38 43 57 58 90 72 79 68 56
64 65 65 68 71 78 97 87 95 85 91 99 99 95 89 60 69 66 54 53 44 40 45 54 46 46 41 41 48 50 51 79 86 81 57 43 56 47 47 63 81 93 88 52
64 65 65 69 73 79 96 97 100 98 97 84 68 94 93 78 71 60 53 54 45 46 48 48 50 55 54 43 45 66 53 62 88 65 78 55 90 70 65 87 97 69 61 51
65 65 66 70 77 80 83 98 94 78 96 82 76 69 72 80 74 58 50 54 48 46 53 52 55 52 55 53 58 52 57 100 86 64 58 66 72 72 72 99 93 96 59 47
64 66 69 74 77 78 94 98 97 83 68 51 50 62 60 61 62 55 55 52 49 48 48 50 59 53 52 55 55 58 65 89 95 94 67 66 82 66 78 90 91 95 93 82
64 66 72 73 75 77 96 93 80 97 87 58 51 55 54 57 56 62 56 53 54 58 57 53 53 50 48 50 55 64 77 98 99 85 54 60 88 83 94 94 83 87 93 73
64 64 66 69 70 76 93 95 97 94 93 55 50 52 52 54 58 67 63 57 59 65 54 60 64 64 63 65 69 65 80 96 97 99 84 94 54 56 66 80 68 58 58 59
64 64 67 68 65 69 86 91 96 97 74 51 51 50 57 51 54 64 67 67 61 60 64 69 73 88 89 72 77 78 62 75 95 98 79 56 57 49 74 90 70 52 66 60
60 62 63 63 64 65 64 91 92 97 98 57 45 49 49 57 58 63 62 70 67 68 82 83 97 89 54 66 84 72 66 70 93 79 94 80 48 48 57 70 65 49 59 70
60 59 59 59 62 64 66 80 75 95 97 62 58 54 55 49 52 83 85 82 85 81 85 88 99 93 56 62 62 78 93 96 95 91 97 60 38 45 59 66 58 51 60 62
61 59 59 58 60 61 65 71 74 87 97 86 65 52 54 65 60 74 75 81 82 87 92 98 96 96 61 61 48 61 66 78 81 82 92 79 41 45 58 51 46 48 54 77
62 61 59 58 59 60 62 74 63 80 96 88 77 66 64 62 53 54 72 75 69 74 91 94 94 96 64 55 60 47 61 46 51 52 49 38 40 45 41 45 50 48 53 69
62 61 61 60 58 57 62 68 70 77 96 90 94 68 59 61 60 60 67 75 76 69 80 96 94 97 86 88 60 54 49 44 56 56 41 42 39 38 44 49 51 51 54 55
65 62 61 57 61 60 62 73 67 81 92 98 84 72 68 70 69 68 70 66 73 83 94 96 95 93 72 68 62 62 55 57 54 52 45 40 44 46 49 51 51 57 53 50
62 65 62 64 62 62 65 62 62 66 85 98 91 71 82 77 71 68 66 63 70 89 97 98 93 88 77 59 66 64 47 50 56 46 43 45 46 48 49 50 53 53 53 54
63 64 67 66 63 62 70 81 91 77 77 98 97 78 85 81 75 76 75 74 83 96 94 95 90 75 83 89 71 42 35 35 36 40 43 46 49 50 48 51 52 51 53 53
68 65 65 65 65 77 83 77 97 87 92 97 99 94 89 85 83 88 90 87 95 91 96 97 88 84 97 88 74 45 41 43 42 44 47 52 53 51 52 53 52 53 49 48
67 66 67 71 74 72 79 69 75 85 96 95 100 92 85 85 90 86 85 92 94 97 95 93 94 95 93 93 64 53 48 44 50 49 48 52 50 52 56 54 51 53 52 49
68 67 72 81 76 73 88 76 81 95 98 100 98 98 96 88 84 86 95 90 94 91 98 95 96 93 96 71 63 56 50 57 54 57 56 56 57 58 59 55 52 52 52 50
68 69 75 92 79 79 81 91 98 100 99 98 94 69 89 79 80 86 83 87 93 100 78 83 99 96 67 55 51 51 54 52 62 75 92 100 100 83 59 57 49 48 50 48
75 82 87 75 77 92 96 100 100 99 100 94 86 62 69 74 82 78 81 93 99 100 85 84 88 77 59 59 54 54 57 54 56 50 51 58 55 58 57 54 50 49 47 48
78 87 86 83 98 100 100 100 100 98 100 92 84 77 65 81 82 86 88 100 96 100 74 91 92 72 72 61 58 59 62 57 55 52 53 53 53 52 52 51 51 48 47 50
74 81 98 91 98 96 96 93 98 100 100 100 99 98 81 82 84 90 90 100 96 76 95 88 77 75 65 54 59 68 63 58 56 59 58 57 59 59 54 55 49 50 49 47
85 93 91 98 97 89 94 97 98 100 100 99 98 98 94 82 98 83 99 85 80 95 96 92 91 79 63 58 66 73 68 62 62 64 64 71 69 66 61 59 55 49 50 52
90 94 93 91 86 94 100 100 100 100 99 99 99 100 80 99 100 82 95 96 95 83 84 86 85 76 66 66 70 70 67 64 69 70 72 70 71 63 67 66 58 52 53 51
99 93 96 84 93 96 92 97 96 96 88 100 100 100 100 100 98 97 96 92 93 91 100 90 74 72 67 67 69 69 63 59 61 62 62 63 61 63 63 57 52 50 50 50
87 90 82 86 89 90 80 61 60 63 90 100 100 100 100 100 99 98 90 96 96 96 93 81 80 83 75 70 74 74 68 61 61 63 62 62 58 57 55 57 54 53 50 48

GFSNW_sfc_rhum_012.txt.gz
RH
64 64 63 66 72 84 84 87 99 87 77 96 100 98 97 87 62 58 48 45 45 49 52 60 57 53 47 41 46 57 48 67 95 82 53 51 54 66 66 92 86 85 85 69
65 65 65 68 72 84 99 92 97 86 88 95 95 91 90 76 70 67 52 49 44 40 48 57 50 50 43 48 50 55 51 88 95 92 68 52 62 56 54 65 78 92 94 67
66 66 67 74 75 76 92 93 97 92 90 90 80 97 91 92 79 57 49 49 44 45 48 50 55 59 58 46 50 64 56 68 88 93 83 74 97 80 65 76 99 83 77 66
63 66 70 73 77 79 91 96 90 82 96 89 81 87 82 87 82 58 49 54 48 48 55 55 56 50 59 53 63 57 64 98 89 77 66 68 75 74 70 90 94 99 80 80
62 64 73 75 76 79 90 98 96 88 67 68 88 74 91 72 58 58 55 56 47 47 53 58 52 54 53 62 59 64 67 98 99 94 72 71 81 73 71 68 77 96 95 94
63 66 73 72 73 76 96 94 84 97 76 63 59 65 57 60 62 63 60 53 54 62 68 60 61 59 53 55 62 68 86 100 98 93 66 75 89 78 83 79 82 86 97 82
61 62 63 64 67 72 94 94 98 97 82 63 52 52 54 58 66 69 63 56 65 70 60 66 69 68 70 65 65 64 87 99 99 98 92 95 64 57 64 75 75 64 64 65
61 60 60 61 64 66 81 93 98 98 89 56 51 51 58 56 60 70 69 70 69 67 73 82 77 87 92 81 73 74 73 88 98 99 94 66 56 62 73 89 79 60 71 73
62 61 60 59 61 63 69 92 92 97 99 62 58 52 55 69 66 74 76 78 78 78 90 87 90 90 72 87 88 76 78 78 94 88 95 88 64 63 64 77 89 65 73 82
63 62 60 59 60 60 69 88 84 97 98 73 78 61 64 59 64 92 87 86 87 83 93 89 98 92 67 77 84 93 94 95 97 97 96 81 52 58 64 90 76 63 59 77
64 63 62 60 59 59 69 76 84 90 96 86 71 69 75 73 73 88 86 89 87 93 91 96 95 97 80 80 64 76 80 87 93 93 98 94 56 61 77 67 66 59 61 84
65 63 61 60 60 58 60 76 66 76 96 89 76 70 69 73 75 75 80 82 78 84 93 96 93 92 92 78 80 58 70 63 70 73 72 50 54 56 59 59 65 64 66 79
62 64 62 63 58 59 61 82 75 88 94 85 93 82 65 64 69 71 83 87 76 81 89 94 94 98 90 95 81 76 62 53 74 68 56 59 58 56 60 63 67 66 66 73
62 61 60 61 61 62 59 84 77 84 94 99 87 71 78 76 76 75 76 78 81 88 92 96 90 97 83 86 80 78 71 65 70 70 61 66 62 64 63 61 65 69 63 62
65 66 64 65 65 65 68 77 72 70 93 99 96 78 82 82 79 74 75 73 84 95 99 98 91 89 89 79 75 79 66 73 78 77 59 62 70 65 62 63 66 63 65 66
64 65 69 66 66 64 82 84 90 77 78 99 100 87 89 83 83 78 78 80 81 93 96 95 91 79 87 97 81 60 53 53 51 56 59 61 63 61 59 63 64 63 65 63
66 67 67 67 69 82 87 81 97 90 89 99 100 100 92 84 82 89 93 91 96 97 97 98 93 89 90 97 90 59 47 53 57 65 60 70 65 69 62 62 63 60 59 57
67 68 67 73 75 75 86 75 74 85 97 96 100 99 97 91 93 97 93 97 97 99 96 95 97 92 96 97 81 72 62 58 61 68 63 65 63 64 66 61 60 63 60 56
69 67 71 86 88 82 94 78 78 93 98 100 99 100 100 95 92 96 97 95 99 95 98 97 97 94 98 86 76 72 64 72 77 73 67 66 68 69 66 62 62 60 61 59
68 81 80 91 84 76 80 95 98 99 98 98 99 82 97 90 92 97 95 97 95 100 91 90 99 97 77 68 64 71 71 72 75 83 90 93 90 83 66 64 56 56 57 58
82 85 89 85 77 94 96 100 100 100 100 97 94 82 90 87 90 89 94 97 100 100 94 90 98 90 75 66 61 62 65 68 69 65 67 74 72 71 66 62 55 55 55 55
86 88 88 91 99 100 100 100 100 100 97 98 96 94 89 90 94 92 92 100 99 98 88 96 97 91 80 62 60 61 72 69 70 64 64 67 63 62 64 63 57 54 53 51
87 86 97 95 99 99 98 98 99 100 100 100 100 99 88 96 96 96 91 99 97 90 98 88 94 93 73 68 70 74 73 68 65 66 66 66 69 68 60 58 54 52 51 48
86 90 97 92 90 86 97 98 99 100 100 100 99 99 97 91 99 94 94 94 92 90 95 95 99 92 81 73 75 77 78 74 71 74 76 79 76 74 68 62 60 61 51 53
90 89 95 90 93 98 100 100 100 100 99 100 100 100 90 100 100 92 98 95 89 81 94 100 95 91 86 79 77 78 76 74 79 80 81 79 78 74 77 73 63 52 54 55
96 90 91 89 97 92 98 96 99 99 92 99 100 100 100 100 99 97 89 89 90 97 100 98 95 88 86 82 79 81 77 69 69 69 72 73 71 70 70 63 57 55 54 55
87 96 89 96 93 91 96 77 77 73 94 100 100 100 94 99 99 95 87 90 99 96 98 98 92 91 87 83 86 87 82 75 70 71 69 70 68 64 59 62 62 62 56 54

GFSNW_sfc_rhum_015.txt.gz
RH
65 66 68 68 79 81 86 92 99 89 88 99 99 100 97 90 80 75 67 51 55 64 77 76 73 69 58 47 48 63 50 74 97 82 64 59 66 74 78 94 85 94 96 71
67 66 70 70 78 78 99 98 96 88 93 100 99 95 88 85 83 69 57 56 50 52 60 70 58 57 52 48 50 62 51 80 95 86 78 62 73 69 67 75 85 87 92 66
66 67 71 74 74 76 95 97 97 92 96 94 92 98 91 92 78 70 56 52 45 52 53 56 59 74 60 55 58 63 55 80 85 89 85 80 92 80 70 75 98 85 78 65
60 63 67 73 76 78 94 98 92 89 98 93 90 87 90 84 82 62 54 58 52 54 64 61 65 68 66 58 68 58 69 95 94 83 78 82 81 77 74 85 81 97 71 73
62 62 63 71 75 77 96 97 99 90 92 89 91 91 92 80 74 76 62 60 60 64 68 68 65 60 70 73 73 71 72 92 98 98 81 82 89 76 74 76 76 74 74 80
62 62 62 67 72 75 97 94 89 97 85 88 88 81 74 72 73 68 70 67 78 84 81 73 75 59 60 61 66 70 86 99 98 94 75 84 93 80 72 78 79 77 95 76
63 62 61 61 63 68 94 94 98 97 96 84 60 64 62 76 77 78 74 72 81 78 67 74 74 76 76 65 63 66 94 96 98 99 92 92 69 61 69 79 78 77 71 70
63 63 62 60 61 63 90 94 97 98 97 86 62 62 67 72 80 81 80 83 83 77 82 89 86 88 91 85 72 76 76 86 98 97 99 74 62 74 81 91 80 67 72 84
62 63 64 61 60 60 86 94 93 98 99 87 80 70 60 80 86 84 92 87 84 83 95 91 93 96 76 97 91 77 78 78 94 98 99 91 70 66 74 81 89 64 70 81
63 64 62 62 60 59 77 91 86 97 99 82 79 86 75 60 80 91 87 88 88 87 95 95 95 89 84 93 93 97 94 95 97 95 97 84 61 60 74 89 68 70 67 76
66 63 63 60 59 60 74 88 81 91 98 90 70 71 89 95 86 91 88 90 90 96 95 94 92 94 82 89 82 91 89 94 96 98 98 92 56 75 82 62 74 70 68 82
66 63 60 63 65 58 64 91 75 81 97 89 79 72 72 73 77 90 90 88 89 89 96 95 92 88 87 94 95 71 89 76 85 80 77 55 57 58 64 67 68 72 77 78
67 63 59 64 57 58 64 93 91 93 98 92 94 88 71 71 69 74 90 92 82 88 90 94 93 94 88 90 95 89 66 56 66 72 63 59 60 70 69 69 70 69 81 76
59 62 61 63 61 62 65 90 89 93 96 99 88 74 83 84 79 76 77 80 88 91 92 96 94 92 91 92 85 89 77 68 70 79 67 74 73 76 74 70 80 74 76 80
63 66 61 65 64 65 74 90 89 82 95 99 98 84 79 88 87 81 78 82 89 96 98 98 97 89 90 82 84 95 76 79 82 83 60 65 71 76 67 71 77 71 71 72
63 66 69 66 66 68 92 94 96 88 86 99 99 92 95 90 88 87 84 86 86 92 94 96 92 80 88 98 96 64 62 62 60 62 59 65 70 66 68 68 70 69 69 68
68 68 66 67 69 90 96 90 96 87 89 98 100 99 94 87 88 90 93 89 95 94 96 98 94 91 90 97 84 69 67 60 57 65 63 71 68 71 67 66 67 65 65 64
68 68 68 68 73 75 89 88 78 86 97 99 99 100 98 91 98 98 93 98 99 99 96 96 98 93 93 98 83 80 70 72 75 74 70 69 70 70 70 66 62 64 63 60
69 69 72 88 93 91 96 80 83 94 98 100 100 100 100 96 94 97 99 96 99 95 98 96 95 93 98 86 86 80 69 75 68 77 75 74 74 74 70 64 62 60 63 61
67 86 76 96 91 74 80 95 98 100 99 99 99 94 100 94 93 99 96 99 98 100 94 94 99 94 82 68 64 61 65 74 83 81 84 91 89 85 73 67 57 56 59 58
86 89 86 89 79 95 97 100 100 100 100 98 95 94 92 90 91 94 93 99 100 100 95 90 94 94 77 70 66 64 66 76 79 78 76 74 76 76 71 66 59 60 58 60
87 88 90 95 99 100 100 98 100 99 99 98 98 96 93 95 94 93 95 99 99 99 89 96 88 94 86 76 73 73 74 74 74 70 77 75 74 72 67 64 67 62 60 54
90 91 94 96 99 98 99 98 99 100 99 100 100 100 94 95 92 97 95 97 94 91 97 88 94 94 84 80 76 76 73 75 73 72 70 70 73 71 64 62 58 53 54 56
93 95 96 96 97 94 91 99 99 99 100 99 99 100 98 97 99 92 94 90 91 89 95 93 98 96 91 83 77 78 80 75 82 79 80 80 84 84 78 68 58 58 65 68
95 94 98 95 92 98 99 100 100 100 99 99 100 100 95 99 100 95 97 94 91 81 92 98 98 96 93 88 81 81 83 79 76 80 82 81 85 82 86 83 73 68 76 60
94 94 98 92 98 97 98 97 99 98 95 99 100 100 100 100 96 98 90 86 90 97 99 99 98 94 94 89 83 84 84 79 73 71 72 75 76 78 79 73 68 58 54 56
93 98 90 97 97 97 99 92 78 74 96 100 100 99 96 99 100 97 92 94 100 99 94 99 94 94 95 91 90 88 88 83 80 79 73 74 73 67 64 66 66 65 61 59

GFSNW_sfc_rhum_018.txt.gz
RH
62 64 66 69 75 82 87 93 98 83 87 99 99 100 99 92 80 80 83 59 65 80 75 79 77 84 66 53 57 70 60 81 95 84 69 64 71 78 80 93 84 97 94 80
62 63 65 69 74 80 97 98 97 90 94 99 99 93 87 88 82 85 63 60 56 63 71 76 68 63 54 54 54 64 57 81 95 88 78 74 80 74 74 79 90 95 95 73
62 64 65 68 72 78 93 97 94 92 95 96 96 88 92 86 76 71 61 58 54 55 60 60 74 70 59 52 52 63 61 82 83 89 81 83 90 81 75 81 98 88 80 63
63 64 64 66 74 76 92 98 95 92 99 93 89 81 82 86 87 74 58 58 54 60 68 68 78 71 66 63 67 64 66 90 95 87 79 84 83 80 79 90 76 92 67 68
64 64 63 66 71 76 96 94 98 85 99 90 91 90 92 88 80 80 75 80 71 61 76 70 76 71 73 70 77 74 70 93 92 94 85 90 93 82 79 74 71 69 67 72
64 64 63 63 66 76 98 97 90 96 86 92 92 86 78 81 76 71 76 73 82 86 83 77 75 60 62 66 73 81 82 95 93 96 76 87 94 86 78 79 78 78 92 73
64 64 64 62 62 70 93 96 98 94 92 95 79 67 77 79 79 78 81 79 84 83 74 76 72 76 71 60 61 67 88 92 96 98 89 94 66 61 65 69 72 79 82 72
64 67 64 63 61 62 90 95 98 96 91 87 84 89 80 82 82 86 87 90 87 84 82 87 88 86 84 79 72 76 72 87 99 98 98 74 67 76 78 84 78 73 81 65
67 66 65 63 61 60 89 94 94 98 97 95 87 96 73 86 88 86 92 88 85 84 94 90 93 91 78 98 96 79 74 78 95 95 99 91 63 72 79 80 92 72 68 69
66 63 61 63 58 60 82 92 82 98 99 78 86 94 88 81 87 90 90 88 88 85 94 97 96 92 78 97 90 98 96 96 98 97 96 87 62 63 78 85 66 69 72 73
58 64 60 59 62 59 77 84 87 94 96 85 82 69 83 90 93 90 84 86 89 97 94 94 92 90 83 88 78 94 89 96 98 97 98 94 60 83 83 63 75 76 74 82
61 65 62 60 64 57 63 89 78 86 94 90 86 73 68 73 73 90 91 84 90 91 95 96 95 92 88 92 75 80 89 76 84 85 79 55 56 64 64 69 73 77 77 82
64 58 55 61 62 62 61 86 90 94 98 94 93 71 45 53 64 60 98 91 85 88 89 95 94 93 88 87 82 91 78 62 73 75 64 59 58 62 73 76 73 69 78 79
70 62 62 61 60 63 66 95 90 90 94 90 82 66 76 67 74 71 78 86 91 90 93 95 96 94 89 91 88 93 85 80 71 77 75 72 72 66 73 68 78 81 85 83
66 60 64 66 67 65 80 86 89 85 91 89 87 64 61 66 87 84 81 82 87 95 97 97 96 93 91 88 83 91 83 86 87 81 65 66 66 73 69 70 77 74 80 82
70 68 68 64 65 67 91 96 95 90 93 92 94 90 92 95 93 89 86 87 92 93 93 95 92 82 86 97 95 79 77 64 61 72 67 66 68 68 69 72 73 73 74 75
68 68 68 68 67 91 94 86 93 84 89 98 98 99 95 90 93 96 95 89 96 94 93 97 94 93 91 95 92 63 68 74 72 68 71 75 71 68 68 70 70 68 70 69
68 68 69 68 72 82 92 93 81 88 96 98 99 98 98 91 98 98 94 99 98 98 94 96 97 94 95 99 86 81 73 60 71 69 68 72 74 72 74 73 68 69 68 67
68 70 71 88 90 91 96 80 82 95 97 100 99 100 100 97 97 98 98 95 99 94 98 96 94 94 98 84 73 71 68 69 68 77 76 79 77 76 75 72 70 69 68 65
70 80 81 86 87 79 82 98 96 100 100 99 99 98 97 96 92 99 95 98 96 100 97 97 99 94 83 68 69 74 74 75 82 92 90 94 88 87 79 75 66 61 61 61
86 93 89 93 79 94 97 99 99 99 100 99 98 98 97 92 92 98 94 99 100 100 95 92 98 94 73 77 77 74 76 78 82 86 84 86 83 82 79 74 64 62 61 65
84 88 88 95 97 100 99 98 98 99 99 98 99 99 98 94 93 95 96 98 99 99 90 95 92 92 90 84 80 76 74 74 79 77 78 82 78 79 76 73 62 62 70 75
93 95 95 97 99 99 100 97 99 100 99 100 100 99 98 92 92 97 94 96 95 92 96 89 93 94 88 85 82 80 75 74 70 79 77 78 78 77 68 70 71 72 74 72
94 96 98 98 98 97 96 99 100 99 100 99 99 100 99 98 99 94 92 92 91 95 87 88 97 97 94 88 82 81 83 80 76 85 88 86 87 84 78 74 67 58 61 57
96 96 98 97 93 98 99 100 99 100 99 99 100 100 97 100 98 94 96 97 94 80 90 98 99 98 95 94 86 87 88 86 80 75 85 87 86 82 88 87 79 66 70 74
95 96 99 91 97 98 97 97 98 98 99 99 100 100 100 100 97 97 94 87 90 96 99 99 98 94 94 95 91 90 89 86 82 78 74 74 76 86 89 91 89 89 88 84
97 98 94 97 99 98 94 95 92 80 97 100 100 99 93 98 98 99 91 94 98 98 97 99 95 93 94 94 93 94 94 88 86 87 79 81 76 71 76 85 81 81 73 71

GFSNW_sfc_rhum_021.txt.gz
RH
65 65 66 68 73 82 87 95 94 84 90 98 99 100 97 89 84 82 84 63 74 74 75 84 84 80 69 56 61 69 63 81 97 84 72 66 74 79 82 88 84 97 96 82
65 66 66 67 70 79 96 97 97 89 93 98 98 90 88 91 89 89 77 63 62 69 72 80 74 71 58 59 60 66 62 84 95 90 81 77 81 79 76 81 86 94 95 75
65 65 66 67 68 76 93 97 96 94 96 94 93 88 92 87 78 81 60 63 59 60 66 66 75 70 66 58 55 64 62 80 82 87 79 85 92 85 80 81 99 90 80 74
65 65 66 66 68 74 92 98 98 96 99 90 90 86 89 91 90 76 63 61 59 63 75 75 82 73 69 64 68 70 66 90 94 89 80 86 81 79 81 90 75 92 76 72
65 66 66 65 68 73 96 96 91 86 96 93 93 88 91 86 82 81 78 72 70 65 75 71 81 71 74 71 66 70 71 96 94 93 84 91 96 87 84 80 76 75 72 74
65 66 66 64 65 76 98 97 90 96 86 93 91 86 84 83 78 78 82 80 86 88 86 83 68 63 60 62 72 81 78 94 93 98 77 87 94 85 81 82 79 74 87 64
68 67 65 64 64 72 94 97 98 90 94 96 89 83 79 82 84 81 87 85 85 85 78 76 71 76 69 67 74 69 84 89 93 99 86 94 65 68 67 70 68 72 72 68
65 67 65 63 63 64 78 96 98 97 88 80 91 91 88 83 81 88 89 92 88 87 82 88 83 82 75 78 70 74 69 85 99 98 93 80 68 82 81 80 76 73 79 75
64 68 60 65 59 62 85 94 96 98 98 94 81 96 90 88 88 85 93 89 86 85 93 88 93 92 77 97 95 80 74 74 94 91 93 94 64 80 82 79 81 70 74 71
61 60 64 59 62 62 80 90 88 95 95 86 89 98 96 89 89 89 92 90 88 84 94 95 96 95 81 96 95 99 99 99 96 90 96 86 63 60 82 85 71 75 75 71
70 60 67 62 60 62 77 84 89 92 92 83 84 81 90 87 95 91 85 86 89 96 92 95 95 94 89 90 78 92 91 97 98 98 98 94 70 84 83 66 77 76 75 76
78 65 57 58 63 63 66 84 80 89 96 89 90 77 73 83 75 87 93 85 90 92 94 95 95 96 89 91 90 87 91 83 92 86 78 59 68 73 67 73 76 78 78 80
72 80 64 60 61 62 66 86 82 94 99 91 93 78 59 52 51 49 89 90 81 91 87 94 95 90 89 97 93 93 81 63 77 83 76 70 61 59 68 73 74 72 72 82
72 76 61 60 62 60 66 93 87 91 96 98 81 63 72 61 55 57 60 76 90 88 94 95 95 92 86 91 85 86 83 81 77 75 78 77 73 72 68 75 76 81 86 82
74 76 69 67 68 67 78 89 86 84 97 96 89 70 46 42 43 79 72 76 94 94 96 96 96 94 93 94 87 94 80 87 91 90 73 76 69 73 72 70 74 76 84 89
74 76 69 69 67 66 90 97 92 91 91 99 98 83 89 88 76 92 90 93 96 94 95 96 95 82 85 98 96 79 73 67 69 77 77 73 73 73 73 75 73 76 81 84
75 73 70 69 68 90 93 84 86 84 89 95 92 95 83 76 95 98 96 97 99 94 92 97 93 93 88 95 93 73 77 70 64 73 80 84 77 73 75 73 73 70 74 76
76 70 70 71 75 84 90 93 79 87 96 98 99 96 99 89 97 99 96 99 92 98 95 97 97 96 96 99 89 72 62 63 61 64 66 74 76 79 80 77 72 72 71 69
71 71 71 89 92 92 95 81 84 95 98 99 99 99 100 98 97 98 96 93 98 96 98 96 92 93 99 88 73 74 73 81 80 80 84 80 75 73 79 75 74 74 73 70
67 78 90 83 88 78 83 96 99 100 100 100 99 99 98 95 92 99 95 95 97 100 96 98 99 97 83 71 72 71 78 86 91 97 94 91 90 90 83 80 73 70 69 68
88 94 94 92 79 86 96 99 100 99 97 99 99 98 99 93 93 97 94 99 100 100 96 98 99 97 77 77 76 81 85 84 84 84 87 89 89 90 88 83 74 69 67 65
84 89 87 96 97 100 100 97 98 99 99 98 99 98 99 98 94 96 97 99 99 98 90 95 86 95 90 89 90 85 83 83 79 74 86 82 84 89 90 84 75 67 62 68
95 98 98 98 98 99 97 97 98 99 96 100 99 100 99 95 96 97 94 94 96 93 97 89 94 95 92 93 91 85 79 77 74 75 85 84 87 80 80 71 66 69 68 70
95 88 96 98 99 98 95 98 100 97 100 99 98 99 99 97 99 94 90 95 90 99 95 87 99 94 95 93 88 87 88 85 82 77 89 94 91 87 79 77 76 74 78 80
96 96 99 99 92 98 99 99 98 97 99 99 99 100 97 100 95 93 97 99 92 85 91 99 97 98 94 94 91 93 94 89 86 81 79 77 85 84 87 86 83 78 79 82
96 98 100 93 98 97 98 98 97 98 99 99 100 100 100 100 98 98 95 93 92 93 100 98 97 92 93 95 94 94 96 92 86 83 80 75 79 79 90 94 90 88 84 88
98 99 94 98 98 98 97 84 90 96 99 99 100 99 92 99 98 99 94 94 95 99 99 99 95 92 93 94 90 93 94 95 92 90 86 88 81 75 82 93 93 96 96 92

GFSNW_sfc_rhum_024.txt.gz
RH
66 67 67 68 71 80 85 94 92 82 94 98 100 100 98 86 88 86 79 71 76 83 81 86 83 83 69 59 61 70 68 84 98 83 74 70 76 80 80 86 82 96 95 78
67 67 68 67 69 76 97 96 95 85 90 99 97 89 91 91 87 86 82 67 66 70 76 79 76 73 63 61 58 63 65 84 96 89 79 78 85 84 76 79 86 98 91 68
66 67 67 67 68 75 94 96 96 95 92 92 93 86 94 88 78 79 63 68 63 65 69 70 75 74 70 63 58 62 61 78 82 86 78 86 94 87 82 81 97 88 87 75
66 66 67 67 68 74 91 98 96 95 99 94 92 91 90 89 90 80 69 65 65 67 81 82 82 76 75 67 69 70 67 91 92 88 80 84 81 82 86 88 82 86 79 76
68 67 67 66 68 75 96 96 98 79 94 94 93 86 88 90 85 88 79 74 76 69 74 71 81 73 78 78 69 75 75 96 95 95 83 91 97 89 83 84 78 74 70 74
67 70 66 66 65 78 98 97 87 96 86 92 91 88 86 84 82 81 88 83 85 88 89 87 69 62 62 70 75 81 77 94 94 97 82 87 92 88 84 84 81 72 86 62
66 70 66 64 65 74 95 97 98 92 96 96 92 90 87 87 87 85 89 86 79 86 82 81 73 73 73 68 80 70 82 87 94 99 86 90 62 70 68 71 69 73 70 65
68 66 66 64 62 68 88 98 97 98 90 76 92 95 95 83 84 90 89 92 88 87 80 84 84 80 76 82 75 77 70 86 98 97 88 78 69 86 77 76 78 70 69 63
65 64 64 62 61 67 84 95 96 97 92 92 83 82 92 92 89 85 92 90 87 85 91 88 93 82 84 93 95 79 74 81 95 85 84 95 60 80 82 79 83 73 77 75
75 71 64 66 62 65 79 89 90 95 90 80 90 96 92 95 91 90 93 91 90 84 93 94 94 95 87 92 98 98 99 99 93 94 95 86 64 61 82 86 71 73 78 76
71 77 70 60 60 63 71 82 88 86 96 92 81 88 90 84 92 95 87 90 90 95 92 93 95 95 94 93 88 92 90 92 96 90 99 93 72 84 79 67 77 76 78 77
72 72 74 76 60 60 69 79 75 86 93 84 80 65 64 76 68 84 89 89 89 92 94 96 95 96 96 90 95 88 93 85 92 89 82 60 63 75 70 76 73 77 79 77
72 72 77 68 62 62 64 85 84 95 98 92 91 88 67 64 62 50 94 92 84 91 88 94 94 92 94 99 96 91 84 67 74 85 79 77 69 67 66 73 75 74 73 77
75 71 74 79 70 64 65 91 92 91 97 98 80 59 74 69 64 57 52 67 68 87 90 92 95 91 87 92 85 92 86 84 85 77 75 76 75 70 68 74 72 76 80 84
82 76 73 77 69 69 79 93 94 90 96 97 89 74 63 57 52 52 50 62 74 89 99 96 95 95 93 95 94 96 87 83 88 87 76 84 78 74 77 74 74 72 80 88
79 78 80 74 69 68 90 97 92 94 96 100 98 82 82 80 80 60 53 78 83 92 97 95 96 86 87 94 96 81 82 82 75 88 87 86 79 82 81 75 74 74 80 85
76 79 74 70 71 93 95 85 82 86 94 99 95 95 78 84 87 87 85 90 94 95 96 96 96 95 88 94 86 88 85 71 64 64 70 75 85 85 85 74 74 75 80 81
78 74 70 72 76 83 92 88 80 90 97 98 99 95 99 93 94 91 90 97 95 98 96 98 97 98 95 96 85 80 72 70 64 70 75 72 72 77 85 80 78 78 76 75
78 66 74 89 94 94 93 83 83 95 96 99 98 99 98 89 93 96 98 97 99 99 97 97 93 97 96 91 83 84 82 85 86 88 91 91 90 80 77 80 81 77 78 75
67 79 88 87 90 77 85 96 99 100 100 100 99 99 98 98 97 99 97 96 98 98 94 97 99 97 88 81 82 83 84 87 91 95 95 94 93 93 90 84 80 77 75 74
85 93 96 90 79 89 97 99 100 98 99 99 99 99 98 95 95 97 92 99 99 97 99 96 98 94 88 89 88 86 89 90 89 90 89 90 93 94 93 90 86 79 74 73
85 88 89 94 95 98 100 98 97 99 96 99 99 98 98 97 94 95 96 99 99 98 93 99 98 96 93 91 86 91 90 89 80 72 78 86 90 92 94 93 92 80 72 70
93 98 99 98 97 99 99 96 97 96 100 100 99 99 99 96 95 97 98 96 98 94 99 92 94 96 93 94 94 92 86 77 75 74 76 88 89 89 79 74 70 65 64 65
95 95 97 98 97 94 97 97 99 96 96 99 98 99 99 98 100 96 92 97 93 98 99 90 99 94 92 93 91 92 93 89 84 81 79 88 94 96 90 83 74 69 71 74
95 94 98 97 91 97 98 99 99 98 93 96 98 100 98 100 98 94 99 99 98 90 90 98 98 94 93 93 90 92 97 96 92 88 85 80 78 87 93 91 83 77 80 82
96 98 99 90 98 96 98 99 98 98 95 97 99 100 100 99 99 97 94 91 91 91 98 99 92 94 94 94 91 94 96 95 92 88 85 83 81 81 87 94 91 86 85 92
100 98 94 98 99 98 98 94 94 94 99 99 100 99 95 99 99 98 97 94 93 98 100 95 94 92 93 92 84 89 90 94 93 94 91 92 87 83 79 81 88 96 94 92

GFSNW_sfc_rhum_027.txt.gz
RH
68 68 68 69 68 76 85 94 92 81 92 96 99 100 98 86 88 84 72 74 77 85 83 85 84 79 68 57 58 69 67 82 93 79 70 66 70 74 68 80 80 88 82 55
67 68 68 68 68 75 97 95 93 84 90 98 97 83 84 91 86 83 77 72 70 72 76 80 74 70 62 60 57 65 63 81 96 86 78 75 79 76 68 73 80 96 77 49
69 68 68 68 67 76 94 96 94 94 95 94 92 94 94 88 81 78 66 71 65 68 71 71 76 74 74 63 58 64 59 75 79 75 75 82 91 82 72 77 90 80 76 62
69 70 68 67 66 75 92 98 97 92 98 93 96 94 92 90 91 84 70 69 67 69 82 84 83 79 78 67 70 67 65 91 91 80 71 83 80 80 82 86 75 82 62 70
68 69 68 67 66 73 96 96 97 86 95 94 94 84 91 91 88 91 80 76 82 72 74 68 82 75 82 78 77 72 74 96 94 90 80 88 95 84 82 80 73 74 71 71
69 68 67 66 66 76 95 92 87 96 88 94 93 90 86 87 87 87 88 81 77 87 89 88 79 69 66 67 74 81 74 94 92 91 78 82 93 85 83 79 79 69 81 61
69 65 67 63 66 74 98 99 98 92 96 96 96 93 95 88 88 85 89 87 78 82 78 77 69 73 74 71 79 67 79 87 92 96 81 89 58 67 68 72 69 71 67 62
72 69 66 65 62 67 93 96 93 95 83 79 92 91 97 91 82 89 89 93 88 87 81 83 83 78 74 78 85 84 64 82 97 95 85 71 71 80 78 76 74 64 65 57
72 85 75 68 64 67 82 94 96 95 91 85 77 76 78 98 92 86 91 91 88 85 91 87 90 92 80 96 94 80 82 77 83 86 90 88 59 80 74 74 83 67 66 66
70 71 81 73 62 65 76 88 89 94 97 87 75 91 87 86 95 94 91 93 92 86 93 92 93 92 82 95 88 96 99 99 97 91 89 82 61 61 76 79 71 63 72 73
71 68 69 81 72 61 76 84 87 88 92 87 75 89 95 90 89 95 88 92 91 93 91 88 89 94 94 93 87 74 82 95 84 78 88 94 69 80 75 64 70 70 73 73
78 72 70 80 70 62 72 89 75 83 92 86 70 64 62 72 70 77 83 96 90 92 93 95 95 96 97 93 85 90 95 82 89 81 79 61 65 67 67 72 68 71 76 72
79 75 66 78 83 75 64 86 90 94 100 85 88 89 72 67 64 56 90 87 89 93 90 92 93 91 94 97 87 92 87 78 85 86 78 77 69 64 72 72 72 70 69 72
80 79 78 76 77 74 69 93 94 92 96 98 79 60 70 60 70 69 64 64 69 77 92 93 94 93 89 94 86 89 86 82 84 88 80 78 79 76 70 71 71 71 73 79
84 79 76 80 82 72 82 91 92 87 95 95 91 76 67 62 75 74 69 65 64 82 98 99 95 94 93 96 94 96 90 87 93 94 78 78 78 79 82 77 81 78 76 80
90 83 77 83 69 70 89 96 93 94 95 99 96 84 81 76 76 71 69 66 80 96 99 96 94 86 84 97 96 81 83 82 78 86 90 88 85 82 87 82 78 74 75 80
84 82 81 68 72 93 93 86 81 89 95 98 97 93 74 82 84 85 83 71 87 96 98 98 96 97 90 95 97 82 86 77 71 73 81 84 79 74 80 84 85 74 78 78
82 81 70 74 75 81 92 86 80 91 96 96 98 95 93 87 89 74 93 93 90 98 97 98 97 98 96 98 87 84 74 77 74 77 76 73 77 77 80 83 79 79 77 77
81 70 67 90 92 93 92 80 86 94 95 99 98 99 96 89 94 94 95 93 99 96 98 98 91 99 92 88 90 82 84 82 83 87 89 90 92 91 83 81 75 79 81 78
65 78 88 96 92 76 85 97 98 100 100 100 99 99 98 98 97 98 97 97 99 100 98 97 94 95 91 86 88 85 86 90 92 94 92 96 96 96 92 89 89 82 81 78
86 91 95 88 80 90 95 99 100 98 96 98 97 100 98 94 99 98 97 99 100 99 100 97 100 88 95 89 88 89 89 91 91 92 89 88 88 96 98 95 93 92 86 80
91 91 89 94 94 97 100 98 98 98 96 99 99 99 98 95 97 95 96 100 98 98 95 98 98 94 95 89 92 92 91 91 87 76 75 84 89 90 95 95 90 88 84 77
94 98 99 97 97 99 98 96 96 98 99 100 99 98 99 96 96 97 96 96 92 95 99 95 96 96 94 95 94 93 92 87 75 76 74 78 90 91 90 83 70 68 66 64
95 95 96 98 97 96 95 95 98 97 98 92 96 99 100 98 100 95 99 98 94 97 98 93 95 95 95 93 91 94 96 93 89 87 86 82 83 94 95 95 93 84 68 68
94 94 90 96 90 97 96 99 96 96 90 90 94 99 99 100 100 98 99 98 95 88 88 96 99 93 88 90 86 94 96 94 92 89 87 84 82 77 80 93 89 80 78 77
95 96 99 90 99 96 98 99 98 96 96 97 99 99 99 99 100 99 95 94 90 90 97 98 93 90 93 91 84 90 92 88 85 87 87 84 84 84 81 88 92 90 85 89
100 98 93 98 99 97 97 94 93 93 98 99 99 99 98 99 99 98 98 93 93 96 100 98 92 94 94 90 82 85 81 79 89 94 95 95 90 84 82 85 82 91 97 93

GFSNW_sfc_rhum_030.txt.gz
RH
70 68 69 68 67 76 81 74 87 70 74 86 86 95 88 82 71 64 54 55 60 59 60 62 61 52 53 45 44 50 52 66 83 68 57 53 52 52 43 53 73 61 56 30
69 70 70 69 67 73 92 79 78 66 76 85 80 68 70 73 65 63 55 56 54 53 56 62 56 58 51 48 46 49 48 67 90 85 66 59 64 57 52 54 64 81 52 32
70 70 69 68 67 70 82 81 89 73 73 76 70 75 73 69 66 59 52 54 48 49 52 50 57 58 61 51 47 63 52 58 73 57 78 63 81 63 56 60 75 54 44 36
70 70 69 67 67 71 74 86 90 79 90 77 74 77 75 71 69 64 53 53 51 48 55 56 57 59 58 54 62 53 50 97 85 58 60 70 66 65 64 81 56 64 40 44
73 68 69 66 68 71 74 86 87 68 75 76 72 71 71 74 70 75 57 55 53 50 49 44 55 54 54 55 59 53 56 92 86 85 68 71 80 63 60 62 57 54 47 48
73 70 68 66 69 67 81 84 78 92 77 73 67 70 71 72 70 68 70 60 58 60 61 60 53 45 43 46 52 58 60 90 89 80 63 65 75 63 62 61 58 54 60 43
72 76 74 70 68 70 78 84 94 80 74 68 71 76 81 76 76 76 68 66 59 60 51 49 45 47 51 50 54 46 61 79 86 86 69 79 52 50 51 56 50 51 47 44
70 75 75 72 67 68 64 79 85 82 64 63 65 74 84 75 66 70 74 73 72 61 59 58 60 61 61 67 65 54 49 60 86 82 71 52 48 62 59 61 58 47 49 42
71 68 73 79 70 65 63 79 81 82 81 55 66 65 68 84 74 64 73 74 69 65 68 65 71 65 55 72 75 63 60 53 61 69 78 57 45 59 55 53 66 52 48 48
73 70 74 76 84 69 68 79 75 78 74 51 67 65 66 70 87 81 70 77 77 68 72 72 69 65 54 70 77 86 77 80 78 74 69 49 38 52 56 66 58 49 52 53
78 78 76 77 84 68 73 77 75 70 78 61 55 64 63 54 63 83 78 80 82 85 85 80 74 66 62 65 57 61 65 75 80 74 79 78 46 57 52 48 50 49 52 55
78 77 74 72 80 82 72 77 69 73 83 68 55 47 43 46 52 65 68 91 82 72 80 76 74 71 70 64 69 58 72 56 54 53 51 40 48 49 51 53 54 54 57 54
75 81 77 76 76 79 83 75 77 88 98 85 71 70 56 57 50 45 63 68 79 85 84 82 79 74 69 75 65 65 63 56 59 62 47 50 46 49 50 52 55 53 52 54
74 80 79 76 80 81 74 87 80 85 92 92 77 59 60 49 58 60 56 53 61 70 94 92 83 73 66 66 58 59 59 63 60 59 56 56 54 51 50 55 56 56 56 58
81 84 81 80 80 71 76 83 82 83 95 86 75 65 58 53 55 63 62 63 67 80 93 99 93 75 72 66 66 66 61 64 65 58 50 47 50 53 61 64 63 62 63 62
81 83 81 83 69 72 85 85 86 86 91 95 93 69 65 56 60 66 69 69 69 77 85 95 95 72 66 80 72 54 54 57 55 54 55 59 58 60 64 62 60 57 60 57
81 81 82 76 72 88 86 77 75 84 86 98 89 84 56 64 75 73 72 66 70 70 79 94 97 83 73 79 68 51 54 55 62 56 57 59 62 61 62 62 61 64 61 56
81 82 74 67 76 79 86 75 78 89 95 89 94 90 74 73 91 76 70 78 74 79 84 89 96 95 84 86 66 67 62 58 56 60 60 61 59 61 64 68 71 65 62 58
79 69 68 86 90 87 87 77 85 92 94 94 91 93 90 93 97 91 76 73 82 69 97 94 94 98 96 73 70 66 60 60 62 68 65 62 69 70 70 71 68 70 67 62
68 72 81 92 83 72 82 94 98 100 100 99 96 94 95 98 98 98 93 97 95 99 95 93 97 97 82 72 68 63 64 66 70 70 80 91 96 85 75 78 73 71 70 68
82 86 86 81 75 88 88 97 100 92 94 94 90 97 96 94 99 99 97 100 100 100 99 99 96 82 81 72 71 70 69 69 70 71 70 70 73 80 85 84 77 76 74 72
90 89 86 89 89 94 96 94 93 94 91 99 99 99 99 98 97 98 93 100 99 99 93 96 94 81 82 71 75 73 72 71 71 67 68 72 81 87 92 84 73 71 77 78
88 90 97 89 92 93 92 94 92 94 99 97 97 96 98 96 97 97 96 100 95 93 99 86 79 84 80 78 76 76 74 72 69 72 70 68 78 87 93 92 81 64 62 61
88 89 76 90 89 88 90 86 92 88 93 88 89 96 99 98 100 94 100 98 95 96 91 80 85 83 77 75 78 75 79 77 75 75 75 75 76 86 93 96 94 92 86 70
88 84 72 91 82 90 90 94 97 90 91 93 94 95 98 100 100 99 98 96 89 76 76 80 88 84 78 72 74 78 74 73 75 77 76 75 76 72 71 83 84 82 79 70
93 94 96 82 94 92 92 94 95 89 91 93 97 98 99 100 100 100 97 92 84 83 94 88 81 79 71 66 69 75 74 64 67 76 79 78 76 76 72 66 67 76 84 84
98 96 85 87 94 91 84 74 78 78 90 96 96 98 100 98 100 97 91 89 90 92 92 87 82 81 76 64 69 70 62 63 67 75 79 82 78 73 74 78 74 74 81 90

GFSNW_sfc_rhum_033.txt.gz
RH
72 71 71 69 68 72 72 68 85 64 62 72 63 79 76 76 57 51 47 46 48 46 48 49 47 45 46 39 38 44 47 58 82 66 51 46 45 44 41 55 67 47 49 34
72 71 70 69 68 67 83 63 56 60 64 77 58 58 57 59 51 51 45 48 46 44 46 53 48 47 44 43 41 42 43 66 90 78 60 52 59 49 45 45 56 74 51 35
72 70 70 69 68 68 71 67 88 55 50 56 48 54 53 55 59 49 45 45 41 44 45 40 50 51 52 44 42 60 49 49 72 60 76 52 68 53 50 57 73 46 36 33
72 71 70 69 68 67 68 64 82 72 81 58 59 62 60 56 57 53 45 47 44 40 46 42 47 48 51 48 58 45 44 96 80 49 53 62 60 54 54 74 55 56 32 29
71 74 73 71 68 68 62 79 91 66 57 59 59 63 60 62 58 59 48 50 43 39 41 37 44 45 44 46 48 46 48 87 79 90 57 60 70 55 50 52 51 43 39 39
73 74 74 70 70 58 53 59 66 80 64 58 54 57 61 64 61 59 56 51 45 46 45 43 41 35 35 39 46 50 53 84 92 77 57 59 70 56 53 51 47 43 50 37
72 73 73 73 71 63 49 59 82 77 58 52 57 63 66 65 66 68 55 54 53 53 42 39 37 38 40 40 42 39 53 71 80 87 68 83 52 43 41 46 44 43 39 34
73 70 71 75 74 69 58 61 61 60 51 38 46 60 66 61 56 61 64 62 60 45 51 52 57 56 52 52 48 45 39 50 74 80 64 45 35 42 52 52 52 41 44 39
74 71 74 76 78 75 58 69 69 58 60 48 54 50 52 67 57 56 62 63 59 59 58 56 62 60 46 61 61 51 47 44 60 61 69 56 45 48 42 43 60 41 39 40
75 76 74 78 76 69 65 71 68 65 64 35 51 47 60 57 66 69 59 66 70 62 63 67 60 56 43 55 61 68 68 62 72 64 64 46 33 52 48 67 62 48 43 46
76 76 72 72 73 78 72 67 68 62 69 58 49 44 47 40 46 63 71 70 73 79 78 68 61 51 47 46 45 53 58 64 64 58 68 72 37 53 56 49 46 45 48 50
74 77 77 75 74 76 79 76 61 64 81 64 53 49 44 43 42 55 56 79 72 76 73 59 55 51 48 49 54 42 57 45 47 46 47 35 37 37 43 46 48 49 52 51
75 78 77 76 74 77 85 95 75 76 94 70 58 60 50 48 52 45 53 51 68 83 84 87 75 68 48 57 52 51 46 40 53 48 40 40 37 42 43 46 49 49 48 50
74 76 76 76 75 76 75 81 68 75 84 92 61 52 56 44 50 51 46 47 51 59 87 97 87 74 46 49 45 46 44 50 55 49 42 48 43 37 38 48 52 53 52 54
77 80 79 78 80 68 72 70 69 74 87 87 77 63 51 47 47 53 51 54 59 66 85 97 99 69 62 56 54 52 48 50 56 51 37 38 38 41 46 53 56 53 55 56
77 78 77 78 75 73 76 74 80 76 81 96 83 59 56 47 49 57 60 61 63 67 73 78 76 86 91 70 57 39 36 38 37 40 42 44 48 51 51 56 54 53 54 54
78 79 80 74 68 81 77 75 77 79 81 88 86 82 50 49 66 69 67 60 71 72 79 68 68 77 98 85 60 42 39 40 46 50 52 56 53 53 57 54 51 57 54 53
80 80 74 64 76 76 79 72 76 79 98 99 92 86 71 65 86 72 62 70 73 68 64 58 63 63 92 98 63 46 46 47 51 52 52 53 52 50 50 56 57 60 59 53
79 71 68 82 85 75 81 76 79 94 98 96 93 94 97 94 98 84 71 66 78 57 73 64 56 76 99 84 65 58 55 55 52 58 56 54 56 58 62 64 64 64 60 58
69 57 65 86 72 71 75 95 99 100 100 100 95 95 95 97 98 98 94 78 96 85 65 66 84 89 80 77 64 56 57 57 58 63 74 93 100 79 67 72 69 68 67 64
71 80 80 68 70 78 80 94 100 96 96 95 88 97 96 87 99 99 97 100 98 100 98 93 99 95 78 72 65 62 59 57 59 59 61 61 64 70 79 84 75 68 67 71
85 84 76 77 80 90 96 96 98 97 97 99 99 84 84 98 96 99 99 100 100 100 99 99 95 81 74 66 66 65 62 61 62 61 62 63 69 77 88 92 81 70 60 68
76 80 96 86 89 90 84 86 87 89 91 88 90 93 79 95 98 99 99 100 96 90 100 78 75 82 73 70 68 68 64 64 63 66 66 63 67 81 89 93 88 86 71 59
84 87 70 90 87 81 84 80 89 84 92 87 82 85 88 94 100 99 100 93 93 93 92 81 82 76 67 66 67 65 67 67 67 71 69 70 70 74 79 89 94 94 93 91
93 87 74 80 71 88 91 98 92 86 86 88 87 92 92 99 100 99 100 98 89 71 74 85 85 76 69 66 67 65 63 63 68 69 67 68 69 67 67 69 67 75 80 80
97 95 93 73 88 92 89 95 92 84 83 84 95 98 98 97 100 100 100 95 88 86 99 90 74 72 61 59 65 64 56 49 55 66 69 70 70 70 68 62 66 66 75 88
98 93 78 81 88 85 72 54 60 68 83 89 92 94 98 94 98 97 87 92 96 99 93 83 77 75 62 57 62 62 52 52 53 60 65 73 69 55 53 63 78 81 74 75

GFSNW_sfc_rhum_036.txt.gz
RH
72 72 71 70 69 72 74 85 95 73 73 93 77 92 70 73 53 52 47 50 50 50 50 53 51 55 52 42 43 52 55 69 95 92 59 51 67 68 65 88 82 74 76 57
72 72 72 72 68 67 81 78 69 74 77 91 69 63 56 55 52 52 46 48 49 46 49 54 52 54 50 49 50 54 52 81 95 83 70 59 68 56 56 59 79 86 86 59
72 72 74 72 68 67 81 77 93 79 76 63 65 63 55 60 66 52 46 46 45 50 50 45 56 57 58 50 49 60 56 62 83 89 83 73 80 63 59 72 93 68 62 51
73 73 74 72 70 70 79 67 85 72 97 72 67 64 62 57 62 57 49 51 47 45 52 49 53 56 58 55 62 56 58 92 84 59 59 75 74 66 62 79 70 77 50 40
72 73 74 73 73 70 67 82 91 75 71 62 63 72 63 62 58 59 51 55 46 45 48 45 52 52 54 57 57 59 62 95 90 86 61 68 80 65 57 61 61 59 53 48
72 72 74 75 72 66 58 61 65 85 68 62 63 70 67 63 66 63 56 60 59 53 66 57 50 45 42 49 57 61 67 94 94 89 65 71 86 70 63 59 56 56 64 45
72 72 74 76 74 70 64 69 83 73 68 55 63 62 62 65 67 72 60 61 62 59 47 47 48 51 49 47 52 49 66 84 95 96 86 96 61 52 51 54 51 51 46 43
74 75 74 75 76 72 69 68 73 68 60 39 46 52 56 62 60 68 67 70 68 54 62 66 62 66 60 52 56 55 51 71 91 96 92 63 51 56 57 57 57 45 50 44
76 76 75 77 74 70 72 76 77 69 68 51 43 49 43 73 71 62 69 69 69 72 80 72 77 84 59 72 69 61 52 55 70 76 86 81 67 52 50 52 85 52 47 49
75 76 73 74 74 76 81 81 77 77 70 48 51 61 76 62 72 78 66 70 77 78 83 76 77 75 52 66 61 74 78 76 88 81 73 64 61 58 55 89 78 52 47 50
74 75 77 76 75 74 86 82 75 80 74 65 57 48 54 54 51 68 65 77 78 78 86 85 78 72 58 59 53 66 76 81 79 73 79 85 62 66 79 66 61 60 60 64
74 76 76 73 73 75 82 91 69 67 89 71 64 59 56 56 54 62 62 71 74 93 96 87 77 72 60 62 72 54 68 61 67 62 65 51 49 57 59 59 61 66 66 64
75 74 75 73 74 72 86 97 87 88 93 78 72 62 54 51 57 55 66 62 73 79 86 97 96 91 68 74 67 62 60 52 65 58 53 52 47 54 57 62 65 63 62 62
75 72 76 77 77 77 70 86 81 88 90 92 72 52 59 50 51 58 60 57 54 63 85 95 98 90 65 72 64 66 58 57 63 65 57 69 54 52 55 61 63 65 65 68
76 76 76 76 78 73 81 84 86 86 94 89 87 70 56 48 53 58 57 59 68 82 93 91 92 97 89 74 76 78 66 68 76 73 51 52 54 52 56 66 68 65 70 76
78 78 79 79 71 74 87 91 90 81 88 98 91 72 63 55 56 60 62 70 72 80 83 86 86 82 96 99 79 56 48 50 50 57 60 63 64 65 65 67 66 66 70 69
79 79 80 75 70 89 90 90 90 81 88 92 92 91 61 54 67 75 77 71 80 78 83 83 82 75 92 99 93 61 44 42 52 62 65 72 68 75 68 66 64 67 70 68
80 79 74 64 76 80 90 86 80 84 98 96 97 93 84 71 86 88 75 80 85 92 87 81 79 75 77 93 81 76 69 54 62 65 63 66 62 60 65 71 70 74 75 71
78 67 67 87 87 83 91 75 79 95 99 98 95 98 98 94 98 97 87 75 88 77 88 80 75 79 93 76 59 81 80 68 68 70 65 68 68 74 81 83 82 83 80 77
73 70 73 93 81 69 73 96 99 100 100 100 96 97 97 96 99 99 96 95 93 98 84 81 83 81 60 64 81 76 69 68 70 79 89 94 94 85 85 88 87 85 85 84
83 82 86 82 71 88 87 97 99 99 97 94 90 96 98 85 100 99 98 99 99 99 96 90 99 90 83 79 73 68 64 65 68 70 71 72 76 87 92 92 86 79 75 78
92 88 80 79 81 96 96 98 98 95 98 94 99 91 88 88 96 99 99 99 100 99 99 100 99 99 89 81 76 74 70 68 69 67 69 73 79 90 93 92 88 86 81 68
88 89 97 95 96 91 87 95 92 96 98 98 95 93 84 87 98 99 100 100 98 97 100 98 99 92 79 75 73 73 70 69 68 73 72 71 78 90 91 92 90 90 88 83
97 94 73 92 94 93 94 95 98 98 98 95 91 94 92 87 98 99 100 98 99 99 99 96 99 89 84 80 74 73 77 76 77 79 77 79 80 82 80 84 87 92 93 95
98 95 88 94 90 96 97 99 98 96 96 98 91 94 91 96 99 92 99 98 98 97 96 100 97 87 82 81 76 78 76 77 80 73 75 78 77 77 78 76 75 73 82 88
98 98 98 87 95 97 97 98 98 97 94 97 97 98 99 96 99 99 99 99 99 100 100 99 92 83 70 74 78 69 59 60 68 73 71 72 75 77 78 75 79 77 75 86
97 98 92 95 97 96 94 74 78 84 94 98 90 95 96 97 99 98 99 100 100 100 99 99 93 86 72 65 73 65 57 56 62 65 72 78 76 60 54 58 66 84 85 79

GFSNW_sfc_rhum_039.txt.gz
RH
72 71 72 72 72 74 83 98 98 86 90 97 97 96 82 72 65 62 62 61 59 62 60 60 70 74 62 46 49 72 57 84 99 98 80 71 72 79 69 89 83 80 87 63
73 72 72 73 71 68 88 99 93 88 90 97 89 75 72 70 65 61 56 57 56 55 56 64 62 66 54 52 56 54 57 85 98 99 90 78 90 82 78 72 79 86 83 59
72 72 73 74 70 69 93 98 93 85 98 74 72 78 69 76 70 65 55 55 53 58 56 51 66 71 62 54 56 64 59 73 82 86 78 81 85 74 75 92 97 74 70 55
72 72 74 76 75 74 93 92 90 80 97 89 81 72 67 62 66 69 57 61 57 55 61 59 65 68 70 61 64 61 66 86 80 70 70 77 74 71 70 81 69 75 55 49
72 73 75 77 77 67 82 83 96 83 97 79 82 80 72 75 72 69 63 64 55 51 70 67 64 62 66 67 70 66 73 94 88 83 65 72 82 72 70 65 61 65 63 65
72 74 76 76 76 73 86 89 88 95 78 76 81 76 74 73 78 68 65 69 72 73 71 70 66 56 52 55 66 70 78 91 94 92 74 77 80 74 68 68 60 58 69 53
75 74 75 75 72 77 86 89 94 95 78 53 57 56 65 74 75 81 72 76 72 62 59 59 57 54 54 55 64 59 84 86 94 96 88 96 53 60 57 57 58 59 56 48
76 75 76 75 75 74 87 91 96 91 88 55 49 55 56 64 73 80 80 84 84 78 77 74 71 73 62 60 60 64 67 83 94 95 97 66 59 61 60 67 64 53 54 50
76 76 74 75 75 76 91 94 94 91 84 70 52 56 62 90 90 76 86 80 78 81 91 85 82 88 73 81 70 66 62 59 78 88 93 88 66 56 52 57 76 56 48 49
74 76 78 76 75 75 92 89 85 95 94 66 66 70 82 63 67 80 81 70 78 82 94 91 83 78 58 80 84 69 78 82 90 83 82 68 52 54 59 86 74 58 51 50
74 76 75 75 75 77 91 94 79 88 96 88 66 58 63 63 70 79 71 84 87 88 90 91 88 81 66 73 67 78 79 88 92 89 87 88 66 68 77 66 69 68 63 65
74 75 76 74 75 74 83 92 82 73 95 88 77 68 65 71 66 74 73 69 76 94 98 96 98 84 74 75 83 72 80 71 77 73 72 52 65 63 64 62 64 71 70 70
76 73 72 76 75 76 82 97 96 96 98 92 82 77 59 56 62 60 74 79 78 82 85 96 96 100 84 83 78 73 60 59 66 65 61 58 51 63 64 66 69 69 68 66
77 74 74 76 76 74 73 96 91 95 97 96 81 60 65 56 55 63 66 70 65 69 87 90 95 94 90 91 77 77 65 63 67 70 63 67 61 62 64 67 67 67 66 67
78 76 77 78 79 70 89 95 95 93 95 96 89 76 62 51 58 65 68 70 71 86 95 99 94 92 97 93 89 82 73 71 73 76 60 58 57 54 65 72 73 74 74 79
78 79 80 79 73 74 96 97 95 89 95 100 95 76 66 57 58 63 66 72 76 83 90 92 89 84 96 95 92 53 47 58 62 62 61 64 79 75 73 74 73 69 72 78
79 79 79 73 74 94 95 94 91 82 91 97 96 93 70 58 70 82 83 75 85 84 90 91 85 80 88 98 81 57 54 66 78 64 72 78 76 79 74 70 69 69 76 76
78 76 68 66 76 82 93 96 83 89 95 95 97 93 87 78 92 91 83 88 90 92 90 90 88 84 87 96 70 59 46 56 72 71 71 73 72 67 73 76 77 83 83 81
74 67 70 91 92 90 94 74 85 95 95 98 98 100 98 93 93 93 94 87 99 84 95 87 81 82 94 76 70 61 73 88 95 78 69 69 74 78 83 84 86 89 88 88
72 80 82 95 90 71 80 95 97 97 99 98 96 98 98 93 96 97 98 98 98 99 90 85 86 89 62 67 71 90 86 84 92 82 86 91 94 88 90 93 91 91 90 86
91 90 89 93 77 91 94 92 98 95 96 98 95 97 96 86 98 97 94 97 98 97 96 91 97 98 98 93 84 80 73 77 82 79 73 77 82 91 94 96 94 89 80 76
90 90 83 85 82 96 92 99 94 96 99 96 94 96 92 92 92 99 98 99 99 95 99 99 98 100 94 99 99 92 85 84 78 73 73 79 88 94 95 92 90 89 87 75
94 93 97 94 92 80 80 90 88 93 98 98 97 96 92 88 94 97 100 100 98 99 99 99 100 93 84 90 98 98 99 99 89 75 74 76 86 90 93 89 87 88 88 90
96 93 75 86 92 93 95 94 94 94 99 99 98 96 97 91 97 98 100 94 99 98 98 99 99 99 94 80 75 74 82 95 96 90 78 81 80 82 83 80 81 87 94 94
100 91 82 89 88 97 99 99 96 96 98 99 98 97 95 97 99 93 99 99 98 98 99 100 98 99 99 77 74 71 72 77 80 80 79 76 76 78 81 82 82 78 83 93
97 98 89 93 92 94 98 100 99 98 96 98 98 98 97 97 99 99 97 99 98 96 97 99 98 98 99 95 80 68 60 62 70 70 80 82 73 75 76 78 79 87 80 81
96 99 96 99 99 97 98 93 90 91 95 99 96 98 92 96 98 100 98 97 96 98 97 98 95 98 98 99 79 70 57 58 67 69 76 81 81 59 54 58 63 77 90 88

GFSNW_sfc_rhum_042.txt.gz
RH
73 71 71 73 70 74 84 97 97 89 91 99 98 95 84 74 68 65 68 64 64 68 64 68 80 74 68 69 64 86 77 92 99 97 83 72 75 87 68 92 93 88 89 64
71 69 73 74 70 70 94 98 96 94 93 98 91 79 76 73 71 67 62 63 59 60 61 72 73 70 59 63 60 69 63 90 98 98 90 84 96 88 76 71 81 87 83 55
72 73 75 76 71 68 94 96 93 90 96 92 88 84 74 81 72 68 59 60 55 59 57 60 74 75 64 58 55 62 59 80 82 83 77 86 98 89 83 84 94 76 84 59
72 74 76 76 71 66 88 96 92 84 95 78 77 77 76 71 70 70 62 65 61 63 67 67 78 76 71 61 64 64 62 85 83 73 76 80 79 78 81 95 71 86 58 61
73 74 76 74 75 64 82 97 92 94 92 82 81 81 81 76 76 75 76 70 71 68 78 74 72 68 76 71 76 76 76 95 84 82 71 80 81 74 77 79 79 79 67 69
74 75 76 76 75 73 91 96 90 98 76 63 78 78 75 76 81 73 73 74 75 74 73 72 75 60 56 59 67 75 81 91 91 88 79 76 80 72 72 73 66 68 74 49
75 75 75 75 75 78 87 95 96 91 79 57 58 49 53 57 75 80 75 81 71 75 76 72 71 62 62 62 75 68 86 85 92 96 85 91 58 62 54 60 63 57 58 51
74 74 74 75 75 78 91 96 95 95 78 63 44 51 54 72 78 83 84 84 84 86 80 76 78 82 73 68 65 73 72 87 95 96 97 71 64 67 67 70 63 54 58 54
75 77 76 74 75 76 94 96 95 96 85 77 63 61 78 89 93 83 84 78 73 82 93 88 88 94 73 80 67 66 62 62 83 94 96 90 63 63 54 58 77 61 54 56
74 75 75 75 76 78 95 95 90 92 95 83 73 76 74 68 66 75 73 64 82 83 94 93 91 87 68 86 87 86 79 79 89 91 85 76 54 56 58 78 67 68 57 53
73 75 75 75 74 76 90 94 88 86 97 92 74 65 72 75 75 83 72 85 84 89 91 92 89 87 75 78 73 80 77 87 93 87 96 90 62 68 75 65 75 73 68 62
74 73 73 75 76 77 83 96 90 76 95 89 85 77 72 69 69 78 80 75 88 93 96 95 97 94 73 80 86 79 79 70 80 79 76 52 59 61 61 63 65 72 78 75
76 72 73 75 75 73 83 97 92 95 96 90 80 74 59 60 63 62 78 81 79 80 86 96 93 96 93 93 86 80 74 67 69 68 60 59 53 61 66 68 67 71 71 70
76 71 73 77 78 71 83 86 98 95 96 94 82 63 72 59 57 63 68 72 69 78 89 88 92 93 94 96 88 87 71 73 71 73 64 65 59 60 64 70 74 73 74 74
76 76 79 78 73 76 89 97 97 95 90 93 89 76 65 54 62 66 70 74 74 84 91 97 88 90 96 91 95 80 70 72 78 76 60 58 55 54 68 74 74 74 76 78
79 80 80 74 71 83 95 94 95 94 95 99 92 78 69 60 60 65 69 75 77 84 89 92 89 81 95 95 88 70 44 45 80 89 78 71 66 76 76 75 79 77 76 77
78 77 72 74 78 94 90 87 88 85 94 96 96 97 75 60 68 84 83 75 85 86 90 94 89 82 90 92 99 52 46 42 43 56 79 79 78 78 78 75 74 71 76 77
75 68 71 76 77 81 91 97 85 90 96 95 97 93 87 84 95 95 83 89 90 91 92 92 95 85 85 93 73 62 58 56 50 71 87 84 76 77 78 79 77 82 83 84
69 72 77 88 92 94 94 78 86 96 95 99 97 99 98 91 94 94 96 88 97 87 97 92 82 81 94 71 65 64 59 83 89 90 91 89 80 82 86 86 87 88 89 89
71 80 84 95 93 74 81 93 92 95 93 98 96 98 98 95 96 96 99 97 95 99 88 86 87 87 67 71 95 87 72 88 89 97 98 99 98 93 91 93 93 92 91 87
91 92 95 92 81 91 94 88 94 92 93 92 85 98 92 88 97 96 94 99 98 99 96 88 97 96 98 88 98 97 91 84 91 89 92 94 88 89 94 96 94 92 92 84
86 90 88 91 89 95 92 100 92 94 95 93 90 96 96 95 94 99 98 98 99 97 98 97 96 99 97 96 98 99 98 98 87 85 89 85 93 95 94 90 89 88 88 89
91 89 87 87 92 68 66 73 81 87 95 98 98 97 96 93 93 98 98 99 96 99 99 98 99 93 96 98 78 92 100 99 99 98 98 95 92 88 91 89 83 85 86 87
92 82 62 84 88 88 94 90 90 92 98 98 98 92 99 95 99 94 100 84 99 98 97 97 89 89 97 97 89 75 78 93 100 100 99 99 99 82 79 80 80 82 92 96
98 84 75 86 88 97 100 98 97 95 99 99 97 87 94 97 98 96 98 98 98 97 94 94 89 97 98 97 97 79 63 69 77 91 98 95 97 94 79 85 84 82 84 86
95 95 86 93 92 93 99 100 99 98 97 98 92 92 93 93 99 96 95 94 96 93 97 94 96 96 94 98 98 98 65 60 69 71 82 85 77 71 65 67 68 88 87 86
94 96 95 99 98 97 98 96 92 93 94 96 98 100 93 93 93 98 97 98 94 96 96 97 94 94 95 98 97 96 90 62 91 85 86 94 91 93 55 52 63 80 88 91

GFSNW_sfc_rhum_045.txt.gz
RH
72 72 73 71 74 71 85 96 98 92 92 100 95 96 85 74 71 72 70 68 66 72 65 78 75 92 86 71 72 83 79 84 94 91 84 76 82 89 83 93 90 92 90 73
72 71 73 75 72 69 96 97 97 92 92 99 93 78 76 76 71 69 64 64 61 63 66 78 79 72 66 73 72 80 75 94 98 95 93 86 94 92 84 78 85 90 89 71
70 72 75 75 71 67 94 96 96 92 98 96 92 90 78 81 71 69 62 65 58 63 62 68 80 79 66 61 59 64 62 83 82 84 78 88 97 88 88 80 98 84 76 67
72 73 75 76 72 66 86 97 97 91 97 87 82 86 85 76 69 71 64 67 66 66 71 74 83 80 72 64 62 70 64 85 86 72 70 86 91 88 83 91 77 88 63 66
74 75 76 76 78 61 91 96 96 95 94 75 79 82 83 83 76 80 77 79 73 74 79 80 78 73 78 72 76 78 76 92 82 83 71 79 82 81 88 86 77 74 74 78
74 76 76 76 76 71 91 96 92 96 70 57 81 72 81 73 77 78 78 82 77 76 76 76 78 71 62 66 69 79 80 92 91 88 82 74 78 68 74 81 75 77 90 61
75 76 76 74 76 77 91 97 96 85 69 57 48 51 53 63 76 77 77 85 79 82 85 83 75 65 67 67 77 74 83 85 90 95 84 94 62 56 60 64 65 69 69 63
76 76 75 74 77 78 95 97 94 87 78 74 52 57 74 77 79 78 87 85 84 90 82 76 78 83 79 76 74 78 72 87 95 95 97 73 58 74 70 67 62 56 64 58
76 75 75 75 76 78 94 97 96 92 78 88 75 71 78 83 76 80 76 71 64 81 90 87 89 93 81 86 74 64 65 64 84 96 96 93 59 73 60 64 80 66 60 55
75 75 76 76 75 75 92 96 91 90 92 89 84 87 83 71 67 67 69 59 84 85 93 92 94 90 79 89 85 89 84 82 94 90 90 81 60 57 63 83 62 74 69 63
75 74 75 76 76 76 89 96 94 92 96 89 80 76 84 80 80 75 68 85 86 91 92 94 90 91 81 82 80 82 84 91 90 89 94 92 57 76 78 64 75 72 73 66
76 73 75 76 74 74 82 94 90 83 92 86 90 85 81 76 74 82 78 77 88 91 92 92 96 96 87 83 86 80 81 70 77 82 81 56 55 66 60 68 70 68 73 71
75 73 75 76 74 74 83 96 98 94 95 82 79 77 65 65 71 67 78 86 79 81 87 94 88 90 97 96 90 83 76 74 72 69 59 62 56 54 66 74 69 70 76 80
75 74 77 79 73 78 81 97 98 95 96 94 84 66 80 64 64 69 69 73 72 83 92 88 92 91 93 97 94 95 76 80 79 78 67 63 59 61 57 61 71 78 78 73
77 79 79 73 76 78 91 97 98 96 90 88 82 79 72 61 68 72 74 75 78 86 91 96 84 86 92 84 89 95 72 72 88 69 90 91 76 64 65 70 74 74 74 79
81 82 76 72 80 79 92 92 94 96 97 96 94 83 77 70 69 71 77 81 82 86 87 89 88 81 94 94 95 70 67 51 62 70 49 71 58 70 80 75 76 78 78 76
81 74 76 78 79 94 86 88 88 88 93 94 93 95 82 66 76 88 87 76 86 85 90 92 90 82 91 92 91 56 51 50 52 57 62 73 87 92 85 84 82 78 77 78
72 74 74 77 78 80 91 95 86 90 95 92 95 90 91 89 96 98 84 90 91 92 92 92 95 86 85 87 70 54 52 59 63 85 91 93 94 85 80 82 82 82 83 84
72 78 80 87 91 90 91 77 85 94 91 98 96 100 97 87 94 95 97 92 99 89 93 92 84 83 92 79 88 94 96 95 81 80 91 91 89 91 85 86 88 88 89 89
79 81 83 92 93 75 81 94 93 96 94 97 96 95 98 93 95 96 99 97 95 96 88 87 83 80 72 89 96 96 97 97 93 98 94 98 98 97 90 96 92 93 92 88
88 93 95 90 81 91 93 97 95 96 92 92 85 91 88 88 89 96 93 98 97 99 96 85 96 93 79 96 96 94 98 99 98 93 95 98 98 99 96 96 95 94 94 88
85 90 89 91 91 93 85 100 91 91 90 94 96 96 96 96 92 99 97 98 99 97 96 97 96 87 78 97 97 95 87 99 98 98 97 96 97 95 95 91 90 90 88 90
85 83 83 84 90 65 61 64 80 82 94 98 99 96 97 94 94 94 99 98 98 98 98 98 86 82 82 96 98 93 85 95 99 98 99 99 99 99 97 78 75 81 86 88
88 76 63 82 83 84 89 88 90 90 97 100 98 90 97 96 98 93 99 81 98 98 96 92 96 81 91 92 96 90 78 67 92 100 100 100 100 100 99 94 82 82 86 94
93 81 69 82 88 98 98 97 98 96 98 98 96 96 87 91 94 93 95 90 99 95 92 96 94 87 95 95 93 97 96 67 68 78 97 99 99 98 97 90 84 85 82 82
92 92 87 94 91 93 99 100 99 97 97 98 86 91 90 87 94 88 90 88 90 90 97 96 93 93 92 93 96 98 96 83 61 78 82 94 96 94 93 63 59 77 86 86
91 95 96 96 98 95 98 97 93 95 92 92 97 91 78 91 93 94 92 96 93 95 96 97 94 93 90 89 93 95 96 91 77 86 94 98 98 98 98 96 60 74 81 85

GFSNW_sfc_rhum_051.txt.gz
RH
69 72 73 73 70 73 83 96 97 91 85 99 94 98 88 76 77 77 72 66 68 88 82 66 92 89 85 71 76 79 75 85 95 98 85 78 83 78 71 84 86 84 78 65
70 74 74 74 68 72 96 97 98 92 93 94 96 86 81 82 74 74 68 69 64 62 88 94 78 86 75 75 72 77 74 89 96 98 86 83 90 89 79 76 81 91 83 63
71 74 74 73 67 77 92 95 98 90 98 94 98 92 88 86 77 76 69 72 63 64 78 78 79 84 76 69 71 68 67 83 81 84 77 87 97 96 86 81 96 83 70 62
72 74 75 73 65 77 85 96 95 93 98 94 93 91 91 87 78 73 79 73 83 74 79 84 87 82 72 70 77 76 71 91 87 76 70 87 84 83 91 95 84 88 61 63
72 74 75 72 64 68 91 95 96 96 90 80 91 86 91 90 86 88 87 87 81 82 87 87 83 77 83 84 70 90 73 97 81 83 73 86 89 85 89 89 87 84 78 77
74 74 76 71 68 65 92 98 95 84 72 78 82 63 72 73 85 81 85 90 73 90 94 94 89 82 71 73 77 87 84 87 89 86 78 73 78 69 77 82 82 78 87 64
74 75 75 72 70 75 92 97 92 77 70 63 63 61 61 80 88 87 86 79 79 91 83 91 77 72 73 71 83 75 84 82 86 91 78 81 54 54 62 70 65 72 78 67
74 74 74 76 71 73 97 99 87 72 82 69 71 69 72 79 75 86 90 73 67 71 83 76 77 83 80 78 79 81 72 82 95 93 94 67 61 70 68 69 63 59 64 59
76 74 75 75 76 75 96 99 94 80 78 94 89 80 80 78 78 84 67 61 68 82 87 80 86 94 83 89 83 69 64 63 77 94 96 87 53 66 63 62 74 54 62 68
77 76 75 74 74 73 92 99 90 87 95 91 87 87 85 77 76 81 74 63 87 85 87 90 94 92 81 90 88 88 85 84 95 95 92 80 63 62 62 77 66 65 74 74
77 77 76 74 75 75 86 98 96 84 96 92 88 86 90 79 80 87 73 87 87 93 96 92 95 92 89 87 83 87 86 92 95 92 89 88 60 68 72 72 76 75 73 75
77 77 76 73 74 75 78 96 93 84 90 88 89 87 85 84 82 87 85 87 85 97 92 87 87 94 88 94 86 79 85 73 75 78 73 62 67 65 71 74 74 73 80 75
77 77 76 73 72 71 82 98 98 90 91 86 85 84 73 69 77 76 78 90 84 88 93 93 85 88 88 97 93 93 84 82 82 76 75 76 63 75 65 59 53 58 74 79
76 76 74 74 71 71 81 98 98 91 90 91 84 68 81 73 72 76 76 79 82 85 88 86 93 93 92 91 89 94 92 80 87 82 82 57 68 52 54 57 57 79 78 73
76 78 76 73 74 81 93 98 99 93 84 89 86 82 76 73 76 81 81 80 84 92 94 95 88 88 86 91 90 88 80 72 77 78 67 62 63 59 62 66 76 86 88 84
80 78 78 74 78 80 81 82 86 96 91 90 94 84 84 73 77 76 84 86 92 94 92 95 89 80 88 86 75 70 71 63 57 75 73 85 83 72 66 84 88 90 89 87
82 77 77 76 78 94 84 78 86 88 89 87 95 95 80 90 91 93 91 88 95 93 96 96 93 83 89 92 78 57 66 78 82 77 86 86 78 87 80 81 84 80 79 82
78 77 77 77 76 81 90 95 84 85 89 86 90 89 89 86 95 94 94 96 93 96 96 95 95 94 90 83 62 70 76 94 88 81 85 90 88 89 74 80 91 95 85 88
80 78 76 84 89 89 91 79 86 93 85 94 96 91 84 86 93 94 98 96 97 96 95 91 88 95 96 78 80 78 88 98 95 86 86 81 86 91 95 90 96 97 95 90
79 80 75 90 95 78 83 88 86 93 96 95 97 92 98 92 94 95 98 97 96 99 95 96 95 95 79 75 76 82 88 91 86 89 93 96 96 96 95 96 96 97 97 96
87 87 94 91 83 88 87 95 89 91 85 95 98 97 97 91 96 98 93 98 98 99 96 99 99 98 86 83 90 91 91 95 95 86 80 80 95 97 96 96 98 98 98 99
83 89 89 85 84 87 72 96 87 81 77 98 97 97 96 94 96 88 92 91 96 99 98 99 100 93 80 81 90 90 92 96 94 82 76 77 84 94 99 98 98 95 98 99
79 81 80 78 85 61 49 67 83 85 97 97 98 90 97 95 96 98 91 93 97 94 98 96 94 85 74 77 91 91 92 94 95 92 78 83 84 91 94 98 97 96 94 93
84 80 71 77 76 74 80 80 89 92 96 96 94 95 94 97 98 92 82 81 94 98 98 96 96 84 78 85 91 93 88 90 95 96 93 87 92 97 95 98 94 91 85 89
83 79 65 84 92 98 98 98 98 96 95 97 96 97 93 95 86 81 83 75 90 93 93 94 92 82 87 89 89 89 91 92 94 93 95 90 89 93 92 95 98 94 82 90
88 88 85 89 92 100 99 98 99 94 98 96 94 98 97 87 80 81 86 96 94 90 96 94 92 81 81 84 85 87 91 93 93 93 93 91 88 88 89 95 98 98 94 96
82 93 86 90 91 92 96 97 92 96 93 93 96 82 75 84 90 90 82 92 92 94 94 96 85 81 85 87 87 85 88 91 90 90 90 92 91 93 97 98 92 98 97 96

GFSNW_sfc_rhum_054.txt.gz
RH
72 71 73 73 70 74 78 78 89 78 79 94 80 94 74 73 63 64 65 80 70 60 52 48 62 63 67 58 56 57 55 60 90 98 76 58 54 47 45 60 72 57 52 33
73 73 73 72 68 71 70 77 88 83 86 87 68 67 66 66 59 59 55 57 81 77 74 71 70 70 61 62 57 56 52 72 97 100 85 70 70 59 51 51 61 72 60 37
74 74 73 72 66 70 67 76 96 92 94 86 81 75 70 68 62 62 55 52 46 61 62 58 71 73 68 61 57 66 59 60 70 60 72 62 77 65 62 60 78 54 50 41
75 74 73 70 64 79 62 65 74 75 92 79 71 74 75 68 66 56 57 59 59 50 61 63 67 67 72 67 71 59 55 92 80 55 59 68 65 62 65 87 63 67 47 40
76 74 73 67 69 76 59 64 74 71 63 63 71 72 72 72 75 73 66 64 65 54 58 63 64 64 69 72 70 72 60 90 72 83 61 68 72 61 62 63 60 60 59 60
76 76 74 67 68 57 61 73 72 59 59 59 67 62 62 70 72 68 71 68 59 71 81 76 68 56 50 52 67 82 77 79 87 76 62 59 64 49 51 55 59 58 64 44
76 76 74 68 70 60 54 67 66 50 53 51 54 55 59 70 74 75 66 61 60 71 59 71 48 47 50 50 56 52 64 68 75 82 62 65 44 39 44 47 45 42 45 45
76 76 75 72 74 74 65 74 53 46 52 49 57 60 63 63 65 75 69 55 53 58 60 56 60 60 58 60 58 52 47 54 76 75 60 47 53 52 49 50 54 45 51 48
76 76 75 75 71 76 72 79 72 49 48 60 68 55 60 79 71 71 59 45 55 66 62 59 68 66 61 70 67 58 54 49 54 63 72 60 41 41 44 46 56 55 56 58
77 77 76 75 74 74 75 85 76 55 60 68 61 53 55 53 56 64 57 58 68 63 69 70 69 69 58 64 63 67 66 68 74 69 68 48 49 47 47 63 66 56 51 53
77 76 76 74 74 75 71 85 81 57 64 72 72 70 60 55 51 64 56 69 67 70 77 70 70 62 61 61 59 63 62 64 63 64 69 69 47 52 60 60 43 41 41 46
77 77 76 75 71 73 71 77 78 62 64 68 69 66 66 64 61 54 67 74 78 75 76 70 72 77 69 69 58 56 69 62 59 60 59 57 43 56 48 47 53 50 52 52
78 77 74 73 72 70 76 90 82 75 73 66 59 63 57 54 59 60 50 63 66 69 71 73 70 74 72 64 68 72 64 56 61 54 60 53 44 54 44 48 57 56 58 66
78 75 72 72 74 74 75 79 84 76 72 70 68 54 63 55 58 61 62 62 64 65 66 62 74 71 73 77 73 62 59 46 54 47 43 50 51 47 52 61 59 59 67 71
78 76 73 76 78 80 82 89 87 76 74 74 71 64 58 55 60 64 61 60 62 62 68 72 71 68 63 60 60 55 47 68 73 62 54 64 64 64 67 67 64 66 71 74
81 76 74 77 78 74 69 77 78 80 78 85 80 69 65 64 62 64 65 68 69 68 65 72 71 67 72 62 47 51 52 57 68 76 66 75 75 70 66 69 77 73 76 74
80 77 75 78 79 86 78 73 80 81 76 77 88 86 65 79 77 74 70 70 74 68 76 74 67 64 72 69 56 54 60 66 75 74 80 88 83 92 82 83 82 81 78 74
79 77 78 78 77 78 79 82 77 73 76 70 89 81 73 70 80 79 77 75 72 77 74 74 72 72 72 73 58 52 61 70 81 73 72 74 71 76 81 81 84 88 90 95
80 78 76 80 81 77 86 82 83 84 75 85 79 78 78 68 76 84 87 76 78 76 72 71 72 75 86 61 59 62 66 76 80 72 70 65 66 76 85 86 95 95 96 96
81 75 69 88 87 79 80 77 74 85 85 81 88 85 81 75 76 80 83 85 82 92 73 76 78 73 63 58 59 66 71 72 78 88 88 80 83 74 79 87 88 93 95 95
79 80 90 86 81 80 72 82 81 69 76 81 85 83 80 77 83 82 80 93 89 92 88 81 84 76 63 59 67 67 65 66 72 76 76 73 68 71 79 84 88 84 82 89
79 86 84 80 74 78 72 87 75 65 74 90 81 84 77 81 82 84 87 90 90 93 88 90 94 76 62 58 63 65 65 66 66 65 70 69 68 64 73 81 84 88 83 83
78 78 84 74 75 65 59 67 76 84 93 93 92 86 80 82 81 88 82 93 85 87 93 84 76 64 53 53 59 66 85 81 75 67 66 70 74 74 74 80 81 84 82 76
82 82 68 77 68 60 63 64 82 84 90 88 80 88 86 85 89 82 87 68 89 92 91 87 77 68 58 59 61 68 59 61 77 87 83 84 88 86 85 86 80 82 83 76
80 80 68 79 87 93 90 94 94 89 85 86 89 87 75 86 79 72 72 73 83 79 85 79 76 64 64 60 55 57 60 62 64 65 76 84 87 89 86 81 80 86 87 83
87 86 86 85 88 99 95 95 97 87 86 80 79 89 89 84 79 76 80 86 89 79 87 77 62 56 59 59 59 61 62 63 62 60 59 62 68 74 82 82 81 88 91 92
79 90 77 82 86 88 86 71 73 82 80 84 84 79 70 80 87 85 73 86 79 86 80 72 70 66 65 67 66 65 65 65 65 63 65 71 69 77 90 86 76 80 88 93

GFSNW_sfc_rhum_057.txt.gz
RH
75 74 74 74 70 78 76 70 83 72 64 94 63 86 65 70 60 61 78 72 61 40 36 41 48 58 57 48 49 59 47 56 78 70 65 52 47 42 41 55 65 44 45 34
76 75 76 75 72 81 60 70 67 76 73 91 64 59 59 56 55 55 55 70 66 58 48 53 54 57 53 54 50 57 47 67 98 93 62 52 57 47 43 39 56 63 55 33
76 76 77 76 72 72 63 65 90 85 87 74 61 58 57 59 55 52 47 46 53 54 53 52 60 63 60 53 51 67 51 50 62 64 65 46 61 49 48 51 74 50 44 35
76 77 77 76 70 71 62 57 56 57 90 69 60 62 56 53 56 50 46 48 48 47 54 55 62 62 64 59 65 51 49 85 75 49 55 60 58 49 48 69 57 60 39 37
76 77 77 71 70 79 60 52 54 58 54 54 58 68 60 54 62 58 53 52 49 43 48 55 58 61 63 64 57 56 52 85 68 90 53 57 64 51 49 50 51 50 46 46
76 77 75 71 80 70 50 54 54 50 59 55 52 54 56 60 59 61 56 50 49 59 69 58 50 45 47 48 58 61 62 71 88 77 53 52 59 43 44 48 45 46 51 37
77 77 72 73 80 67 39 49 48 46 55 51 48 51 55 61 64 62 57 50 51 61 51 50 39 40 43 44 50 50 64 68 71 81 60 70 44 36 39 44 39 39 40 43
77 76 71 72 71 68 45 54 47 40 49 46 53 53 58 59 62 64 58 52 52 53 55 51 58 55 52 52 48 45 42 50 67 74 54 38 50 46 44 47 61 50 52 50
78 76 74 75 74 72 52 55 54 40 47 51 47 54 55 60 60 58 55 42 48 60 56 54 68 71 57 64 62 49 48 43 50 53 60 50 48 42 41 43 56 52 49 48
78 77 76 72 74 70 56 64 63 43 53 55 48 51 57 57 58 53 51 52 56 54 59 65 58 62 49 64 74 67 62 59 70 66 63 46 48 45 44 65 63 46 40 40
78 77 76 75 73 68 58 69 60 47 56 64 57 54 49 50 46 53 53 58 59 59 70 69 63 56 49 51 51 54 58 62 61 54 68 66 42 48 57 54 47 48 48 48
77 77 73 74 74 72 60 64 54 45 54 65 55 56 55 57 56 48 59 64 65 64 66 59 62 62 56 50 55 49 60 51 53 52 56 48 40 43 44 44 51 52 55 52
78 77 76 71 70 68 64 69 57 50 56 56 50 60 53 48 52 51 52 56 60 60 62 56 58 65 60 52 50 56 56 46 55 50 51 48 38 40 43 46 57 55 53 55
77 74 73 73 73 66 60 59 65 63 48 60 68 48 54 48 50 53 51 54 54 53 53 57 63 61 63 57 60 56 51 42 48 40 32 44 42 42 50 61 60 57 54 59
75 75 76 74 71 71 69 69 70 61 65 62 65 54 51 48 51 52 49 49 51 50 61 63 60 55 54 46 45 41 38 47 50 46 56 57 53 53 60 67 65 66 73 71
79 77 77 73 72 65 54 60 68 62 66 76 75 61 66 56 52 55 56 57 55 54 55 61 59 59 66 58 41 43 44 51 56 68 71 73 66 63 61 72 76 77 83 79
77 76 74 76 76 75 70 74 71 69 65 67 86 82 65 69 67 64 62 59 64 57 66 64 56 58 66 63 52 39 47 53 57 64 70 71 64 69 61 67 70 72 74 77
77 76 76 75 76 74 67 72 72 66 60 61 97 89 70 64 71 74 65 64 62 67 66 67 65 66 67 73 51 46 47 52 55 61 58 61 58 55 54 62 74 82 81 78
80 74 68 76 72 66 76 81 72 74 70 91 82 87 81 63 74 75 75 66 72 66 66 62 67 66 83 56 46 44 50 58 60 60 62 60 57 58 58 57 66 76 85 86
71 64 63 85 81 78 79 74 69 79 73 70 82 79 82 68 69 74 76 79 73 89 66 68 70 65 52 47 45 48 51 53 55 71 80 77 82 69 61 56 59 68 74 79
65 73 90 87 80 78 66 85 84 60 82 67 72 75 76 69 79 74 72 87 83 89 84 80 77 66 51 44 45 48 47 46 48 50 54 55 57 61 62 60 58 63 70 77
77 86 79 77 74 84 82 82 77 74 72 75 69 72 65 74 70 71 81 83 87 88 82 86 88 73 51 44 52 46 45 48 48 46 47 47 50 53 61 64 67 69 71 75
71 76 94 81 74 75 75 69 76 82 84 87 80 85 69 75 74 81 77 87 78 80 87 76 74 54 42 41 43 45 73 75 70 59 55 58 62 65 67 69 68 65 67 66
86 93 68 88 74 64 72 68 87 79 84 80 73 81 78 73 82 77 85 62 78 84 81 74 66 56 43 40 41 44 41 47 68 78 78 82 86 84 81 81 74 70 69 68
93 96 70 78 84 86 89 93 88 82 72 76 80 80 65 80 81 64 72 73 78 70 70 80 69 49 45 44 44 46 46 47 51 52 65 78 82 82 77 68 64 66 67 71
98 88 85 78 88 94 89 93 95 80 74 73 72 82 79 82 76 76 80 77 80 74 89 71 47 46 48 50 50 52 51 52 53 50 49 52 54 60 65 64 66 70 72 78
97 91 73 88 79 88 79 60 63 65 73 84 80 73 73 76 83 78 64 81 77 83 78 68 61 65 63 57 55 58 60 59 60 57 60 66 64 71 81 81 69 66 71 77

GFSNW_sfc_rhum_060.txt.gz
RH
90 85 76 76 76 74 83 81 96 78 70 97 86 89 62 69 65 67 70 76 65 44 42 48 54 71 62 51 57 62 60 67 95 90 76 60 62 58 51 86 80 70 73 54
90 86 77 77 75 79 76 80 80 75 76 97 76 65 60 54 57 62 71 67 64 58 46 60 54 62 55 53 58 63 53 79 97 92 71 62 70 56 55 57 72 81 87 58
90 83 78 78 76 79 88 75 91 83 87 76 84 64 58 63 62 52 47 55 56 54 48 54 60 68 59 58 54 66 66 62 84 93 80 65 76 59 55 66 90 72 69 57
88 84 78 78 75 81 88 76 73 66 94 80 68 66 53 57 60 54 48 53 52 50 58 56 57 61 62 65 66 62 62 85 84 59 60 71 69 59 56 76 69 81 57 49
88 85 82 81 76 78 88 74 70 68 63 57 61 68 60 55 61 62 54 56 50 50 60 64 62 61 60 71 69 68 64 93 83 89 60 65 79 60 54 53 56 56 56 58
88 86 82 81 76 77 78 70 64 66 67 62 62 64 60 60 63 64 57 52 57 69 74 58 56 54 54 55 61 65 71 87 93 85 65 66 80 57 57 59 57 56 66 57
88 83 80 74 81 81 64 62 63 70 70 60 55 54 56 64 67 66 58 54 61 68 58 58 53 51 52 53 59 55 71 79 93 92 83 89 58 51 48 49 49 54 51 59
86 82 76 73 83 82 68 69 71 66 62 59 54 57 64 69 66 63 61 58 60 61 64 64 70 68 66 61 56 58 53 71 90 96 88 60 63 57 58 62 72 60 62 55
85 79 74 73 80 80 68 70 71 71 60 68 51 63 64 75 73 68 60 54 60 73 71 70 86 81 65 74 72 60 53 55 73 74 81 75 64 55 52 55 89 55 50 52
82 75 73 73 75 75 71 77 73 68 68 66 60 69 74 66 68 66 63 65 71 70 81 83 78 83 59 80 83 82 74 72 85 84 85 70 56 51 55 83 82 60 57 57
83 78 75 75 73 68 72 82 71 71 71 75 60 60 65 64 61 71 65 74 73 77 84 84 82 77 68 73 73 70 77 80 83 80 90 85 52 60 72 68 59 60 63 65
86 78 74 74 72 68 67 80 59 58 74 77 58 58 58 63 63 71 74 75 74 80 75 77 80 79 74 68 78 71 79 77 86 71 79 57 50 52 54 60 69 72 72 68
79 76 76 73 72 67 67 75 72 68 71 74 68 70 58 54 59 58 76 74 68 73 79 81 78 75 82 81 80 77 78 59 72 60 65 56 51 57 62 69 74 70 67 65
77 73 72 70 69 65 64 78 81 80 70 81 83 52 63 52 57 59 59 66 63 66 74 83 85 81 78 81 78 78 67 56 61 56 68 59 58 62 70 69 65 65 70 73
77 76 73 71 69 68 73 80 78 76 81 84 83 64 60 56 57 57 54 57 63 72 90 91 87 75 74 64 63 62 52 60 68 80 80 82 74 74 64 68 70 70 75 80
81 79 74 73 72 70 78 84 82 74 81 90 94 75 73 65 62 63 65 69 69 76 80 85 79 70 87 80 67 56 62 62 67 77 76 81 74 66 64 69 72 72 78 77
79 77 76 73 74 87 88 85 82 72 83 88 96 96 80 79 80 79 78 73 82 82 86 85 77 78 84 85 81 56 55 64 68 75 82 81 74 80 67 65 67 72 73 73
76 74 74 72 72 74 81 83 72 80 81 90 96 96 89 75 74 80 76 80 81 88 88 86 85 84 86 95 65 58 58 60 66 70 72 72 69 66 64 66 67 74 76 74
80 79 74 80 83 84 84 78 74 89 86 94 99 96 97 78 80 80 83 83 92 86 88 85 84 88 96 77 64 55 64 67 71 72 74 72 72 77 77 71 69 73 76 77
77 72 76 93 96 79 84 84 82 91 89 94 96 96 97 87 81 78 81 84 80 89 88 87 90 88 69 57 59 61 62 61 63 75 85 80 88 79 73 71 70 71 72 73
79 89 97 94 80 86 78 91 89 90 92 87 91 93 95 85 90 84 83 84 85 89 95 80 82 92 73 59 61 59 58 60 62 61 59 59 62 67 70 69 68 70 72 75
81 87 85 87 83 92 77 93 90 84 89 90 92 89 88 94 82 88 83 85 88 88 92 88 86 88 63 61 65 60 63 67 66 61 60 58 56 64 74 77 78 78 77 77
83 83 83 83 86 84 67 76 90 96 95 97 94 96 93 93 75 79 84 93 94 92 93 84 92 72 54 52 53 56 73 77 77 70 69 70 74 77 82 85 79 79 77 74
90 79 61 78 83 85 93 94 96 97 94 91 93 95 95 86 90 77 91 85 78 84 93 92 94 71 54 52 52 53 53 55 74 80 81 83 88 90 89 89 85 84 83 72
86 86 73 90 94 96 97 97 95 96 90 93 95 95 87 95 93 80 88 87 91 90 91 96 95 68 59 58 57 60 64 64 66 66 75 79 81 87 83 80 80 76 71 71
90 90 89 87 91 98 98 95 96 95 90 95 94 92 92 94 94 90 92 90 91 91 97 96 72 61 73 74 69 67 68 71 70 68 65 67 70 74 76 73 75 75 79 79
89 97 80 93 88 93 95 79 83 83 93 97 95 81 86 93 95 90 85 93 94 98 97 95 80 78 79 76 71 72 76 76 78 79 80 85 77 86 88 87 72 78 77 77

GFSNW_sfc_rhum_063.txt.gz
RH
94 90 87 86 78 78 88 96 98 82 88 98 94 95 74 63 68 71 80 87 81 74 52 61 78 82 78 61 67 72 75 79 94 87 83 70 73 67 59 85 76 79 79 58
94 90 85 86 80 82 98 97 97 80 83 98 84 71 68 61 65 68 76 76 73 69 68 70 66 71 61 56 67 78 66 81 97 96 77 71 76 64 60 64 74 84 78 56
94 90 85 88 79 80 89 86 99 96 95 89 94 80 78 76 62 60 54 68 70 59 66 60 67 77 64 57 64 69 66 75 79 86 81 76 84 66 62 72 91 71 72 58
94 91 86 87 81 81 95 89 91 79 97 98 90 73 69 74 72 62 58 62 70 62 71 60 69 62 69 68 68 66 71 85 83 68 66 70 71 64 66 76 69 77 62 61
92 90 89 89 82 83 98 94 89 87 90 80 79 79 67 69 75 69 63 61 65 63 78 80 67 59 59 64 80 76 73 92 82 90 62 67 78 67 64 63 65 66 64 62
93 91 89 88 83 86 98 88 78 79 83 85 83 82 69 73 73 71 66 60 76 84 79 67 62 60 63 66 74 79 78 86 94 91 68 68 76 64 61 65 61 60 72 72
93 90 87 88 83 82 79 80 84 83 91 81 77 66 70 74 75 75 68 64 74 74 67 65 56 60 62 62 58 60 80 84 94 92 82 81 60 57 53 67 68 66 68 63
92 89 88 85 83 82 80 85 81 81 90 78 63 64 81 77 74 71 70 67 71 69 76 74 79 79 74 70 66 62 71 86 92 94 93 71 68 63 64 71 82 62 67 58
94 90 88 83 78 80 83 86 85 82 76 85 71 75 82 91 88 80 68 64 71 82 81 80 87 90 70 85 82 64 59 63 79 86 86 80 69 61 55 58 94 58 60 62
92 89 88 77 80 80 80 88 85 77 85 86 76 85 85 79 82 86 74 72 80 79 90 88 87 90 69 87 86 86 82 80 86 88 91 80 61 55 60 81 84 71 70 70
89 88 85 74 83 82 74 88 80 78 94 90 78 76 80 74 79 84 73 76 77 87 85 89 89 85 74 79 80 78 81 87 90 89 94 92 56 63 76 74 75 78 77 78
90 88 78 74 84 71 74 81 65 67 86 85 70 69 69 72 77 80 84 81 85 89 85 87 89 85 86 80 88 75 82 75 84 79 82 59 61 80 79 78 84 86 87 82
88 88 76 76 70 64 74 84 79 78 88 87 83 80 64 60 67 66 82 83 76 80 87 88 88 83 90 86 85 82 82 69 79 72 69 66 79 80 77 80 83 80 71 72
87 85 77 72 69 67 70 82 92 80 82 93 89 61 70 58 64 62 65 71 70 74 84 91 91 89 85 88 83 84 79 61 64 68 82 77 84 82 76 74 72 76 75 79
86 85 80 73 70 72 81 91 87 83 76 96 94 77 67 66 65 66 66 67 74 85 91 94 89 86 77 74 68 74 64 65 68 64 83 82 84 86 73 74 73 75 80 87
88 83 77 75 72 71 76 67 72 81 80 92 98 83 85 81 75 75 75 76 81 87 88 92 88 77 87 82 80 61 76 76 74 90 86 88 88 83 79 80 77 80 84 82
85 79 77 78 78 93 85 70 71 75 83 91 98 99 85 84 86 88 88 82 89 89 92 90 89 87 90 91 86 63 68 75 85 84 81 84 82 84 76 74 70 72 76 78
79 79 77 74 73 75 74 81 74 82 90 88 96 98 92 78 83 91 87 89 90 89 93 90 88 87 91 96 75 70 71 76 80 79 79 80 81 78 78 80 76 77 78 80
82 78 76 82 89 76 73 70 79 93 74 97 95 96 96 82 84 82 91 92 96 90 91 90 88 93 97 77 74 72 71 72 75 75 78 82 84 81 82 80 78 81 82 80
82 80 75 86 97 76 84 81 74 90 93 94 97 97 97 91 75 77 85 82 92 95 92 88 89 92 78 69 73 72 70 67 66 76 81 78 88 76 75 74 74 78 81 81
81 91 98 98 80 85 78 88 78 92 90 93 96 94 98 90 93 87 84 84 86 89 96 92 88 92 82 71 69 67 65 65 67 66 66 67 67 71 72 74 75 78 80 81
80 85 88 90 84 88 72 93 86 84 86 95 94 94 94 95 89 92 82 89 85 86 90 86 85 89 66 66 66 69 69 75 70 70 69 68 65 69 77 81 83 83 80 79
88 79 81 76 82 69 50 71 87 97 98 98 96 98 96 91 82 84 91 94 98 93 97 89 92 79 62 61 59 62 74 75 74 67 66 68 73 76 83 88 86 88 85 80
81 74 59 68 70 81 89 82 90 96 95 92 94 97 94 91 92 89 90 91 88 93 99 95 94 77 62 59 57 58 59 63 79 82 77 80 86 85 84 88 88 86 82 75
84 76 52 91 97 99 99 99 96 99 93 94 94 95 86 97 92 86 89 90 97 92 91 94 95 75 67 62 62 65 73 74 77 77 83 86 84 84 82 77 79 78 75 73
89 89 93 91 94 99 98 97 93 98 93 96 90 94 93 97 94 91 94 90 92 86 97 97 84 67 72 77 76 78 76 79 80 80 76 76 81 82 79 77 82 82 83 83
90 98 90 96 92 97 97 94 94 92 92 92 92 76 79 94 96 93 91 91 89 96 98 98 81 77 79 79 74 69 71 78 81 82 83 86 81 90 94 91 76 82 79 82

GFSNW_sfc_rhum_066.txt.gz
RH
82 92 92 87 83 85 92 96 98 92 89 98 96 96 76 68 73 76 82 86 84 71 58 75 91 86 82 68 71 77 80 86 96 95 82 79 74 72 68 82 75 84 78 58
83 89 91 88 85 85 98 94 94 88 90 98 93 72 69 65 76 82 83 78 73 76 74 82 74 77 68 66 72 83 70 85 98 88 76 72 76 69 61 65 76 83 75 58
84 87 93 88 88 85 93 94 98 98 96 90 90 82 77 76 68 69 71 72 74 72 70 67 73 75 67 60 67 70 67 81 79 86 80 80 87 72 67 71 89 75 72 54
83 91 92 90 89 86 89 86 93 79 96 95 97 81 79 77 76 68 63 71 76 69 75 72 79 69 73 69 68 69 71 85 84 76 72 76 75 72 71 75 68 73 56 59
84 94 91 92 90 88 98 95 96 90 95 89 97 86 80 75 80 70 71 69 66 67 76 76 77 64 72 82 78 80 77 94 83 90 65 67 76 70 70 72 70 68 63 70
84 87 93 90 89 91 99 95 85 80 88 93 91 82 68 76 75 75 68 66 80 79 77 74 70 66 70 74 79 82 81 88 92 93 73 65 76 65 68 68 68 68 73 70
85 91 92 91 89 85 81 84 86 86 95 88 80 74 74 77 75 77 72 68 74 78 72 66 60 64 66 65 68 71 84 86 92 92 75 84 61 60 64 74 72 70 66 62
92 93 89 88 90 80 81 91 83 84 95 87 76 79 86 78 77 74 73 72 78 72 72 76 81 83 76 73 68 61 76 88 94 91 92 69 69 71 70 79 85 65 67 68
89 93 90 90 90 86 82 87 90 82 83 89 80 84 72 89 89 81 72 68 77 80 81 83 88 96 85 91 84 70 66 74 79 88 88 83 68 67 62 64 88 79 74 80
91 86 91 90 88 83 78 87 88 77 88 93 89 87 86 84 87 89 81 82 81 81 92 88 90 91 73 92 90 85 83 86 88 90 92 81 65 60 63 76 72 79 81 81
86 89 88 88 84 78 72 85 84 79 95 89 82 80 82 78 83 86 79 78 80 91 87 90 90 86 77 84 82 82 84 90 92 90 95 96 63 67 76 79 85 82 84 84
91 89 87 83 80 74 72 80 69 69 85 87 76 76 75 75 79 83 88 81 87 90 89 92 92 88 88 85 92 80 85 76 84 81 84 75 87 81 86 80 85 88 88 86
92 89 86 77 82 71 70 82 81 82 86 84 84 82 67 62 72 70 84 89 80 85 88 91 90 83 90 88 86 86 83 76 81 78 82 92 90 86 84 87 88 86 84 82
88 86 79 78 76 70 68 79 91 80 81 90 90 65 76 65 66 66 70 74 74 79 87 93 93 87 88 91 83 85 83 71 74 86 93 91 92 88 86 84 82 82 80 83
87 84 77 79 72 72 82 90 88 84 73 94 94 79 75 77 70 70 69 70 78 88 90 93 88 90 79 80 75 81 71 71 72 73 80 81 90 86 79 82 83 82 88 90
87 83 79 78 75 71 66 67 74 80 79 92 98 88 86 84 81 80 79 81 88 92 87 93 89 82 81 80 73 64 80 81 78 90 88 87 88 81 81 84 81 80 84 85
87 82 80 79 74 88 76 69 74 79 79 92 98 99 85 84 87 91 89 87 94 88 94 91 89 88 91 91 83 69 79 89 88 86 84 87 82 85 83 77 77 75 78 81
85 77 80 79 72 72 73 81 78 81 84 84 97 99 92 80 91 92 94 91 92 93 94 92 90 88 92 94 80 83 88 88 86 84 82 79 81 82 81 83 83 83 82 82
82 81 78 80 82 70 73 73 81 87 73 95 95 95 99 86 89 92 91 93 95 91 92 92 89 95 96 73 77 82 81 77 80 79 79 80 81 77 76 81 81 81 83 83
81 84 75 83 92 78 75 76 67 88 92 94 99 98 96 91 85 86 92 91 96 98 93 90 88 93 80 78 77 75 76 74 72 66 72 72 89 69 72 73 75 81 85 85
86 86 96 97 81 82 78 87 79 89 86 94 97 96 98 92 94 88 87 93 92 92 94 93 95 96 84 77 76 72 70 70 73 74 68 67 71 75 75 75 77 81 82 80
80 87 88 88 81 86 71 91 85 80 87 96 95 96 96 97 88 93 89 94 91 92 90 85 92 92 79 76 73 73 73 73 74 71 70 68 68 72 79 83 86 86 83 81
82 79 81 79 82 58 49 59 86 99 99 99 98 99 96 92 85 90 91 96 98 89 88 93 90 84 75 69 66 69 78 77 69 64 66 67 72 74 79 82 83 87 89 84
84 77 63 71 75 74 80 82 90 94 96 93 95 98 95 92 93 90 91 90 81 98 100 95 94 86 70 66 62 59 67 69 81 84 80 81 85 85 84 84 85 86 83 72
88 76 48 86 91 98 100 99 98 99 90 93 96 95 87 97 95 87 93 91 99 92 89 92 95 82 70 67 65 67 73 76 79 80 87 89 88 90 87 85 84 85 82 82
90 89 92 93 97 100 98 95 92 98 93 95 89 94 91 98 93 88 92 84 83 80 94 95 89 76 72 71 75 77 79 80 79 80 77 76 81 84 87 89 91 90 89 88
88 98 91 96 97 98 98 92 90 93 82 89 89 66 69 94 96 93 90 87 84 91 97 98 82 73 78 82 77 73 70 73 76 77 79 86 83 94 96 89 78 87 85 90

GFSNW_sfc_rhum_069.txt.gz
RH
73 76 86 89 87 90 95 97 98 93 89 99 94 98 81 72 80 78 86 84 86 69 63 85 93 89 85 67 74 84 83 87 89 94 84 84 86 80 68 80 77 84 76 61
73 80 86 93 89 90 98 98 97 93 89 99 98 77 76 72 80 85 84 83 79 81 76 88 82 87 72 68 75 83 74 89 95 81 70 73 82 75 72 71 79 84 81 68
73 78 85 92 88 91 98 98 98 99 99 96 89 81 86 83 74 78 77 74 77 77 73 79 80 86 76 67 69 71 68 84 78 88 76 82 88 80 72 75 88 82 74 73
68 81 84 90 87 92 99 83 90 76 97 98 94 83 76 82 82 71 73 80 75 68 82 82 75 73 80 71 72 74 69 87 86 81 78 81 82 80 72 81 67 75 65 64
65 86 87 89 89 91 99 98 93 83 84 93 92 87 84 76 80 71 73 72 70 69 73 75 78 66 79 84 76 81 79 96 82 89 68 71 80 74 75 75 73 71 68 76
68 83 86 88 90 91 99 96 87 84 84 98 95 91 83 77 76 79 71 68 79 80 79 79 77 69 73 80 82 84 81 88 90 93 76 65 78 71 77 76 80 78 82 75
75 83 88 87 92 91 96 92 91 88 96 94 92 76 75 82 78 79 78 71 75 82 73 69 62 65 68 67 70 76 83 88 90 93 78 81 68 73 66 78 72 71 65 64
86 86 91 93 89 92 82 90 88 88 98 90 86 78 83 75 79 78 77 76 80 75 68 77 81 85 73 74 74 80 78 87 94 88 91 70 74 73 76 79 82 69 68 71
86 87 92 88 92 89 78 86 96 84 83 92 86 78 80 89 89 84 78 77 80 79 84 82 89 94 86 90 84 64 69 74 83 90 89 86 68 75 66 73 83 76 73 80
84 90 92 90 89 92 73 89 90 80 93 95 84 82 79 78 87 91 86 84 81 81 91 88 90 92 81 92 88 86 82 86 88 89 92 79 68 63 67 77 70 80 80 84
83 90 89 88 88 88 68 85 84 80 97 93 84 78 78 83 85 87 82 79 79 91 87 89 91 86 85 87 84 83 85 90 91 91 94 88 67 72 76 77 87 85 86 88
89 89 88 87 86 78 67 72 72 71 88 88 79 79 80 80 82 86 90 81 87 90 90 93 93 89 89 87 92 84 84 75 84 82 84 82 90 84 86 83 85 88 88 89
90 91 88 83 82 68 68 79 82 82 86 86 80 81 67 66 75 74 84 91 84 87 89 92 91 82 88 90 88 87 85 80 84 81 85 92 91 89 88 86 86 86 87 89
89 88 85 80 81 70 65 76 89 79 81 89 87 68 73 72 72 70 75 78 80 83 90 92 92 84 89 90 84 85 83 78 82 87 94 92 88 88 87 86 84 86 86 88
87 82 79 81 79 72 83 90 91 82 73 92 92 80 75 83 77 75 71 72 80 87 90 94 90 93 84 84 81 86 76 78 80 81 79 82 85 87 84 83 84 83 87 86
83 80 82 80 74 71 67 70 78 77 80 90 96 90 86 84 83 83 82 85 90 91 86 94 92 85 80 81 76 63 80 82 75 80 87 86 89 87 82 84 82 81 82 86
82 85 84 82 76 86 73 72 76 75 80 90 97 98 86 86 87 90 88 89 95 86 94 91 88 87 90 87 78 70 85 90 89 89 85 89 84 88 82 81 77 78 82 81
82 82 78 74 72 72 78 87 80 76 79 84 98 98 92 82 90 89 95 90 90 94 95 93 88 88 92 92 79 83 90 89 85 83 81 75 82 81 82 83 83 82 83 81
83 80 75 79 83 70 74 76 76 85 71 91 94 97 99 86 94 93 90 92 94 92 93 94 89 94 95 67 80 90 91 82 81 82 79 80 79 78 75 79 76 80 80 81
81 80 85 82 88 74 78 74 65 86 90 93 98 97 94 91 94 95 92 93 96 97 94 92 89 91 80 79 78 80 81 79 81 74 77 76 86 66 73 70 72 78 82 86
89 91 96 96 84 82 81 88 74 88 86 91 95 93 98 91 94 97 88 97 97 97 91 93 97 95 88 81 85 81 79 76 69 68 65 67 73 73 77 75 73 77 82 86
82 87 88 87 81 85 68 84 89 78 81 95 94 97 96 97 88 92 89 94 93 93 92 86 96 88 83 82 78 77 77 73 67 68 72 74 65 72 78 81 82 82 81 82
78 84 81 82 81 52 55 57 84 98 98 99 99 99 94 90 85 91 90 96 96 84 89 95 92 84 82 81 77 77 81 71 65 64 67 67 71 74 80 81 82 84 87 86
86 78 60 69 70 75 76 80 88 93 96 94 98 99 94 93 94 91 91 86 78 95 100 95 94 85 80 77 70 64 65 65 81 86 83 83 89 86 85 85 85 87 89 80
82 79 57 85 85 96 99 98 99 99 84 93 97 94 85 97 96 88 85 90 100 94 84 91 93 83 79 73 68 68 69 72 75 78 85 90 90 91 88 86 87 90 89 87
90 90 94 95 97 100 98 98 99 99 92 92 87 89 88 98 93 89 93 83 81 77 94 94 92 84 77 71 70 72 77 79 78 78 77 75 79 82 87 90 91 89 87 89
88 97 92 96 97 95 95 91 87 92 82 83 86 63 69 93 93 86 88 82 81 89 92 98 89 78 75 76 77 75 74 76 77 77 74 82 80 94 94 89 82 86 89 92

GFSNW_sfc_rhum_072.txt.gz
RH
71 73 73 82 88 89 88 96 100 95 89 98 91 95 88 75 84 81 85 79 82 73 73 90 94 92 85 73 77 85 84 85 97 94 86 85 83 81 67 83 75 81 73 63
71 74 72 88 92 85 98 98 98 93 92 98 96 90 79 75 79 85 82 84 80 83 79 91 89 89 76 69 77 82 74 89 93 80 72 76 85 80 74 71 80 83 80 70
72 72 74 86 92 90 96 97 100 98 98 91 92 91 88 85 78 84 78 76 78 79 83 83 90 90 78 69 76 70 66 85 76 84 74 80 86 82 76 73 85 82 71 78
70 70 78 88 90 85 96 97 98 90 98 95 97 87 84 86 87 76 82 82 78 70 84 82 87 87 83 73 73 78 70 89 89 82 82 83 82 82 77 82 74 74 69 70
71 67 86 90 90 90 97 97 97 81 71 93 95 86 85 83 82 80 83 78 80 76 77 77 78 77 84 87 77 84 80 96 83 87 71 72 84 81 82 80 75 71 68 79
71 71 83 85 90 92 99 99 85 76 78 96 95 88 78 77 75 80 72 71 79 79 81 78 81 82 83 82 84 84 83 88 90 90 76 66 77 75 80 83 86 76 80 72
70 72 85 87 87 90 98 98 86 85 85 95 92 84 80 83 80 82 82 74 78 83 74 75 67 67 69 70 79 80 83 87 90 92 78 84 68 80 69 80 78 79 74 71
68 83 84 87 81 88 96 88 83 88 85 92 87 84 89 81 82 82 81 83 84 75 73 78 82 86 78 76 79 82 78 85 94 88 91 68 76 84 81 80 78 71 71 73
75 86 87 89 91 88 84 86 90 95 92 84 96 79 82 90 89 87 86 81 82 77 84 80 88 95 86 91 85 76 72 77 84 89 87 81 74 79 73 76 77 76 74 81
76 86 91 92 87 81 75 84 88 86 96 96 92 82 85 83 88 93 89 85 81 80 90 88 90 93 84 91 91 89 86 89 89 90 92 78 73 74 71 77 68 84 82 83
77 89 90 92 91 81 72 79 84 83 98 92 80 77 82 83 86 87 83 80 80 90 87 87 91 88 88 89 85 86 86 91 92 92 93 84 76 77 74 74 88 86 86 87
84 88 87 88 90 80 64 77 76 74 88 87 74 71 72 84 84 89 90 81 86 90 91 93 93 87 90 88 88 85 84 76 82 81 81 81 90 87 87 84 86 88 86 90
81 88 87 84 84 72 64 78 84 82 87 87 75 79 71 71 79 78 84 91 85 88 89 93 91 82 86 91 90 88 85 83 85 80 84 87 90 90 87 86 86 87 87 86
88 86 85 86 73 66 64 74 89 81 83 84 80 70 83 77 79 75 80 82 84 87 91 92 92 83 90 90 85 87 84 81 84 84 86 91 88 88 85 87 84 84 85 86
86 84 83 86 72 71 79 85 92 80 75 92 88 78 71 80 80 77 74 75 81 86 88 94 89 94 86 89 87 90 83 81 84 82 77 79 79 87 84 84 81 81 85 84
89 84 85 82 76 68 67 72 82 79 79 90 88 89 80 76 81 83 84 87 89 89 86 94 93 86 80 85 85 66 73 81 72 73 87 85 90 87 82 82 82 83 83 84
86 87 82 75 72 84 70 72 78 74 80 88 95 96 84 79 84 91 87 88 94 88 93 88 86 89 87 83 71 60 85 88 93 89 87 90 88 88 84 83 81 80 85 82
85 80 77 74 72 72 78 86 76 74 80 85 98 97 92 81 88 83 95 88 87 93 95 93 84 89 92 91 77 82 90 89 88 86 81 76 84 82 83 83 82 80 79 80
80 77 71 76 79 74 81 70 72 84 70 93 95 96 96 86 94 93 89 91 91 93 93 94 88 90 90 63 71 87 93 86 81 82 81 82 79 78 77 75 73 76 72 75
74 77 72 85 89 80 77 73 64 84 90 93 96 96 98 91 93 95 90 90 94 95 94 92 93 93 78 80 79 81 89 83 84 77 83 81 84 65 68 64 67 75 78 80
86 89 95 96 82 81 76 88 75 81 82 92 96 95 98 90 94 96 89 97 97 96 91 95 96 95 88 81 83 85 86 85 79 67 58 61 68 65 70 70 71 73 77 82
82 87 88 86 81 87 64 83 87 81 71 97 95 96 93 96 90 91 89 95 93 95 94 93 97 87 81 86 86 85 82 78 74 73 71 73 64 72 76 80 81 81 79 80
79 80 81 80 81 59 59 54 78 95 97 98 99 99 96 94 86 91 90 96 95 82 89 96 91 80 81 86 83 82 86 78 67 66 65 65 70 73 79 81 82 85 88 86
87 80 66 74 78 78 74 74 89 94 97 95 97 99 92 90 93 89 92 79 79 95 100 88 92 82 81 87 80 78 77 71 83 84 83 84 87 87 88 85 84 86 88 79
82 80 63 86 82 93 96 98 99 98 86 93 94 94 84 98 96 86 85 92 100 91 77 87 91 77 85 85 75 71 68 70 72 75 83 88 89 91 86 84 84 89 88 88
88 94 87 91 98 98 100 100 100 99 92 88 90 91 88 94 91 92 90 77 73 74 93 93 92 84 85 79 72 70 72 78 77 76 75 74 78 82 86 87 88 87 87 88
91 94 95 96 98 97 98 94 92 92 82 80 92 61 66 93 90 79 87 80 79 88 92 96 91 82 81 76 71 74 76 78 79 78 75 83 80 94 92 87 74 87 88 92

GFSNW_sfc_rhum_075.txt.gz
RH
74 73 73 71 81 91 87 97 99 99 96 99 93 99 87 78 86 82 85 77 75 70 76 92 94 92 88 77 73 85 82 82 94 94 79 79 87 75 60 75 73 70 70 62
75 75 73 72 87 87 97 98 98 98 94 100 97 86 86 80 82 84 81 84 79 80 82 91 90 85 75 72 79 81 71 86 94 82 70 72 79 75 70 68 71 76 72 64
76 76 72 81 88 84 96 98 100 98 98 90 88 95 88 89 81 86 74 79 76 75 83 83 90 90 78 74 82 70 64 84 76 85 76 78 81 77 70 66 76 68 62 71
73 74 72 87 88 83 95 98 99 95 99 95 94 90 84 88 88 84 77 79 72 73 85 82 91 87 77 72 73 76 72 90 87 78 76 77 78 78 74 75 66 65 60 68
72 73 75 87 84 84 97 98 99 94 79 89 95 85 87 88 85 85 84 82 79 71 76 77 84 80 83 88 76 83 78 94 80 87 67 68 79 76 79 72 70 68 66 66
72 74 76 84 85 92 97 99 92 86 85 91 95 86 86 83 80 82 77 75 77 79 83 77 83 82 85 86 83 82 81 86 89 91 74 65 76 74 79 78 79 70 65 66
73 74 80 85 86 88 97 98 89 78 96 87 86 78 81 82 84 85 85 77 77 85 75 75 72 70 72 75 83 79 81 84 88 92 75 84 64 80 68 74 74 73 71 75
73 75 83 86 87 84 95 88 83 80 86 88 83 79 82 84 84 86 89 88 86 74 73 79 83 85 79 79 80 80 76 81 91 86 89 64 71 79 77 78 73 72 71 73
77 80 87 85 85 74 82 86 91 81 89 89 92 81 80 89 91 90 87 82 82 76 82 78 87 93 88 89 83 75 71 76 78 83 83 73 64 75 69 70 64 70 69 75
74 84 88 88 80 72 76 82 90 85 93 87 86 85 87 87 89 94 90 85 81 80 88 87 89 93 86 89 92 90 88 89 88 90 88 73 67 69 67 72 58 76 73 76
80 90 89 84 79 72 72 79 88 84 97 86 79 83 86 84 87 89 84 82 79 89 86 86 92 88 89 88 86 88 86 90 91 90 91 72 76 76 68 66 86 79 79 80
82 89 88 86 81 70 67 74 74 74 88 86 79 78 81 87 84 90 90 81 86 90 91 93 93 85 91 88 84 86 84 77 80 78 75 71 81 83 83 80 80 83 80 83
84 89 87 86 78 71 69 82 87 84 86 91 75 78 70 78 86 80 83 91 86 87 89 92 91 83 87 90 90 89 85 84 85 78 79 83 86 89 86 82 80 82 81 83
85 86 86 86 76 67 66 79 87 83 80 88 81 70 84 79 82 79 82 84 86 88 91 91 91 82 90 90 83 88 83 83 84 84 79 85 84 86 82 84 84 85 84 83
88 86 83 75 71 69 80 90 94 80 78 90 81 72 72 79 80 79 76 76 81 88 89 93 87 94 89 92 90 93 86 81 84 80 74 75 74 84 83 85 82 81 82 80
85 88 88 78 72 66 68 69 83 84 82 90 89 89 79 73 74 81 83 85 88 89 86 94 94 88 82 88 89 70 81 79 72 71 85 83 91 88 84 81 78 79 82 79
88 86 86 78 72 88 70 68 77 76 81 87 94 94 83 78 76 91 85 87 94 86 92 86 88 92 89 83 74 51 74 82 89 88 88 90 89 88 84 81 79 75 82 80
85 79 78 77 75 77 83 88 76 76 82 85 97 97 91 82 86 79 95 84 85 92 94 92 83 90 93 91 75 80 89 90 91 91 82 76 85 87 86 82 78 75 69 70
81 77 72 76 80 81 88 70 72 85 71 92 94 95 93 87 95 93 89 89 87 93 91 92 87 87 86 62 60 82 92 86 82 83 82 85 83 82 77 72 64 66 63 66
79 74 74 86 90 86 69 74 65 82 89 93 95 97 99 91 95 94 90 91 95 94 92 93 96 94 77 78 72 75 88 83 82 76 81 81 84 65 62 58 62 70 75 77
84 88 93 94 83 78 76 84 73 80 73 90 96 96 97 90 93 96 90 96 98 95 90 95 96 95 86 81 83 84 89 86 81 67 57 62 63 59 64 66 69 73 76 78
83 86 88 85 78 84 66 83 83 81 63 98 97 95 92 95 92 91 91 93 93 88 94 91 98 86 78 84 86 88 89 86 75 69 62 71 62 72 74 77 78 79 79 77
79 83 82 81 82 65 64 58 75 94 94 98 99 98 95 93 90 93 91 94 91 92 94 96 88 77 80 86 86 85 88 79 69 68 63 63 69 72 78 78 79 82 85 81
89 81 61 75 82 81 77 77 87 90 97 97 97 98 90 90 94 86 91 82 85 98 100 83 91 79 78 88 85 81 80 74 82 81 84 84 88 88 89 85 82 83 84 75
87 85 75 87 83 98 96 98 99 98 91 89 96 94 79 98 97 83 90 92 100 88 71 85 90 77 84 89 85 81 79 74 70 75 80 87 89 92 86 81 82 85 84 83
89 89 82 91 96 98 98 100 100 99 88 95 89 91 90 92 93 94 88 73 69 71 93 93 90 84 86 86 79 75 70 73 75 78 75 73 77 81 86 87 88 87 88 90
93 93 90 95 97 94 97 95 95 94 82 84 89 65 59 89 89 79 86 76 78 89 94 97 91 84 86 83 74 71 76 80 79 77 75 83 81 94 95 91 86 91 93 95

GFSNW_sfc_rhum_078.txt.gz
RH
77 74 76 70 84 88 88 92 99 94 94 99 97 87 73 69 64 63 60 55 51 51 58 67 68 75 77 56 60 63 57 58 82 70 57 58 64 53 42 48 57 53 42 48
78 77 74 79 86 88 96 98 98 98 93 99 94 78 73 62 62 62 59 63 56 50 62 68 68 71 60 58 61 58 50 63 84 70 54 54 56 51 47 45 48 55 48 50
78 76 76 87 84 82 93 96 100 98 96 88 61 93 67 64 65 64 60 63 53 53 58 60 70 67 61 56 62 68 50 57 66 60 69 62 58 53 49 46 58 39 42 54
73 74 76 87 87 87 89 97 98 91 99 93 82 86 62 63 65 66 56 56 50 50 60 62 67 63 56 55 62 54 51 80 75 56 58 61 60 60 54 63 46 46 42 42
72 74 78 84 85 87 96 98 95 88 69 75 96 80 60 63 70 66 60 56 54 47 52 51 60 56 54 63 51 56 53 84 65 81 48 53 61 59 56 52 51 46 42 48
73 77 78 82 85 88 96 96 84 69 74 74 91 78 63 65 61 64 61 51 52 58 62 54 54 52 55 57 56 57 58 68 80 77 52 49 51 54 58 60 56 48 43 52
75 78 79 85 84 82 88 86 67 58 78 62 92 73 62 67 68 65 66 57 54 62 51 49 43 44 47 47 50 51 55 61 72 81 56 66 47 52 56 54 57 55 54 59
75 76 85 86 82 75 82 71 66 58 76 69 78 68 67 61 63 72 76 71 62 50 50 53 57 54 52 55 53 49 47 49 63 64 55 46 51 56 54 53 51 53 54 56
79 88 88 85 71 69 63 69 74 59 61 80 82 71 61 60 65 69 71 62 60 56 51 50 63 60 64 64 60 52 50 46 46 51 53 40 45 52 50 54 43 52 51 54
79 87 88 81 77 64 61 69 73 60 73 73 76 72 71 64 64 69 68 64 60 56 56 58 59 65 63 57 63 66 61 59 61 58 56 47 44 50 50 50 43 52 50 50
85 86 84 82 73 66 59 67 69 62 68 71 70 71 70 63 62 59 65 60 57 58 61 58 62 55 59 58 60 61 60 59 58 60 64 51 49 54 52 47 56 52 54 54
89 85 82 78 72 66 63 62 60 58 64 68 62 64 64 70 67 65 66 61 65 60 56 59 57 55 59 59 48 61 59 52 46 50 43 49 51 53 55 53 51 59 56 56
88 86 84 83 76 68 62 64 67 62 64 65 61 65 58 62 66 63 60 66 66 65 66 57 58 61 54 53 54 59 58 58 54 55 51 53 52 55 57 57 56 58 57 58
88 87 84 82 75 71 64 64 70 62 61 66 66 55 64 58 62 64 64 66 66 64 60 59 60 55 64 55 56 56 53 61 57 56 52 56 53 56 55 60 61 63 63 61
88 88 89 80 73 71 70 70 70 64 63 69 65 62 59 57 58 60 59 59 60 59 66 67 62 62 62 59 62 60 55 52 52 42 49 49 51 56 58 62 63 61 60 57
84 88 80 75 69 62 56 59 65 69 63 77 77 67 64 62 59 61 63 65 62 60 59 66 65 70 63 63 54 44 51 53 52 45 55 58 66 67 65 64 62 58 58 59
87 90 84 78 72 74 60 60 68 69 65 71 85 80 63 67 62 67 61 63 65 58 66 64 61 70 72 62 54 40 44 53 57 57 63 65 69 64 64 60 58 59 59 56
88 86 81 78 74 73 68 69 74 67 63 69 96 89 69 66 64 61 70 56 58 69 66 66 59 66 68 67 49 50 60 66 69 67 59 57 64 66 68 63 60 52 45 42
84 81 71 69 67 64 70 72 75 74 61 89 83 91 87 71 76 72 66 62 63 71 65 65 67 60 71 48 42 52 65 64 65 72 64 64 62 62 59 52 44 41 41 45
70 66 65 78 74 85 66 69 64 76 77 76 80 82 86 72 75 75 71 73 70 84 68 73 75 64 56 53 49 48 60 63 67 69 69 66 64 53 42 40 44 48 50 52
73 75 78 80 79 64 62 77 75 62 68 72 81 82 85 74 79 73 72 85 84 83 79 78 76 67 60 62 63 62 62 60 58 45 41 46 46 44 44 45 50 52 52 53
75 80 78 73 69 76 71 77 66 70 63 82 84 82 76 78 75 74 78 83 85 81 78 85 76 65 60 66 69 69 68 64 58 46 45 46 45 48 53 53 54 56 55 56
75 75 83 74 76 73 75 69 77 82 82 91 92 91 80 83 76 78 76 85 81 74 88 76 63 56 61 67 69 75 79 74 59 51 48 46 49 54 58 58 61 60 58 55
85 85 73 81 83 79 77 70 78 73 86 90 83 90 79 76 78 74 82 72 70 96 89 68 66 62 57 67 66 65 64 64 73 71 61 64 71 68 69 67 62 59 57 56
92 82 82 84 73 89 90 93 91 90 83 82 84 85 69 85 88 71 82 91 96 76 66 68 69 60 64 70 67 61 59 56 53 54 67 76 77 75 69 64 64 61 62 64
85 86 83 74 88 89 93 96 95 91 80 78 77 85 85 84 84 91 91 75 69 71 82 72 61 62 70 71 68 62 56 53 49 54 56 55 57 61 67 68 67 71 74 78
98 90 75 79 88 90 81 77 76 78 71 82 81 75 69 83 86 82 72 78 73 76 74 73 74 73 76 74 66 62 58 59 62 56 57 64 67 76 81 77 69 78 79 82

GFSNW_sfc_rhum_081.txt.gz
RH
77 77 84 82 83 82 74 70 98 97 88 99 98 100 71 57 53 48 48 44 40 42 47 54 56 75 77 50 51 54 49 54 72 61 48 49 53 40 35 50 53 43 43 56
79 78 82 85 80 85 80 96 99 95 93 99 98 70 58 48 48 52 50 49 46 42 50 60 54 58 50 50 53 53 43 52 81 62 50 43 45 39 35 36 43 47 48 52
77 75 81 81 83 82 80 90 100 98 94 84 63 57 46 54 55 54 50 50 42 43 49 45 56 56 54 49 51 64 52 50 63 65 70 55 52 43 35 43 58 32 41 50
73 75 76 81 84 82 72 86 94 91 98 64 68 54 42 50 57 51 44 44 41 41 53 49 53 47 47 46 55 47 43 70 70 47 48 51 49 47 41 53 36 43 38 41
74 76 78 83 85 84 83 82 78 66 69 74 67 60 44 50 56 55 47 46 40 36 47 42 51 40 41 49 38 45 43 78 60 80 42 46 55 48 44 45 40 36 36 42
75 75 81 85 86 80 78 76 64 51 63 67 59 47 44 52 50 54 44 40 44 57 55 43 41 40 40 43 46 46 49 60 80 70 45 45 48 49 51 53 47 44 40 45
75 78 84 87 80 76 58 68 50 42 57 57 70 51 49 56 52 56 54 47 47 54 40 37 36 37 38 37 39 39 46 52 68 78 54 65 44 43 48 48 49 47 49 47
79 87 87 83 78 70 56 54 53 42 64 58 52 51 54 52 54 62 63 58 45 42 45 46 50 46 47 46 45 41 37 38 52 62 44 38 41 46 46 49 45 44 47 48
90 90 86 73 70 64 52 62 63 46 52 71 67 54 46 47 51 56 58 50 48 50 41 40 50 52 51 51 45 42 42 38 42 41 48 34 40 44 44 46 41 43 45 48
86 85 82 75 70 64 55 62 63 51 64 62 62 57 59 52 50 54 56 53 51 49 44 45 47 52 51 46 47 51 50 47 51 45 48 40 39 44 44 48 47 44 43 45
85 82 82 78 74 66 57 62 57 57 58 64 60 61 58 55 51 48 54 55 51 46 48 47 48 42 44 46 45 46 49 49 45 49 54 52 40 50 49 45 46 43 46 46
85 79 81 78 74 66 62 56 50 47 57 62 53 56 56 63 62 59 54 54 52 48 44 46 44 44 44 45 36 48 47 45 42 43 41 40 39 43 46 45 44 49 47 48
88 83 80 78 74 70 60 56 59 52 56 58 54 57 51 51 55 54 59 52 56 54 57 45 47 49 44 40 39 47 46 46 47 47 38 42 41 40 45 47 47 50 50 50
87 84 82 79 75 69 64 56 59 56 50 57 62 47 54 49 51 57 55 60 54 53 51 50 48 47 51 42 47 47 44 51 46 46 38 43 43 43 43 48 52 53 54 52
88 89 88 78 73 67 60 58 59 54 62 61 58 53 51 47 48 52 53 53 53 52 60 61 52 51 53 49 54 49 44 42 47 34 40 42 47 47 47 51 56 54 53 52
85 84 81 74 66 60 52 55 58 57 62 70 72 56 53 51 49 51 52 55 52 53 57 57 55 60 61 61 45 33 38 41 42 39 45 48 54 55 54 53 56 52 50 49
86 83 77 74 72 63 59 63 69 68 60 64 83 78 56 56 55 53 50 50 54 53 59 59 54 61 70 62 51 36 35 42 46 46 49 56 58 54 56 54 52 55 51 46
90 85 80 75 74 70 62 61 64 63 54 64 100 94 65 58 57 56 56 50 52 59 56 56 55 58 62 69 44 40 41 43 51 51 51 49 52 56 59 57 55 50 40 34
88 84 74 69 63 57 65 75 78 65 59 94 86 99 92 60 63 61 58 53 64 60 61 56 60 55 75 51 40 40 47 52 51 60 56 53 51 53 58 52 42 36 34 37
78 60 52 73 67 82 71 64 61 73 70 71 79 75 86 64 62 65 63 61 62 93 60 63 68 60 49 41 36 35 43 53 60 71 74 66 64 56 41 37 36 39 41 42
61 62 71 68 72 57 54 82 83 65 80 63 68 78 79 67 78 67 62 90 80 85 80 70 69 60 48 47 47 44 44 50 54 44 43 45 45 42 36 38 41 44 44 46
71 72 68 62 60 75 88 91 73 72 73 71 74 73 67 71 68 68 72 86 81 83 72 80 76 64 56 56 58 56 51 52 49 38 38 37 38 41 47 45 47 50 50 52
65 66 95 72 81 81 79 77 79 80 70 83 83 86 71 74 70 73 74 88 82 66 83 76 67 60 52 56 62 71 71 68 55 45 42 42 46 51 52 54 57 53 50 48
83 98 78 90 86 75 77 66 84 74 77 82 74 82 72 66 77 66 82 62 64 84 88 73 73 62 53 56 61 68 74 75 79 76 61 69 78 72 71 64 57 54 53 53
98 90 86 87 69 80 82 86 86 79 72 77 77 78 60 80 84 62 78 83 90 76 72 81 79 62 61 62 64 60 62 58 55 56 71 82 80 78 69 65 61 58 57 58
100 94 87 67 81 89 87 89 88 82 73 71 72 82 84 81 78 84 88 76 78 81 90 76 56 57 64 65 63 59 54 50 46 44 50 52 54 58 64 63 63 67 68 72
100 96 71 74 85 87 71 56 53 64 71 85 82 82 75 79 82 79 70 83 87 89 78 69 68 70 74 69 66 61 58 54 55 53 52 60 63 73 82 74 61 73 73 78

GFSNW_sfc_rhum_084.txt.gz
RH
79 76 78 81 83 81 67 76 98 95 83 99 99 100 84 54 51 49 50 46 50 57 54 72 69 78 81 53 56 61 58 69 87 68 54 51 63 50 46 82 67 69 75 80
79 77 76 82 81 80 71 97 99 91 94 100 100 87 55 54 49 54 49 51 48 49 56 83 62 64 53 54 56 64 58 68 94 82 68 58 53 43 47 48 70 64 84 85
78 78 77 82 82 79 79 89 100 97 94 92 93 60 54 62 58 53 46 49 46 49 53 51 56 65 60 55 57 68 67 64 79 92 85 68 67 51 47 63 85 67 69 70
77 79 77 82 85 83 80 83 91 86 99 77 65 54 51 60 58 51 45 48 44 45 52 56 58 55 59 53 58 60 58 80 79 56 56 59 59 56 54 60 47 68 60 61
75 79 83 85 88 86 83 81 86 81 69 71 60 61 56 57 58 56 48 51 49 49 57 52 55 50 55 63 50 57 54 82 79 71 50 54 63 57 58 58 53 46 51 58
77 83 87 89 87 85 76 79 70 63 71 65 51 52 54 60 57 56 54 52 59 68 60 50 51 47 47 54 57 57 61 81 92 86 58 56 73 59 61 62 59 60 66 61
84 88 88 87 82 80 70 75 70 63 68 64 57 50 57 64 60 64 59 53 58 62 47 50 49 50 46 47 48 46 56 68 91 92 82 82 59 53 56 57 54 56 58 56
90 88 85 76 74 70 70 69 78 64 68 56 51 51 58 59 62 67 68 61 56 54 59 62 64 62 63 55 55 54 51 57 80 90 76 53 54 58 61 68 64 55 60 59
86 83 77 75 71 71 68 76 78 76 70 80 66 58 54 60 69 69 67 57 58 65 62 54 71 78 62 68 58 53 50 51 67 67 68 63 59 57 54 58 73 57 57 60
86 86 82 80 72 71 71 78 74 83 80 73 68 71 74 65 63 71 70 66 65 64 68 64 72 75 63 68 69 72 67 66 73 70 76 62 58 56 57 72 72 59 57 60
83 80 80 80 77 72 74 76 68 79 79 78 64 63 71 70 70 70 70 71 71 71 69 69 67 68 64 71 68 70 67 77 72 70 78 74 55 62 69 61 63 59 63 64
85 83 84 82 81 75 69 76 62 60 77 78 60 61 62 68 72 82 68 69 65 75 75 68 65 67 64 63 61 69 69 64 70 61 67 54 55 64 66 59 59 71 73 64
89 84 83 83 80 75 69 77 77 78 78 78 74 68 61 56 61 62 83 76 73 69 78 79 73 73 67 67 61 69 67 63 71 62 61 60 54 59 60 66 68 64 63 63
88 84 84 82 75 72 68 77 77 82 74 82 80 52 66 57 58 64 65 70 68 70 75 79 76 72 69 70 68 69 66 65 62 62 54 66 62 66 59 61 63 65 64 64
87 88 86 78 73 69 75 78 76 69 83 88 81 62 59 54 56 62 65 70 69 80 87 91 85 79 78 72 77 80 65 66 72 60 57 58 66 66 64 65 69 67 68 67
82 89 82 71 71 69 74 85 82 74 78 95 94 72 66 63 61 62 65 70 70 77 86 86 83 76 84 91 80 49 52 51 57 58 64 67 67 68 75 69 67 63 62 61
82 82 78 76 72 82 77 83 86 74 82 88 95 96 71 67 68 70 70 66 76 79 85 86 80 85 88 91 89 50 52 55 59 62 64 75 71 75 70 67 64 61 60 56
86 81 78 73 72 78 81 80 76 84 80 85 99 98 84 73 79 80 74 77 77 82 85 81 80 84 88 93 72 48 46 57 62 62 66 67 69 70 71 68 66 65 53 44
90 83 80 78 78 78 83 76 81 88 80 99 99 99 98 78 84 83 80 77 92 85 89 80 77 85 90 72 62 57 57 63 65 71 65 66 70 72 77 73 59 51 45 48
86 78 73 91 81 78 78 85 78 92 90 92 97 94 96 90 86 86 86 84 94 94 89 87 92 89 65 62 51 51 58 63 72 84 86 78 76 73 65 54 46 49 52 55
79 82 86 83 73 80 72 93 91 90 89 88 91 95 95 85 95 94 82 98 96 97 94 92 95 91 71 58 50 50 61 70 73 64 68 70 68 63 48 48 52 55 60 61
82 84 80 81 82 94 79 91 90 85 89 88 92 89 89 89 88 91 86 96 94 95 92 96 96 88 71 68 66 61 67 70 54 49 48 46 49 54 57 56 60 66 68 65
77 86 91 95 90 93 86 84 90 94 92 95 95 95 90 90 91 90 90 98 95 86 97 95 83 81 75 78 78 75 77 70 57 52 53 52 60 62 68 66 70 73 66 64
96 90 80 86 94 91 91 92 95 94 95 96 94 95 94 87 94 86 96 82 78 95 99 84 91 78 73 76 79 85 86 76 77 75 67 76 82 81 83 74 74 72 73 71
95 95 89 92 89 95 97 97 96 95 92 94 94 96 84 95 94 84 90 90 98 91 84 89 97 79 78 79 81 82 87 83 79 74 81 88 88 87 86 83 77 78 76 77
93 99 98 88 95 98 98 98 98 96 92 95 95 93 95 94 95 94 93 91 85 79 92 96 84 82 82 82 78 77 71 69 65 64 66 73 74 78 83 77 78 80 84 90
98 98 93 93 96 96 96 92 84 87 93 96 96 90 77 92 97 96 88 89 86 96 96 95 79 82 85 82 74 71 65 61 60 66 65 76 78 91 92 90 82 87 90 93

GFSNW_sfc_rhum_087.txt.gz
RH
81 81 79 80 80 74 76 95 96 94 92 99 99 100 95 84 63 56 57 58 65 67 79 92 84 89 85 66 64 76 72 76 93 71 56 57 68 69 58 81 70 82 87 95
81 81 79 82 83 83 90 98 99 89 92 99 100 94 74 68 62 62 60 60 56 58 78 78 77 74 57 59 64 69 64 76 94 79 64 60 64 54 57 59 72 83 91 96
80 81 80 83 84 81 87 96 99 96 96 96 94 82 70 73 61 59 53 54 53 58 65 68 71 69 64 59 61 66 67 72 82 93 80 74 72 63 59 66 86 85 88 91
80 82 83 86 86 84 88 90 95 90 99 96 98 68 71 73 72 62 50 53 50 50 69 66 69 66 66 61 63 66 64 79 81 64 65 64 68 70 68 74 65 78 80 85
80 84 88 88 86 85 94 94 96 94 91 84 78 68 76 72 70 68 71 74 68 65 73 67 69 62 65 72 59 64 65 79 86 75 60 57 65 65 68 68 64 63 64 71
87 89 90 82 78 84 95 94 87 80 79 81 75 74 74 71 66 66 66 69 72 72 69 67 68 57 56 64 70 65 68 85 94 84 68 64 70 65 70 71 68 69 76 74
86 83 79 77 75 79 92 93 94 83 86 75 72 72 74 76 75 76 70 66 70 65 59 60 64 67 58 58 60 57 63 75 94 89 81 77 60 61 61 64 64 66 65 68
82 81 82 77 75 76 88 92 94 90 86 76 66 67 72 75 76 76 76 68 66 68 73 69 72 70 66 61 63 62 61 68 83 85 85 59 61 62 67 71 74 64 68 68
88 83 80 80 75 77 85 92 93 95 80 86 79 77 71 78 83 80 71 64 67 72 76 64 73 82 76 69 58 53 54 61 74 75 70 64 58 64 60 64 78 64 65 68
86 80 84 83 80 75 81 85 84 91 93 89 85 88 85 81 82 85 79 73 70 72 78 74 79 80 71 76 76 71 75 76 77 78 79 65 63 60 60 71 56 62 65 66
82 82 87 85 82 80 76 79 78 85 94 88 76 73 86 81 85 84 76 75 74 81 77 78 77 78 70 76 69 72 73 81 81 78 82 62 60 68 65 59 70 62 70 74
88 85 88 85 82 77 75 82 79 76 86 83 70 71 70 77 79 88 84 78 80 85 88 82 80 74 75 70 65 73 61 63 70 62 65 56 62 68 73 66 64 74 72 74
89 85 84 82 77 74 72 88 90 89 88 88 83 77 68 64 68 70 88 88 82 81 83 90 83 78 77 75 73 72 72 69 66 60 62 62 58 73 66 70 73 69 70 70
86 85 84 79 75 75 71 85 90 92 89 88 83 60 76 64 65 71 74 76 78 79 87 89 88 83 74 77 70 75 65 69 69 71 62 71 68 66 63 66 68 72 70 69
82 90 85 78 72 69 80 88 89 81 89 89 86 71 66 62 64 69 74 78 82 91 90 93 88 89 82 87 84 91 73 72 72 65 59 61 70 67 67 71 72 72 72 69
82 87 83 72 70 70 80 82 90 83 86 95 94 82 78 69 67 70 71 74 78 87 90 90 89 80 83 93 93 66 67 63 59 59 72 71 72 72 76 74 74 69 67 64
85 83 74 74 71 83 71 71 74 78 90 91 96 98 80 71 73 79 79 75 84 84 90 88 88 88 86 94 94 63 59 62 64 65 66 76 75 77 78 72 70 64 63 60
87 82 77 74 74 76 79 87 79 84 82 94 99 95 88 78 87 86 84 84 86 87 88 87 83 88 90 93 79 66 62 68 68 68 70 70 76 76 75 74 70 70 64 53
90 82 79 85 84 88 88 76 82 93 77 94 99 94 94 84 89 90 87 87 92 90 89 89 82 88 92 70 67 69 58 64 66 74 70 78 78 81 80 78 71 56 50 52
88 83 80 93 89 74 76 83 76 91 92 95 95 96 91 91 92 90 91 92 96 94 88 89 90 88 70 62 67 62 60 64 75 82 85 81 82 84 84 71 55 49 53 57
82 89 90 90 74 81 81 90 84 90 84 91 93 96 94 89 94 94 90 98 98 94 90 88 93 92 83 65 64 57 67 75 74 76 76 72 71 76 68 53 53 56 58 61
82 84 86 88 87 92 74 88 90 85 82 90 92 88 92 89 92 94 89 93 94 90 94 97 97 85 78 70 70 77 83 80 68 66 72 67 64 58 56 57 60 61 65 64
76 87 84 92 88 86 81 80 87 95 94 97 95 93 89 88 92 93 92 94 95 87 98 93 86 80 78 79 76 81 83 69 59 54 55 58 63 62 60 66 69 68 66 66
90 84 79 86 90 91 89 90 89 90 95 96 96 97 95 92 93 91 87 84 82 95 100 83 88 80 77 85 84 85 82 70 74 72 67 71 77 79 79 68 70 68 69 71
87 91 86 92 86 97 97 98 94 95 95 94 94 96 88 97 93 88 89 91 96 89 76 86 93 82 81 87 89 89 83 74 72 74 81 82 82 82 85 82 76 74 73 74
93 98 99 93 94 96 98 98 98 98 95 96 95 94 97 94 94 95 91 87 81 74 92 90 92 80 84 85 87 90 87 80 73 69 66 71 71 72 78 75 76 80 82 86
99 98 96 94 96 91 95 90 91 94 92 94 96 89 74 87 98 98 90 89 83 89 94 97 87 79 83 85 84 82 81 77 72 69 73 74 73 86 90 85 80 86 86 91

GFSNW_sfc_rhum_090.txt.gz
RH
79 79 80 82 81 69 77 87 96 91 94 97 99 100 97 85 82 76 79 65 64 78 89 93 90 90 90 72 75 88 86 83 95 70 59 59 67 75 63 80 73 89 88 95
82 81 81 84 82 79 90 98 98 89 92 97 98 86 89 81 67 66 62 63 60 67 79 84 83 78 62 65 68 77 70 80 94 74 57 61 72 62 66 67 76 88 89 90
84 82 84 85 83 81 88 95 96 95 96 94 95 91 71 73 64 61 56 60 57 63 72 72 78 76 67 62 63 65 66 76 83 88 80 78 77 72 68 68 88 87 92 96
84 84 85 86 84 83 85 94 95 90 98 92 98 96 74 75 78 64 64 64 67 60 74 70 72 66 66 63 64 68 62 77 81 72 68 68 72 74 74 78 76 78 88 89
83 82 80 80 82 80 93 90 93 96 94 87 81 75 79 76 74 74 72 75 72 71 78 81 76 68 70 77 63 71 70 77 86 76 63 60 61 67 72 74 70 76 77 81
76 82 82 79 80 77 95 95 91 82 81 79 83 85 82 74 68 71 72 75 74 73 76 74 72 73 61 72 75 65 73 86 93 77 73 67 62 64 77 78 76 73 78 72
83 82 82 79 80 80 93 95 95 83 84 79 79 77 78 80 80 77 73 70 71 68 68 68 72 70 65 62 68 62 69 81 94 86 77 62 52 68 64 68 72 76 77 82
80 82 82 79 79 73 87 94 92 88 87 89 74 75 82 78 76 80 75 70 68 73 70 67 68 70 62 60 64 70 65 77 84 83 85 52 60 62 68 76 71 70 73 79
85 86 85 84 82 74 88 93 95 91 80 82 86 83 79 82 85 76 71 68 70 72 76 65 74 73 77 68 60 55 60 69 75 81 69 59 53 72 65 65 68 62 67 71
85 86 87 84 82 78 81 84 87 85 90 88 86 87 86 84 85 84 84 76 72 75 78 73 78 82 74 77 77 71 74 79 78 81 80 63 59 64 63 72 40 67 71 71
86 84 87 82 81 78 75 82 86 83 92 88 80 78 86 82 87 84 78 77 74 82 77 80 80 84 73 75 72 71 63 80 83 82 84 60 64 69 58 49 75 65 73 73
84 89 88 82 77 76 76 80 80 80 83 80 73 72 71 76 81 87 87 81 83 89 90 88 88 78 83 75 62 74 74 64 68 64 61 50 68 64 71 65 65 73 73 77
84 89 84 85 76 69 74 87 92 88 87 88 86 81 71 68 73 73 86 90 84 84 85 92 89 81 82 80 77 74 72 74 74 63 56 63 61 74 71 70 73 76 76 73
78 87 85 82 78 70 68 79 90 92 92 88 82 65 78 70 70 76 78 79 82 85 92 91 90 87 78 81 72 79 65 71 71 73 64 70 64 70 69 72 75 75 74 74
82 87 89 85 77 72 83 90 89 86 84 87 86 79 71 67 68 72 79 81 86 93 91 94 88 91 88 89 89 93 78 73 68 62 54 56 63 67 69 75 78 77 73 72
84 81 84 79 76 74 84 79 91 84 90 94 92 85 80 76 76 77 76 80 82 91 92 91 92 83 83 92 93 70 71 72 62 54 74 68 74 72 73 74 77 77 74 68
85 85 78 79 77 84 78 71 72 80 90 89 89 95 85 79 79 84 83 82 87 87 91 92 91 89 90 94 93 60 65 64 68 72 71 78 77 72 77 74 72 67 67 64
88 86 78 74 75 73 82 87 82 82 88 91 96 93 86 83 87 87 90 88 91 89 89 92 87 88 93 96 78 78 70 75 73 73 78 71 78 80 80 77 72 70 66 56
92 86 76 85 88 89 88 77 82 91 74 89 98 88 84 86 90 92 89 90 93 91 92 91 86 88 90 72 68 69 70 71 69 76 83 85 83 82 81 79 76 71 56 52
89 81 82 91 90 76 74 80 78 89 90 96 94 96 95 90 94 91 93 93 96 95 87 91 95 92 74 67 70 63 64 67 77 81 86 86 87 88 87 81 70 54 51 56
88 91 91 87 78 81 83 89 84 88 85 89 90 96 95 91 92 94 92 96 98 95 86 92 92 91 83 73 72 69 68 69 74 76 77 75 76 84 86 70 55 54 57 58
85 86 88 88 86 90 76 89 89 89 83 93 94 93 92 92 93 94 92 91 94 93 94 97 96 83 74 79 71 74 81 80 74 70 74 73 73 76 69 57 60 59 61 63
79 85 85 87 88 86 85 79 89 96 94 97 97 96 90 91 93 95 91 93 95 88 97 93 84 74 72 80 77 83 85 78 66 65 68 64 64 62 61 64 65 65 64 66
89 84 80 84 94 93 87 85 88 87 95 97 95 98 95 94 94 90 85 80 83 95 100 78 87 70 77 84 83 84 81 69 77 76 70 73 77 77 74 67 67 62 64 69
88 91 88 92 86 97 96 97 95 97 95 95 94 96 86 97 94 90 90 93 95 88 76 84 83 75 82 83 87 86 84 71 66 69 77 84 84 83 87 79 75 70 72 71
94 98 99 91 96 98 99 98 95 97 94 97 93 96 95 92 94 95 93 87 80 72 90 86 87 78 78 84 88 88 85 77 71 70 69 73 74 74 75 78 76 79 78 84
100 99 93 91 92 93 95 83 83 94 91 92 95 87 74 90 98 98 87 86 81 84 88 94 89 79 76 83 87 90 91 86 78 74 74 78 74 88 89 80 79 84 86 90

GFSNW_sfc_rhum_093.txt.gz
RH
81 81 83 82 83 68 78 90 93 80 92 95 94 100 96 83 78 77 80 74 68 80 90 88 87 92 86 75 84 94 87 86 96 72 64 66 72 79 78 86 77 87 81 92
84 83 84 84 82 72 91 97 97 86 89 97 97 86 88 88 74 73 66 65 61 73 85 90 84 81 67 74 76 82 76 84 94 63 55 62 75 71 72 72 79 87 87 82
84 83 83 83 81 79 89 92 92 92 97 94 95 96 81 77 69 67 62 64 60 69 82 79 83 80 69 66 65 65 66 81 83 88 80 79 76 72 74 73 89 87 90 95
75 77 81 82 81 80 83 95 94 92 98 90 95 94 79 79 81 72 68 69 76 69 75 72 76 69 65 67 63 78 65 76 84 76 70 72 70 75 78 86 85 80 84 88
76 78 82 83 83 76 92 89 89 94 93 90 79 81 82 78 77 77 75 77 73 73 81 85 83 79 76 78 68 76 74 75 86 80 67 68 66 61 75 79 79 78 82 82
77 79 80 83 82 75 95 97 93 83 79 82 84 88 83 77 73 77 75 79 75 71 76 76 74 75 74 72 76 70 76 86 92 76 76 69 60 61 78 79 81 79 78 77
81 83 80 82 78 79 90 95 95 81 84 86 86 79 79 80 82 80 72 70 72 70 71 79 80 80 66 68 74 66 74 84 93 88 71 69 46 68 64 72 72 78 81 82
84 86 85 80 73 73 86 95 92 85 87 91 78 79 81 77 78 80 78 73 70 76 69 66 64 71 62 65 70 74 68 80 85 85 85 51 64 61 70 73 65 68 78 83
88 87 89 83 76 72 87 94 96 86 79 76 85 86 86 86 87 70 69 74 72 72 72 66 72 68 76 62 62 64 68 73 77 82 70 51 53 73 72 64 52 67 72 79
86 87 90 88 81 69 80 88 90 83 85 88 87 85 84 86 88 87 84 80 80 76 78 72 77 84 76 72 74 69 70 80 81 83 85 63 58 69 68 59 33 69 73 74
83 85 89 89 87 74 78 89 90 80 89 87 78 77 86 87 90 86 79 78 77 84 80 81 83 86 79 83 71 72 58 76 84 84 85 59 68 72 56 44 76 74 78 76
82 87 89 88 88 80 72 84 84 80 81 78 75 75 75 74 79 87 88 80 84 90 90 91 91 81 87 77 69 70 74 63 62 67 60 48 68 60 68 66 66 72 74 74
82 88 86 88 81 73 73 86 93 87 88 90 89 82 71 72 76 76 84 91 84 87 88 92 92 89 84 85 81 76 71 75 76 65 56 63 61 71 72 71 70 73 74 75
75 85 85 85 81 73 69 79 93 92 89 88 81 70 78 73 75 78 81 81 84 87 93 92 92 89 80 85 72 78 64 74 76 76 66 69 62 66 69 70 77 78 78 79
83 82 86 85 78 71 85 89 88 90 84 85 84 80 75 72 75 78 83 82 88 94 94 96 92 91 90 92 92 96 79 72 67 62 54 54 53 72 70 75 77 76 73 74
85 81 82 81 76 75 85 80 90 86 93 94 91 84 83 76 77 77 83 89 89 93 93 93 93 87 85 93 93 70 78 75 62 54 70 68 79 79 79 77 78 78 74 70
85 86 83 77 76 87 83 75 77 82 91 90 86 93 87 80 80 88 88 85 91 90 92 95 92 89 90 95 92 58 63 66 71 76 75 78 78 73 77 78 78 75 73 70
85 89 83 76 73 77 84 87 82 83 86 89 94 90 85 83 87 89 93 91 92 91 89 93 92 90 95 97 83 77 70 70 71 71 74 73 79 83 83 82 74 73 69 60
88 91 79 85 88 89 86 77 79 90 74 88 96 88 83 87 92 93 92 93 94 91 94 92 88 92 95 78 74 73 71 70 74 83 84 86 83 84 84 78 76 74 68 56
91 83 85 92 92 75 73 81 79 91 87 96 94 96 95 91 94 92 94 94 96 95 90 93 98 94 74 71 71 74 70 69 81 83 88 88 87 87 86 81 77 71 59 55
87 94 94 90 78 80 82 89 89 89 87 90 90 95 95 91 92 93 93 96 98 96 88 94 95 91 80 71 77 76 73 78 75 74 74 76 79 83 85 84 73 55 55 58
88 87 86 85 85 91 81 91 88 92 82 95 95 96 91 94 93 94 94 93 94 92 94 97 99 83 68 72 75 76 86 84 82 73 71 76 71 82 83 73 61 59 60 63
76 83 85 90 88 88 94 90 90 98 95 98 98 98 90 94 93 95 91 95 96 89 98 94 86 71 65 69 82 79 87 81 76 77 79 74 80 79 70 65 67 70 68 68
85 84 84 88 96 95 89 89 91 89 96 95 95 98 92 94 95 89 88 81 85 97 100 79 85 62 54 76 84 83 84 78 80 80 75 77 79 76 75 68 71 66 68 72
86 87 87 92 84 96 97 97 97 98 95 96 94 96 86 98 93 91 90 94 98 90 80 84 82 55 73 77 83 86 86 81 74 76 81 84 83 83 86 82 74 69 73 74
92 98 99 90 96 95 97 99 94 98 93 97 92 97 94 91 92 97 92 88 86 78 90 86 78 66 73 72 80 87 87 84 72 69 70 74 78 79 80 84 83 81 78 82
100 99 96 94 96 94 92 85 78 94 91 91 96 87 74 91 98 96 87 88 82 86 87 94 80 68 64 72 79 87 90 87 78 74 76 80 78 88 92 88 82 87 88 90

GFSNW_sfc_rhum_096.txt.gz
RH
81 82 83 82 83 72 80 92 91 82 89 95 97 98 95 82 79 79 80 74 73 84 90 82 87 92 84 74 85 95 86 92 98 73 67 66 77 81 83 90 79 89 85 92
84 84 83 82 81 75 88 95 94 85 85 96 98 86 88 87 75 73 71 69 68 81 87 88 90 86 68 76 83 85 82 86 95 62 57 66 76 72 76 79 83 86 91 83
80 78 79 79 78 76 87 90 92 91 96 94 94 94 84 79 73 74 68 73 64 76 81 84 84 82 70 74 76 67 64 82 82 84 74 81 76 72 79 79 91 86 87 89
79 81 81 82 81 75 81 94 94 92 96 90 89 89 82 81 84 74 70 70 78 79 80 79 80 75 67 70 62 80 68 77 86 76 76 75 69 66 79 88 84 75 80 85
80 84 83 84 83 74 93 89 90 93 91 88 82 85 87 83 78 78 77 76 73 76 81 84 82 85 78 77 70 78 77 77 87 88 67 73 70 66 76 83 82 84 86 80
82 88 88 85 81 73 94 98 94 78 82 85 87 91 86 84 82 80 77 82 78 79 80 76 74 77 80 78 77 72 77 85 92 81 70 69 60 60 77 80 80 75 77 72
82 86 90 87 80 76 86 96 93 78 83 89 88 86 84 82 85 83 76 78 77 73 79 82 85 84 79 77 73 72 76 83 93 90 68 59 45 72 73 74 70 76 80 79
86 84 89 89 83 74 89 96 88 83 86 90 80 83 86 79 79 81 81 76 73 80 70 66 64 67 64 73 72 73 73 81 85 85 87 49 62 65 72 74 61 73 76 82
87 87 88 88 88 75 90 95 94 82 76 70 80 85 87 88 90 75 73 75 76 69 71 66 70 62 75 62 59 77 71 77 77 83 71 49 38 73 74 62 49 69 76 80
83 86 88 87 89 76 83 90 91 81 80 86 84 83 80 86 89 87 83 81 82 77 79 72 75 83 78 73 77 69 69 81 81 84 84 66 56 70 69 58 30 72 75 78
82 84 88 87 89 82 81 89 92 87 86 84 84 78 84 90 92 84 76 74 77 83 77 80 82 87 81 86 74 70 60 71 82 86 86 60 66 73 53 42 76 73 77 77
82 85 91 88 85 76 75 85 86 82 85 78 81 78 79 77 78 86 88 77 82 86 88 92 92 84 90 80 70 73 73 59 53 66 61 47 68 57 67 65 64 72 74 74
82 80 88 84 81 72 73 88 94 88 88 87 86 79 79 76 79 80 85 91 85 90 87 92 92 89 85 86 87 79 71 77 73 68 59 64 60 69 70 69 66 71 74 76
80 77 85 88 79 71 68 80 93 93 90 90 80 73 80 79 78 82 82 83 87 89 94 92 93 90 78 84 73 75 60 76 75 80 66 69 62 65 67 71 72 76 79 78
80 83 84 83 77 72 86 88 90 92 87 87 83 81 80 78 79 82 85 83 88 94 94 96 93 92 89 93 94 97 78 69 67 58 51 50 47 63 70 72 75 76 76 79
82 85 86 83 80 76 82 82 92 88 92 94 91 85 85 82 81 82 88 91 91 94 94 94 94 88 87 94 94 70 81 76 64 56 71 64 71 75 80 79 78 79 75 71
82 84 87 80 79 90 86 78 74 84 92 90 87 92 88 81 82 90 91 87 91 93 92 97 93 90 92 95 95 64 63 66 71 76 77 73 75 68 78 78 78 76 74 70
82 84 89 82 73 75 83 86 81 86 85 89 91 87 85 81 89 90 94 93 94 92 93 94 94 92 96 98 80 81 76 75 76 73 78 74 82 82 84 85 85 81 77 71
85 89 81 84 91 93 87 78 79 89 75 90 95 90 83 89 93 94 94 93 96 92 95 94 90 94 97 79 80 75 70 69 70 83 83 82 81 82 85 84 81 79 74 65
90 87 89 95 90 76 73 82 83 91 88 95 94 95 94 92 95 95 94 95 96 96 92 94 99 94 74 70 73 72 73 76 80 84 88 87 85 87 87 85 82 79 75 64
91 97 97 90 79 80 82 92 91 90 88 89 92 93 96 91 94 93 91 96 97 98 90 95 96 95 84 69 72 74 78 80 83 78 75 78 79 85 87 87 84 78 68 60
90 88 84 86 84 92 86 93 89 92 84 93 96 93 90 94 94 95 98 96 95 96 94 98 98 85 70 69 70 67 78 86 88 86 75 73 80 83 86 86 85 69 61 63
76 82 85 89 88 93 99 99 94 98 93 98 98 98 92 95 94 95 95 97 97 91 99 95 86 72 65 64 68 76 82 86 86 80 79 82 82 88 87 83 72 67 71 73
94 89 89 90 96 94 89 91 89 86 94 96 96 98 95 94 96 92 91 84 87 98 100 86 88 70 52 60 76 83 81 84 87 88 82 84 90 89 82 74 72 70 70 72
98 91 90 93 83 96 96 96 95 95 93 91 94 96 88 98 94 92 88 93 98 93 83 85 86 57 54 68 71 83 84 84 81 80 86 90 87 84 86 81 75 68 69 75
100 98 98 89 94 96 100 98 97 96 88 94 90 95 92 89 92 97 92 89 86 80 92 89 74 54 64 66 67 79 85 86 81 72 72 74 78 78 81 82 79 76 76 80
100 98 94 93 96 95 93 88 84 86 87 89 91 84 74 91 98 97 86 87 83 88 90 95 77 58 55 60 66 76 86 88 86 78 74 79 78 87 90 86 83 85 84 84

GFSNW_sfc_rhum_099.txt.gz
RH
80 80 80 79 82 81 78 88 92 77 86 93 98 96 89 80 79 81 80 72 76 85 89 88 92 89 81 72 84 93 87 84 98 76 66 63 71 73 76 87 79 84 81 76
84 85 83 80 81 78 84 92 91 82 84 95 99 86 89 88 78 79 70 70 72 82 87 87 89 84 68 80 87 86 86 87 93 62 56 63 72 71 72 77 78 82 82 70
84 86 86 85 82 77 84 89 90 90 95 94 90 89 85 79 72 74 72 75 68 78 81 82 85 78 72 80 82 70 70 82 80 80 64 77 79 69 75 80 85 75 78 81
82 86 89 87 84 75 81 93 93 92 93 86 88 88 85 83 85 76 72 74 79 81 80 78 80 76 68 72 64 80 71 82 86 78 75 74 76 67 67 80 73 68 64 85
79 86 89 87 84 77 91 87 90 93 92 87 84 85 87 87 83 81 77 77 77 79 81 81 82 85 78 78 71 79 78 82 88 89 71 69 73 68 66 75 76 79 80 78
83 86 89 89 81 80 93 98 94 75 82 86 87 91 87 84 87 79 80 82 80 78 79 77 75 75 78 80 79 73 78 84 90 81 68 66 66 64 65 70 73 67 76 61
86 86 88 88 83 82 93 95 90 73 81 88 87 86 85 82 83 83 77 80 79 69 83 85 87 89 87 85 78 74 77 82 91 92 67 52 40 67 63 65 65 72 73 70
84 87 87 87 84 79 90 97 87 79 81 87 82 83 85 80 80 81 81 74 72 81 73 67 61 64 63 74 76 79 75 80 84 85 84 44 46 52 65 66 48 66 73 72
83 86 88 88 83 75 88 96 96 84 75 68 74 81 86 83 86 77 68 75 79 75 73 65 67 55 70 61 60 81 76 78 78 83 70 43 28 65 67 57 46 53 71 75
82 83 87 90 87 76 83 92 91 86 80 82 82 83 80 85 90 85 83 78 81 77 78 68 72 77 77 73 73 60 68 80 85 84 82 62 49 66 61 49 24 63 72 76
81 82 88 91 86 77 79 89 92 85 89 83 84 79 82 90 90 81 68 68 72 83 72 75 80 86 79 86 76 68 56 73 83 87 88 59 63 70 48 39 68 63 71 73
81 82 87 89 85 75 74 84 88 85 87 79 82 80 79 78 76 85 88 72 80 84 82 88 91 85 92 79 63 76 66 54 48 60 53 45 67 54 60 53 57 63 67 69
79 80 80 86 80 71 72 88 94 90 91 88 87 78 81 79 78 80 83 91 87 88 89 91 90 88 86 87 88 80 69 74 70 62 56 62 55 58 68 65 64 65 69 69
77 79 81 86 81 71 67 79 93 94 93 92 81 75 82 80 82 82 82 84 90 90 94 92 93 89 79 82 72 76 57 73 73 78 63 61 56 62 59 66 68 67 72 71
77 81 84 80 82 75 88 89 90 92 89 91 88 80 82 82 83 82 84 84 88 94 94 96 93 93 90 92 94 98 76 68 63 56 50 47 46 57 68 71 71 74 74 78
80 83 85 85 78 76 83 84 91 89 92 94 91 84 87 86 84 87 89 90 92 94 94 94 94 88 88 94 95 74 82 75 61 53 65 60 59 68 74 75 75 77 79 74
80 82 86 86 78 90 87 82 74 85 92 87 88 90 88 83 85 92 92 90 94 93 93 98 93 91 93 96 88 64 65 68 71 72 79 74 72 66 75 77 78 78 79 75
79 82 87 87 74 76 84 89 82 85 83 88 92 87 81 85 91 92 95 95 95 94 94 95 96 94 97 98 79 79 69 73 76 76 78 73 80 82 83 85 88 84 82 77
82 86 83 88 92 94 89 80 80 88 76 89 94 90 82 90 95 95 95 94 97 94 96 96 93 94 98 82 79 76 75 70 68 76 79 83 84 79 83 86 87 84 84 77
88 88 95 97 93 75 79 85 87 92 89 94 95 94 90 92 96 96 95 96 97 98 92 96 98 92 77 70 75 73 72 74 79 84 84 86 87 85 85 88 85 83 82 73
93 99 98 93 78 82 84 94 94 93 93 89 92 89 95 92 93 94 93 97 97 99 92 98 96 96 86 75 77 78 80 80 81 81 79 79 80 82 85 86 85 82 78 69
90 89 82 81 82 93 89 95 92 94 89 94 94 91 90 95 94 94 98 96 97 99 96 99 98 88 74 72 70 72 68 76 81 85 84 84 76 81 84 86 87 85 76 65
93 90 89 92 90 98 100 98 97 98 94 97 99 98 91 98 95 96 96 98 97 91 99 96 87 75 68 64 64 66 79 86 85 83 87 80 78 83 86 86 86 78 70 68
100 99 98 94 96 96 91 91 92 90 96 96 96 98 95 92 97 91 94 87 89 100 100 90 90 74 63 54 70 80 79 82 88 90 87 84 88 89 91 85 80 70 68 71
100 100 96 97 85 96 96 97 92 93 89 90 94 96 88 98 96 91 89 95 99 92 84 87 88 66 53 56 62 69 80 80 80 80 86 90 92 92 88 84 76 69 68 72
99 99 100 91 95 96 99 98 95 94 85 89 91 94 95 89 93 98 93 88 84 79 91 89 81 54 55 60 60 64 75 78 77 75 73 74 80 82 81 78 78 74 72 75
99 98 96 94 96 94 95 81 82 86 81 91 92 91 78 92 98 97 87 87 84 86 88 94 80 57 55 60 59 64 77 83 83 82 74 74 75 84 89 83 78 79 77 78

GFSNW_sfc_rhum_102.txt.gz
RH
85 83 83 80 84 78 61 62 92 63 70 85 85 93 74 74 64 62 58 53 57 58 63 62 65 63 61 54 64 68 67 68 84 60 50 48 53 54 51 67 69 59 58 53
86 85 85 83 84 76 57 74 77 64 62 91 84 67 68 63 60 61 55 57 58 60 64 64 62 63 53 60 64 62 64 70 78 56 51 51 55 53 51 58 61 66 61 45
84 86 87 84 82 77 58 61 94 71 75 75 64 62 64 63 60 58 56 55 52 56 57 57 60 58 59 62 62 70 62 62 62 50 46 50 57 52 54 59 70 49 46 45
80 84 88 85 78 80 59 61 80 76 82 58 63 60 64 64 66 55 51 51 58 57 53 51 54 54 49 61 61 61 58 72 67 53 48 53 54 52 49 67 52 54 38 51
83 84 87 87 80 73 67 56 67 70 63 65 59 64 66 68 64 62 54 54 56 52 51 53 51 56 48 47 49 56 59 75 63 80 50 55 59 49 47 46 49 56 50 51
85 86 87 87 82 69 64 79 67 49 67 60 49 60 62 63 67 59 58 58 55 50 54 53 50 50 52 52 52 51 58 64 72 64 45 44 46 38 42 43 46 44 50 35
84 86 88 88 82 73 63 74 58 45 48 52 54 63 64 60 62 63 55 56 55 54 55 58 58 60 61 60 57 52 55 59 71 80 48 50 28 42 43 42 42 44 45 43
83 86 87 88 81 75 64 73 64 51 46 55 59 63 60 58 56 60 61 51 53 56 49 48 42 42 46 50 56 56 52 53 61 65 48 28 29 35 43 42 28 32 42 41
83 84 87 88 82 74 64 75 75 58 47 42 50 55 61 50 51 52 51 52 55 50 48 45 43 32 40 38 43 55 58 56 55 54 51 22 17 38 42 42 31 32 43 41
80 83 88 90 83 76 65 72 77 59 57 52 56 52 52 60 61 52 56 54 60 53 47 42 43 43 51 42 42 49 55 57 64 56 51 33 27 45 42 33 16 32 45 43
77 81 85 90 85 75 67 74 76 65 62 58 63 59 61 68 63 50 51 54 56 56 49 48 44 50 43 54 44 38 36 44 50 53 58 54 40 53 37 26 31 41 49 49
76 80 82 87 84 75 69 66 72 66 65 61 63 59 57 55 54 55 68 54 58 53 47 54 52 52 56 46 31 46 43 31 28 37 30 31 42 36 34 32 36 43 45 47
76 77 79 85 80 71 66 68 74 71 68 62 62 58 58 62 59 57 58 65 65 69 63 54 56 59 51 47 50 49 41 42 41 40 27 37 31 29 38 39 40 40 43 43
75 75 79 83 81 72 65 67 74 73 70 74 60 60 61 61 63 64 63 65 71 68 67 64 60 57 52 47 45 45 29 46 40 41 35 32 32 35 33 35 42 44 45 46
76 77 80 84 82 77 79 78 74 76 70 71 68 63 66 65 65 66 66 66 69 69 75 76 69 60 62 58 66 62 43 39 40 34 26 27 27 33 44 46 46 47 48 54
82 80 82 85 79 77 74 74 78 75 77 78 76 67 70 69 69 71 72 71 70 70 70 70 67 70 63 69 62 46 47 39 31 31 34 34 37 42 45 47 46 50 52 50
83 80 82 86 80 78 75 74 70 76 80 72 84 82 71 65 68 73 73 76 73 71 73 78 70 70 78 75 61 39 43 44 44 43 47 48 49 45 50 53 55 60 58 55
83 79 82 87 80 76 77 76 79 76 69 76 94 88 65 68 74 74 75 74 74 75 72 75 77 75 78 86 57 51 49 46 48 46 49 45 53 57 55 62 65 64 61 57
85 83 83 83 84 83 75 80 78 77 72 91 87 88 85 76 77 76 79 73 83 73 78 76 77 75 95 69 57 55 55 58 54 55 57 56 62 58 60 63 65 64 61 59
90 89 94 98 81 75 82 75 79 83 81 82 88 81 82 77 81 81 80 79 78 94 71 77 87 79 64 57 56 56 54 57 57 64 72 70 74 67 61 66 61 62 62 61
97 98 97 84 76 71 72 88 89 83 90 80 80 82 81 75 85 79 75 90 87 94 83 85 84 80 69 58 56 54 56 54 55 54 56 54 57 63 64 67 66 66 65 64
93 91 82 76 77 85 91 92 85 92 88 81 82 77 73 80 79 77 89 87 90 97 80 93 93 76 63 58 58 57 54 53 53 57 59 61 62 64 67 68 68 69 68 64
97 96 99 97 92 97 100 99 97 95 84 89 89 89 78 87 83 83 83 99 93 76 92 86 72 61 54 50 50 51 64 66 69 68 69 71 69 65 70 72 74 72 69 62
99 100 98 96 98 92 89 85 87 78 82 87 81 89 82 80 87 79 92 74 78 96 99 86 77 63 50 48 49 53 54 68 81 83 75 78 84 80 81 79 71 68 63 58
100 100 97 97 82 86 86 90 81 82 78 79 80 86 72 87 90 82 84 91 97 83 79 76 74 56 49 39 46 47 56 61 64 68 79 84 83 83 79 78 76 67 60 58
100 100 100 89 91 92 92 92 87 86 80 80 79 84 87 86 84 93 94 83 84 78 88 76 58 46 43 43 45 48 54 57 58 59 61 65 70 74 74 70 75 70 64 64
99 99 95 87 88 88 79 69 68 78 79 87 87 91 82 86 88 90 79 86 80 86 83 76 66 54 47 50 48 50 57 62 65 64 63 69 68 74 80 76 68 72 69 67

GFSNW_sfc_rhum_105.txt.gz
RH
82 81 84 83 84 80 65 50 86 50 62 75 60 87 64 66 54 50 48 45 46 46 50 51 50 51 51 48 53 56 53 55 67 51 45 45 47 49 42 59 61 53 54 51
85 83 81 79 79 80 54 44 52 46 45 87 73 52 56 52 51 53 48 51 50 50 51 52 48 51 47 50 55 52 50 58 72 54 48 46 53 44 43 44 53 62 56 42
85 86 86 82 77 78 54 45 90 52 48 56 48 50 52 56 53 49 46 47 45 46 45 44 49 49 54 51 53 68 58 52 56 56 45 42 45 43 44 49 67 44 40 30
82 86 88 84 79 75 55 48 66 61 68 46 45 46 50 51 54 44 42 42 46 46 40 40 42 44 46 55 64 55 52 63 61 49 41 39 42 44 40 56 53 50 30 35
83 85 89 87 83 79 51 46 47 50 44 49 41 51 51 52 53 49 44 42 43 38 40 44 43 44 38 38 44 46 50 66 56 79 40 44 49 40 39 40 39 41 38 40
83 86 89 89 82 67 50 54 47 44 57 42 37 40 45 51 54 52 45 45 44 40 45 45 41 41 41 41 41 42 47 57 64 61 38 37 40 30 34 37 33 34 39 28
83 85 88 90 83 74 48 55 50 42 35 39 40 47 48 46 48 51 44 46 45 46 45 43 50 47 46 44 46 43 46 52 59 79 48 54 26 32 36 31 29 28 32 29
82 84 87 88 83 74 52 55 50 45 34 39 41 46 46 43 43 50 50 43 44 43 44 40 35 40 44 45 47 48 45 47 57 67 42 28 20 29 37 39 27 25 32 29
78 83 87 89 83 76 54 60 62 46 43 35 41 41 45 40 34 36 42 44 45 47 39 37 38 26 31 33 42 44 48 48 53 43 48 25 20 29 32 34 30 21 26 26
75 80 85 90 85 76 62 61 67 56 48 40 41 36 40 46 44 39 41 42 50 48 38 36 32 33 40 34 34 53 54 52 63 56 54 34 23 34 36 33 23 25 28 30
75 77 82 88 88 80 67 63 63 67 53 45 50 47 48 53 47 37 44 46 52 48 46 37 33 38 31 40 28 29 32 41 47 43 48 60 34 44 32 25 28 32 36 36
75 75 79 85 87 79 68 59 60 56 64 54 50 43 42 42 40 45 52 48 44 41 40 39 37 38 35 31 25 30 37 24 23 28 30 28 34 25 28 29 30 34 36 37
75 75 74 83 84 77 71 63 66 66 64 55 60 54 47 49 50 44 46 49 51 55 54 45 43 51 36 36 34 29 29 25 35 29 21 24 24 24 28 33 34 31 34 35
78 74 73 80 82 79 74 72 65 68 64 73 52 51 55 50 51 52 49 54 59 56 56 54 53 47 38 37 31 38 26 35 33 30 26 25 24 24 25 26 29 34 35 36
83 77 76 78 83 81 77 74 66 65 69 73 60 52 55 55 55 59 57 57 57 57 68 70 64 47 54 43 48 52 31 34 36 30 23 22 23 28 34 37 38 39 40 40
88 82 78 81 83 75 66 68 67 61 67 77 75 63 63 63 60 62 63 62 60 60 63 63 55 58 53 58 47 31 32 29 26 26 30 28 28 34 35 41 39 40 43 43
91 84 80 82 86 76 69 66 63 67 66 65 84 77 67 62 65 66 68 67 65 65 67 69 58 63 69 67 53 27 32 32 33 31 34 43 41 41 42 43 44 50 50 45
92 83 80 83 84 82 79 69 75 67 63 66 99 92 61 62 68 68 65 69 70 70 67 67 71 66 71 78 49 38 32 35 36 37 38 40 40 46 48 48 51 58 59 56
92 84 84 84 83 81 72 81 77 71 69 92 90 94 92 69 70 68 73 68 81 67 78 70 70 68 92 66 55 46 43 48 47 50 46 44 49 49 48 50 54 59 54 55
89 89 92 93 80 76 82 79 79 81 75 78 90 74 86 69 70 74 70 72 77 92 70 70 81 78 58 48 48 46 44 46 49 61 70 69 71 64 51 52 53 55 56 60
95 97 95 78 74 71 70 88 90 79 93 76 76 79 76 66 82 73 68 92 83 93 85 82 80 76 58 47 47 45 42 44 46 48 50 51 52 53 51 56 59 62 66 69
92 92 84 79 83 89 97 96 86 92 88 72 77 71 64 67 67 72 80 88 86 95 77 87 90 72 58 52 54 46 44 47 51 51 52 47 50 51 58 61 64 68 68 69
95 95 100 99 93 100 97 97 94 92 80 84 81 86 65 73 75 73 79 96 91 68 86 80 72 60 49 41 41 47 59 58 58 60 61 62 64 64 65 70 73 69 68 67
100 100 100 99 98 93 86 79 89 75 79 82 74 82 75 67 83 70 94 68 69 88 97 80 71 60 52 43 47 46 40 61 80 85 76 78 88 83 81 75 69 66 67 65
100 100 99 98 82 88 89 98 85 79 70 76 78 82 65 85 88 73 84 84 94 77 75 79 78 57 48 41 41 42 45 51 59 64 81 87 88 86 80 78 74 69 68 63
100 100 100 92 98 99 92 93 92 82 74 75 79 90 88 87 84 87 90 78 81 84 93 79 58 49 44 41 42 43 42 51 56 57 57 65 73 74 74 69 74 76 72 68
100 100 90 87 86 84 77 64 59 67 78 90 91 97 89 83 85 83 72 83 86 92 86 77 62 58 54 49 46 48 50 51 60 60 63 66 66 77 85 76 66 77 76 72

GFSNW_sfc_rhum_108.txt.gz
RH
85 85 84 84 83 84 73 74 97 76 73 91 73 96 64 66 53 52 51 51 52 52 52 48 56 58 58 54 58 56 63 71 88 70 57 52 61 63 58 82 81 78 76 79
87 86 86 84 82 81 71 65 68 68 78 97 90 60 58 54 53 54 51 55 53 52 56 63 55 57 52 56 62 70 63 75 90 76 62 57 64 56 56 52 72 85 88 72
86 86 87 86 81 79 79 66 96 75 64 67 61 61 56 60 60 52 47 48 48 48 49 50 57 58 61 57 60 71 68 66 75 87 72 54 63 54 54 60 93 80 69 57
83 86 88 86 81 82 77 66 80 73 91 61 57 58 56 56 58 52 47 50 50 50 49 46 52 53 58 62 69 70 66 79 75 66 57 55 54 52 52 64 64 78 54 50
82 86 89 87 81 83 69 72 68 63 54 52 56 59 58 55 56 55 49 48 46 42 49 50 52 51 49 50 62 63 62 81 77 89 56 52 60 52 47 47 51 56 56 56
82 85 90 90 83 78 68 66 58 58 64 50 51 56 54 55 60 58 50 52 53 50 57 55 55 55 52 54 55 54 59 77 82 86 61 61 65 45 44 49 46 45 55 43
79 84 90 90 83 80 74 72 68 64 54 48 51 51 54 53 56 65 51 53 57 63 50 50 58 64 57 55 56 54 60 68 80 94 78 81 42 43 50 42 37 40 38 38
76 82 87 89 85 77 73 71 77 65 62 47 47 49 51 48 49 58 57 52 56 53 58 63 54 63 63 58 58 59 58 66 85 93 80 51 35 49 48 51 41 36 35 39
77 80 87 88 85 78 76 81 80 76 67 52 44 48 53 56 50 54 53 56 55 66 59 54 66 47 52 63 65 55 56 63 81 75 73 59 38 40 43 45 44 36 34 39
78 77 83 89 86 78 81 82 78 86 78 55 51 52 56 56 59 56 55 54 68 65 64 63 54 59 52 56 61 79 82 83 90 89 83 62 41 41 46 51 34 38 40 40
77 77 78 87 86 80 78 82 76 86 87 74 56 55 61 65 64 53 62 67 71 69 71 57 55 60 50 61 42 54 64 77 82 78 78 76 46 54 41 35 45 45 49 49
77 78 76 83 86 81 79 79 69 67 86 77 62 56 58 61 66 69 63 68 55 60 67 63 58 61 52 48 49 43 48 36 43 52 58 42 48 41 42 37 41 47 50 51
80 76 75 76 84 80 80 86 80 84 87 81 78 71 61 56 60 59 74 67 68 67 80 78 68 76 61 62 54 56 40 34 49 39 31 26 37 41 40 41 45 43 44 47
85 77 76 75 81 82 81 92 83 86 82 93 74 57 67 63 60 63 65 68 68 71 78 82 81 75 54 59 50 48 43 46 47 46 34 30 28 28 33 34 39 42 44 47
90 83 78 77 79 83 86 89 85 78 87 94 86 64 70 64 65 68 69 69 74 81 89 93 90 76 68 69 72 59 44 37 45 36 34 35 37 41 46 46 52 50 51 54
93 87 80 78 82 80 86 94 82 73 80 94 97 77 77 76 74 75 77 77 80 85 84 90 82 76 73 87 80 52 46 34 30 35 35 38 46 46 53 53 51 51 54 56
95 90 83 80 83 92 88 92 83 71 82 88 94 96 79 79 82 81 84 81 88 89 90 90 85 85 81 94 71 44 41 40 39 35 48 50 52 49 50 52 56 60 67 66
97 90 83 81 83 89 94 88 80 79 87 82 99 98 84 82 88 91 83 89 88 92 93 88 87 88 92 97 69 61 50 43 49 50 49 49 58 60 60 61 63 69 72 73
96 87 84 88 93 89 94 80 78 88 88 100 100 99 97 83 88 89 91 88 88 86 93 89 90 93 97 80 70 64 59 57 61 65 65 60 58 60 61 62 66 72 74 73
89 88 86 89 92 78 84 92 94 96 93 95 99 95 98 89 90 91 90 91 88 89 89 89 92 88 71 61 58 55 58 60 62 76 74 74 76 73 69 66 63 66 70 73
93 95 95 88 74 85 89 98 94 93 98 94 95 95 96 84 96 94 87 98 89 94 95 96 95 94 79 62 61 55 60 61 65 66 67 64 70 71 69 64 65 70 74 79
93 92 83 83 90 99 99 98 97 95 91 93 94 91 91 90 88 94 92 97 94 95 94 92 95 86 71 62 62 64 60 56 58 62 66 67 64 63 68 70 74 77 79 80
93 95 100 100 98 100 99 96 94 94 95 95 94 96 88 91 92 93 94 99 94 85 97 94 88 80 66 65 53 53 64 68 67 67 69 71 74 74 72 76 78 80 81 79
100 100 99 99 98 96 93 92 96 95 96 96 94 96 92 85 93 87 100 87 85 97 95 92 92 80 69 63 57 59 52 58 80 88 84 80 90 88 87 81 78 77 78 78
100 100 98 96 91 97 98 99 95 94 90 93 94 97 89 97 98 91 94 92 96 94 90 92 93 73 62 53 45 47 51 54 62 67 79 90 91 93 88 82 81 80 80 79
100 100 99 96 99 98 98 98 98 95 91 94 96 94 97 96 96 98 96 94 91 84 92 91 86 63 58 56 50 46 48 50 57 64 65 68 74 80 82 78 80 81 82 80
100 98 92 94 96 96 97 94 90 83 93 97 98 99 92 98 98 98 90 91 86 92 94 94 78 67 63 60 56 51 51 50 53 60 66 70 72 88 89 81 70 76 79 82

GFSNW_sfc_rhum_111.txt.gz
RH
84 86 84 81 82 76 75 91 87 84 88 90 95 95 79 69 62 61 59 62 64 65 56 57 72 76 72 62 63 75 72 78 95 77 66 60 68 71 72 88 86 76 87 80
86 87 87 85 81 81 89 80 84 91 90 93 95 77 66 67 64 61 59 64 61 61 64 72 67 71 62 63 69 76 75 83 92 77 65 62 68 65 65 64 78 86 92 78
84 86 88 86 83 81 89 85 86 88 80 84 77 77 69 71 66 60 53 57 57 61 61 57 66 74 66 63 69 69 71 80 81 84 74 68 78 66 67 70 96 84 86 76
82 84 89 85 81 86 80 82 85 80 90 67 75 71 64 65 69 59 54 57 54 60 61 58 63 65 70 70 73 76 74 86 82 73 70 70 68 62 61 78 66 80 69 62
82 85 90 87 81 84 82 79 80 80 71 64 70 68 67 66 64 64 60 60 54 53 62 63 70 62 62 71 82 79 72 80 81 87 66 70 76 65 59 55 60 61 58 57
79 86 91 88 82 82 86 88 74 70 69 65 66 70 70 68 69 66 59 63 64 60 65 67 67 68 68 66 69 71 78 84 85 80 75 73 57 54 54 57 55 51 65 49
76 84 91 89 85 85 94 92 91 78 65 60 60 57 61 60 64 71 62 60 67 65 61 62 75 77 72 70 68 62 69 75 87 92 80 65 32 40 44 48 45 44 44 48
77 80 88 87 84 80 89 94 95 83 81 57 61 59 60 60 63 68 64 60 63 66 71 66 60 72 71 69 70 69 68 76 86 91 90 58 38 49 44 47 34 41 42 38
80 78 85 88 84 80 92 94 94 95 77 60 51 56 61 67 69 70 64 62 65 74 72 64 70 56 50 67 78 60 63 73 85 88 81 64 30 40 46 41 33 32 43 42
79 78 79 88 86 82 90 92 88 95 92 80 66 58 65 64 72 66 68 67 77 72 77 71 65 66 54 49 65 83 87 87 93 94 94 77 51 41 46 28 16 40 41 42
78 78 78 84 86 84 86 91 86 88 94 88 70 60 71 71 70 60 59 56 70 80 74 68 65 65 56 64 55 75 77 91 95 92 95 83 47 53 35 27 55 43 50 47
80 78 78 77 85 84 84 91 82 80 90 73 77 65 73 66 63 71 71 59 68 72 77 74 72 63 66 60 48 57 54 55 68 71 67 46 53 41 43 40 38 47 58 51
86 79 77 76 78 81 85 96 93 93 95 90 88 78 70 62 66 66 66 77 68 76 82 84 79 79 72 68 67 61 43 41 45 39 34 35 33 39 49 48 44 45 46 46
89 82 76 77 76 79 82 97 95 94 95 96 80 64 77 71 68 70 73 75 76 80 87 87 89 82 67 70 55 58 48 49 48 49 35 36 32 33 35 38 45 50 50 48
93 90 81 76 77 81 89 96 88 88 89 92 93 79 74 70 73 76 76 75 82 91 90 92 93 91 77 78 83 62 50 42 48 40 27 34 34 41 48 48 47 46 50 52
96 92 85 80 78 84 93 96 90 80 92 94 96 84 83 79 78 82 82 83 87 91 93 94 93 81 76 92 94 66 56 44 37 34 36 38 38 40 48 47 47 53 58 61
94 94 87 82 82 95 89 94 84 73 90 92 94 94 85 83 85 89 89 87 93 92 93 95 92 88 84 95 96 50 54 50 49 47 51 49 51 47 47 49 49 59 67 67
92 96 88 80 81 88 96 95 82 82 87 88 99 97 89 83 92 93 92 94 92 94 95 92 89 90 93 98 75 73 68 65 63 58 55 50 58 67 60 65 64 66 68 72
92 92 85 87 94 97 96 79 80 94 90 98 99 100 94 83 90 92 93 92 94 89 97 93 93 95 98 86 77 74 70 72 67 64 62 62 69 65 65 67 68 73 73 73
90 88 88 92 96 78 82 92 94 96 96 97 99 97 97 91 93 93 94 93 87 97 90 91 93 91 75 65 62 62 63 67 70 83 75 71 72 71 72 70 70 70 72 74
93 95 97 96 74 89 94 96 93 96 99 97 97 97 96 88 93 94 92 98 91 92 88 94 92 95 83 69 70 62 63 65 64 71 73 73 74 75 77 75 74 72 76 80
92 92 85 87 93 100 99 98 98 98 88 94 97 93 94 92 91 94 93 96 91 96 95 94 95 86 71 73 68 65 62 65 59 59 62 66 68 70 72 73 75 78 80 82
91 95 100 99 99 99 99 98 96 97 96 97 95 94 91 90 92 94 95 97 95 89 98 96 90 77 70 72 68 62 64 64 67 68 76 80 80 80 80 80 80 80 82 82
99 99 92 98 98 95 95 94 94 92 98 96 95 97 95 93 96 93 100 88 89 99 99 90 90 74 72 65 61 53 45 52 74 84 79 81 87 88 90 84 84 82 78 77
100 100 95 93 88 98 98 99 95 94 94 94 94 96 92 98 99 98 97 97 99 95 88 88 85 73 73 62 58 48 45 46 49 60 75 86 87 91 88 83 81 83 82 80
99 100 97 95 93 96 99 98 98 96 93 96 96 96 98 97 97 98 99 98 96 81 92 90 84 70 65 60 62 58 51 46 46 47 56 62 69 72 74 77 80 81 81 80
96 96 92 94 98 95 98 94 92 94 92 94 98 99 93 94 99 99 94 94 82 84 89 96 83 77 68 68 70 66 62 56 52 49 54 60 66 83 90 80 65 74 77 79

GFSNW_sfc_rhum_114.txt.gz
RH
83 81 82 81 82 76 75 91 88 87 90 89 96 94 80 68 64 64 65 68 67 72 71 75 84 82 72 65 68 82 80 83 98 87 71 69 75 82 79 89 84 88 89 80
84 83 82 80 80 78 92 84 87 93 93 92 95 78 69 68 66 64 63 67 63 63 69 76 77 77 68 66 72 81 76 84 92 83 68 67 75 74 72 72 81 85 93 76
83 84 85 84 79 84 88 81 85 83 84 87 78 79 74 71 66 61 57 59 58 62 60 64 77 79 70 70 74 68 70 84 80 78 68 75 79 74 75 74 93 86 82 76
82 85 88 86 84 86 75 80 84 84 86 69 75 76 70 70 70 63 57 59 57 63 66 64 74 77 76 74 75 79 76 88 86 80 75 76 73 68 71 83 71 73 63 73
79 86 91 88 85 78 83 82 75 86 75 70 73 75 75 69 71 69 66 62 63 59 67 65 66 64 78 78 86 83 80 78 86 87 73 77 81 72 67 64 68 69 62 61
76 86 91 89 85 76 87 94 81 65 64 72 69 69 69 66 69 67 61 64 68 68 64 70 73 74 74 77 77 81 82 86 86 82 74 75 57 55 62 67 64 54 68 52
76 81 89 90 86 85 91 95 94 77 64 67 62 63 63 62 66 73 66 64 72 70 69 72 76 80 79 78 74 68 77 78 89 93 77 54 29 45 49 52 48 47 46 41
80 78 86 87 85 80 89 95 92 84 76 68 63 64 64 68 72 72 63 64 64 70 73 65 58 67 74 79 78 78 71 81 88 92 93 59 31 54 56 51 41 43 44 40
81 80 80 87 84 81 94 95 96 92 68 48 59 62 71 66 75 68 69 67 69 74 74 66 65 47 52 65 83 66 78 78 83 90 88 58 26 41 47 37 27 25 48 47
80 80 79 85 85 82 90 92 90 95 89 81 69 56 59 68 75 67 72 73 78 73 81 71 69 67 64 56 67 83 87 90 95 95 96 83 56 45 47 46 17 36 48 46
82 79 80 79 85 84 85 92 89 82 92 84 77 63 72 72 73 57 51 57 67 84 75 72 66 68 58 68 63 79 82 94 98 94 98 83 54 55 34 29 51 48 55 54
85 80 79 77 80 83 81 89 88 85 86 70 86 78 77 74 69 67 78 54 72 68 77 82 77 67 75 65 47 70 59 54 71 75 70 50 52 42 42 43 38 38 49 44
89 83 77 78 75 78 85 97 96 93 94 85 84 80 72 64 72 71 71 75 75 80 80 83 82 77 72 71 71 66 48 52 54 47 38 43 42 41 46 50 47 43 45 46
92 86 80 77 77 78 83 97 94 95 96 94 74 67 79 71 71 71 76 73 80 83 88 84 85 81 68 70 58 60 48 49 51 53 38 33 32 34 34 37 43 50 52 52
95 93 89 79 77 79 92 97 94 90 82 81 88 84 80 76 75 79 81 79 85 90 88 92 91 92 87 87 88 92 62 53 57 44 34 38 36 37 40 42 39 42 50 52
94 96 92 84 78 82 93 95 90 81 90 90 88 85 84 82 82 81 83 86 90 92 90 94 94 86 81 93 95 70 65 56 48 42 53 48 44 46 44 46 42 47 54 57
90 95 93 86 81 92 82 84 83 74 89 91 90 92 85 84 87 92 92 90 94 93 93 96 94 90 88 95 98 62 61 64 63 61 69 57 59 53 48 52 50 54 62 66
88 92 93 84 81 87 95 94 83 83 88 88 98 94 90 82 93 93 95 95 94 93 95 93 94 88 94 98 81 76 69 66 66 66 69 65 61 65 60 60 66 66 68 70
88 93 85 86 92 95 96 78 83 92 90 99 99 99 94 83 92 93 93 94 92 90 98 96 93 94 98 84 80 74 67 74 67 68 69 71 78 69 70 71 70 74 74 74
89 86 89 96 97 79 82 90 93 96 96 98 99 98 98 89 94 94 94 95 88 92 94 88 96 95 78 68 65 65 66 65 72 74 72 82 82 81 77 74 74 76 76 77
93 96 98 96 77 91 93 97 94 96 99 98 97 98 96 92 92 93 93 98 93 96 93 94 91 95 82 69 72 70 67 66 69 68 72 70 78 85 85 81 78 78 79 81
92 92 88 91 94 100 100 98 98 98 92 94 98 95 95 93 92 94 94 94 91 96 94 94 96 86 71 67 68 60 61 62 59 60 62 67 76 78 82 80 77 78 80 83
91 94 100 99 98 100 100 100 95 96 97 97 96 94 91 92 92 94 96 98 96 90 99 98 88 74 66 66 67 58 58 56 58 60 68 72 78 77 80 80 81 81 83 81
99 100 97 96 96 85 94 94 94 93 98 97 95 97 96 94 96 94 98 92 92 100 99 87 89 72 64 72 63 59 52 50 59 65 64 72 80 83 84 82 80 79 80 76
100 100 95 86 84 98 98 98 96 94 94 95 96 96 92 98 98 97 98 99 98 98 91 90 88 68 71 62 60 62 64 60 56 53 62 68 74 79 77 78 80 80 81 82
97 98 99 94 99 91 99 98 97 96 94 96 96 97 98 98 98 98 96 97 98 88 93 93 86 74 73 59 67 65 68 69 64 59 55 54 57 63 67 70 76 81 84 83
93 98 90 95 98 95 97 96 89 94 92 92 98 99 93 97 98 97 95 95 91 90 81 96 85 78 67 74 77 76 73 70 69 70 68 68 64 82 89 79 56 70 78 78

GFSNW_sfc_rhum_117.txt.gz
RH
83 84 83 81 79 79 76 92 87 90 90 88 96 95 81 70 68 67 68 72 67 74 71 77 85 82 81 72 74 83 82 86 97 85 79 73 82 84 83 89 82 90 89 78
84 85 84 84 81 73 94 88 89 94 92 91 95 81 72 70 69 66 67 71 68 68 76 78 81 82 74 71 77 80 76 83 92 78 75 80 84 81 78 76 84 88 93 63
82 85 85 85 84 84 88 80 84 81 86 87 79 78 80 72 68 64 61 63 61 63 67 70 80 82 73 78 79 68 68 85 75 69 59 78 86 81 80 76 94 88 86 77
79 86 87 88 87 89 75 81 85 85 85 71 78 78 74 75 71 66 61 61 61 66 73 74 80 82 82 79 76 81 76 82 90 84 80 78 78 75 81 85 74 80 72 72
76 86 89 88 87 84 85 76 71 84 79 74 74 72 78 70 73 74 71 61 65 70 71 61 65 71 78 77 87 84 83 79 86 89 75 84 83 79 76 74 76 75 71 71
76 82 91 89 87 72 90 96 87 58 68 74 70 70 75 69 76 70 65 69 72 75 66 73 74 74 73 77 83 84 86 87 86 83 72 75 60 65 60 69 72 61 74 53
80 78 88 88 87 83 94 96 90 72 60 70 64 65 67 68 73 77 72 71 75 70 74 73 76 80 82 81 80 75 84 80 90 93 75 45 30 45 52 58 53 55 50 42
81 79 81 85 84 79 91 96 92 80 68 68 68 68 68 72 74 74 64 69 67 74 72 64 55 65 77 82 82 83 77 82 88 92 93 54 28 60 57 51 34 49 48 44
82 82 80 83 83 81 90 95 97 90 58 47 63 64 69 65 73 68 74 74 72 73 73 64 54 41 60 73 84 84 82 82 81 90 87 45 25 47 51 44 27 24 48 48
82 81 81 80 83 81 86 92 92 94 83 73 72 59 61 69 76 65 74 75 79 70 78 66 64 66 61 60 71 89 91 93 95 94 95 82 58 45 52 45 17 35 52 44
82 80 82 79 82 82 84 93 91 79 88 79 81 69 76 78 74 56 50 57 64 84 71 70 68 68 62 68 64 80 86 95 98 94 98 75 57 56 34 28 44 53 47 40
86 81 80 79 78 81 79 88 90 88 86 72 89 85 80 76 68 63 80 52 71 71 74 83 77 69 82 70 47 76 59 59 73 78 70 51 59 50 46 49 44 45 42 42
92 85 79 78 76 79 82 96 97 93 93 82 77 82 75 68 76 75 72 76 74 82 77 79 82 69 70 68 70 66 53 58 59 51 41 54 46 47 49 49 43 39 50 50
94 90 84 78 77 79 81 96 97 92 95 92 72 70 80 74 74 76 77 73 84 86 88 84 84 76 67 69 61 60 50 54 52 57 42 35 34 40 39 39 44 45 45 52
92 93 92 84 78 82 92 95 92 91 81 81 82 83 81 78 78 81 82 81 85 91 89 92 91 91 90 91 90 92 64 53 53 52 46 46 45 42 50 50 49 45 47 49
92 93 96 90 79 82 94 94 88 84 93 88 88 81 84 81 81 82 84 87 92 92 88 92 93 88 85 94 95 70 69 61 59 58 58 61 57 55 58 54 55 50 52 54
87 93 94 90 81 92 85 85 87 77 91 92 91 93 85 85 88 93 93 91 96 93 94 96 95 91 91 95 97 66 61 65 69 69 75 63 69 61 58 63 62 62 62 64
86 90 94 86 84 90 94 95 84 88 94 92 97 93 92 86 93 93 96 95 95 94 95 95 96 91 95 98 80 72 69 67 62 68 67 71 67 71 74 73 69 68 69 69
83 92 87 89 90 90 94 79 84 95 93 99 96 99 95 87 95 95 94 94 96 94 95 96 94 95 98 84 80 75 75 74 69 68 70 70 76 71 71 78 75 75 75 74
92 90 94 98 96 81 82 89 91 96 96 98 98 99 98 92 95 96 96 95 96 98 93 92 98 94 77 69 68 72 71 71 73 77 63 63 66 62 68 78 82 85 84 82
95 97 98 96 80 92 93 98 97 94 94 97 97 98 98 92 93 94 95 98 95 93 95 96 95 93 79 68 66 66 66 68 65 72 72 74 72 72 78 77 79 80 78 80
92 93 92 93 93 100 99 99 98 99 94 96 99 97 96 94 94 94 96 95 90 96 93 96 94 87 72 66 66 61 58 55 52 54 56 60 66 75 84 86 83 81 79 82
92 92 99 96 96 99 99 97 97 98 96 98 98 96 94 93 92 95 96 97 95 90 97 97 90 76 66 64 69 62 63 58 59 58 60 58 63 69 77 76 80 82 84 80
99 93 100 94 96 92 93 95 94 92 98 98 95 98 97 95 96 94 98 95 94 96 99 90 90 75 61 67 65 66 61 65 70 70 68 68 72 70 71 75 76 82 78 75
96 99 96 97 90 97 96 98 99 95 94 96 97 96 93 98 98 92 98 99 95 96 93 90 90 70 68 73 69 68 71 71 70 70 75 76 76 76 72 71 74 78 81 83
97 99 98 94 96 96 98 97 98 96 94 97 96 98 96 98 99 99 95 95 92 88 94 93 86 73 72 69 76 75 76 77 71 70 74 74 76 72 68 67 72 74 78 75
95 89 94 98 98 96 98 95 92 91 92 93 96 98 96 97 100 98 94 96 92 91 92 94 88 88 67 76 75 74 79 78 79 80 82 82 74 85 86 79 66 71 75 77

GFSNW_sfc_rhum_120.txt.gz
RH
84 85 83 81 81 77 78 92 86 91 93 88 96 95 83 71 72 70 71 75 69 77 74 80 86 80 81 74 73 82 83 85 97 85 81 81 82 83 83 87 80 92 91 76
84 85 84 84 80 76 94 90 90 92 82 91 95 82 74 71 70 70 70 74 69 74 78 81 84 84 80 74 80 79 75 84 92 78 78 84 88 85 80 79 85 90 91 51
80 86 85 85 84 83 88 80 83 79 86 88 82 80 80 76 68 66 62 66 64 68 76 76 82 84 76 80 82 69 63 84 72 65 56 82 91 86 84 79 95 87 88 77
76 85 87 86 88 87 77 82 86 85 85 75 80 79 75 78 69 64 61 63 62 72 76 75 83 83 85 79 75 82 71 73 92 85 80 79 78 78 88 87 77 83 75 81
75 82 87 86 87 78 82 76 77 85 80 77 74 73 80 76 77 75 69 63 67 72 74 72 72 78 80 78 87 86 85 76 87 89 77 84 89 82 81 84 81 81 76 77
79 79 89 88 80 73 90 96 89 57 71 76 66 66 72 69 76 75 66 71 71 74 74 74 77 75 77 77 84 85 84 86 86 81 75 77 62 72 77 80 81 70 77 54
81 80 85 86 83 79 92 97 91 71 57 77 66 65 68 68 72 71 76 74 72 71 69 73 74 77 80 79 82 79 87 82 90 94 75 39 29 50 58 64 59 63 58 48
81 82 80 82 82 74 94 97 88 75 59 76 70 75 73 75 73 75 67 70 70 72 71 63 54 64 80 86 81 84 78 83 89 91 92 48 34 62 60 53 33 55 57 52
83 83 80 82 81 78 89 96 97 83 57 41 68 66 73 66 73 70 77 76 76 70 72 62 51 39 61 81 86 87 85 84 82 92 82 40 21 56 62 62 23 26 52 45
82 82 82 80 81 79 85 94 93 89 73 68 68 60 62 72 75 63 75 78 80 72 73 60 60 63 62 61 76 94 93 93 95 93 94 79 58 55 62 39 22 34 61 42
83 80 82 80 81 81 83 94 94 79 82 77 81 72 76 81 73 54 54 59 64 83 67 65 68 68 64 70 65 85 89 96 97 90 98 66 59 62 46 28 46 47 46 44
88 83 80 80 79 80 76 86 92 90 86 68 88 86 84 78 69 63 79 52 68 72 71 81 74 70 86 70 44 79 64 64 76 80 69 53 66 52 48 52 52 53 55 46
93 88 81 78 78 79 82 96 98 92 88 77 76 86 78 71 78 78 70 80 78 81 77 79 80 67 67 65 67 66 55 62 61 53 51 57 47 50 54 51 46 46 47 50
92 91 87 78 78 81 82 96 98 94 94 83 70 73 82 78 76 78 79 75 87 87 90 84 82 71 66 68 61 62 51 59 55 58 44 47 41 49 46 45 54 59 56 56
86 85 92 84 79 83 89 94 94 94 86 86 85 82 78 79 78 77 80 82 85 89 85 91 86 86 87 92 89 92 67 54 56 56 50 57 60 61 62 68 63 61 65 63
91 86 91 90 81 82 94 92 88 89 94 87 93 87 86 84 85 86 87 89 92 93 86 87 88 86 84 93 90 66 68 63 60 63 66 69 65 66 74 67 66 70 74 70
87 82 91 90 84 91 92 90 88 81 92 92 92 95 89 86 90 94 94 92 96 93 94 96 95 92 93 95 96 67 65 66 71 77 78 68 75 67 65 68 66 70 70 69
85 86 93 87 86 88 94 95 85 90 94 93 97 94 92 87 93 94 96 96 95 95 96 96 97 93 96 98 80 76 70 67 69 71 71 68 66 71 61 63 69 76 74 74
82 93 88 86 90 94 95 80 84 96 92 98 95 99 92 90 97 96 95 95 96 95 96 96 94 95 98 84 79 81 75 81 76 75 64 62 69 66 66 68 73 80 76 79
93 89 91 96 96 82 82 89 91 95 96 98 97 98 99 92 96 96 96 96 98 99 94 94 99 97 83 76 74 76 76 73 72 63 60 65 67 62 60 66 74 82 82 80
94 98 98 97 82 91 93 98 96 94 94 97 96 96 98 93 95 95 95 97 95 91 93 94 94 97 83 72 70 66 64 68 60 67 66 68 70 70 67 66 69 77 78 78
91 92 93 94 93 98 97 98 97 99 87 94 99 98 97 96 95 94 96 97 90 98 92 91 93 88 76 73 72 71 60 58 54 55 55 58 60 65 70 71 70 68 74 77
90 90 100 93 95 97 98 96 94 98 93 98 99 98 94 94 91 96 96 97 93 92 95 94 92 78 71 67 67 68 70 71 69 72 70 69 70 74 76 74 71 75 76 70
96 95 99 94 97 96 95 95 95 94 98 99 95 98 97 96 95 93 98 92 93 96 99 94 93 80 69 70 72 74 72 72 79 78 76 77 80 80 80 79 78 77 71 66
95 98 97 98 91 97 97 98 99 97 96 96 97 96 93 99 98 88 93 99 96 92 95 93 92 74 72 71 75 69 75 74 77 75 76 78 80 80 78 80 81 79 75 75
95 99 96 92 95 97 99 99 98 97 95 97 94 97 96 99 95 97 89 90 90 89 94 94 86 77 73 74 73 75 77 78 78 82 80 79 82 80 76 75 80 78 78 80
98 95 95 94 95 97 98 95 94 93 97 96 97 98 92 96 97 98 96 94 90 92 94 92 83 84 83 86 76 67 70 74 70 78 83 83 77 84 90 88 72 77 81 83